     2              OBSERVATION DATA    GPS                 RINEX VERSION / TYPE
teqc 1997Jul24 19970902 21:07:01UTC                         PGM / RUN BY / DATE
                                                            COMMENT
BIT 2 OF LLI FLAGS DATA COLLECTED UNDER A-S CONDITION       COMMENT
BIT 2 OF LLI FLAGS DATA COLLECTED UNDER A-S CONDITION       COMMENT
Original Marker Name: OCOT                                  COMMENT
Campaign Name: Salt. Tr. Crust. Monit. May-Jun 1986         COMMENT
4-Character Station Name: OCOT                              COMMENT
6-Character Antenna Code: TI4100                            COMMENT
Vertical Measurement Point: PAE                             COMMENT
Vertical Offset to Rinex Ref. Point: 0.0000                 COMMENT
Radial Measurement Point: RRP                               COMMENT
Radial Offset to Rinex Ref. Point: 0.0000                   COMMENT
Antenna Height from Field Measurement: 1.4575 m             COMMENT
Original XYZ: -2335568.4435 -4832221.6192 3434449.9475      COMMENT
New XYZ position is based on association with SCEC monument COMMENT
E1C8V7N3+0011. Position of that monument is believed to be  COMMENT
valid to within 1 m horizontally; vertical accuracy         COMMENT
should be no worse than 3-times this value.                 COMMENT
                                                            COMMENT
Revised Rinex header created by UCSD GPS archive for        COMMENT
GSAC on 10-Apr-1999 (1999:100) 05:09:06 GMT                 COMMENT
For assistance contact dagnew@ucsd.edu or hjohnson@ucsd.edu COMMENT
                                                            COMMENT
OCOTILLO NCMN 1982                                          MARKER NAME
05 NATIONAL GEODETIC SURVEY                                 OBSERVER / AGENCY
UT-33 TI 4100 1.0                                           REC # / TYPE / VERS
4091 TI 4100                                                ANT # / TYPE
 -2335602.0000 -4832244.0000  3434393.0000                  APPROX POSITION XYZ
        1.4575        0.0000        0.0000                  ANTENNA: DELTA H/E/N
     1     1     0                                          WAVELENGTH FACT L1/2
     4    P1    P2    L1    L2                              # / TYPES OF OBSERV
     6                                                      INTERVAL
  1986     6    12     1    17   17.000000                  TIME OF FIRST OBS
  1986     6    12     2    57   35.000000                  TIME OF LAST OBS
     0                                                      # OF SATELLITES
                                                            END OF HEADER
 86  6 12  1 17 17.0800000  0  3G 6G 9G11
  20827870.274    20827872.100    35527142.782 9 -44999399.477 7
  20333597.384    20333600.241    21208078.003 8 -56201048.815 8
  21264818.352    21264819.394    39040892.891 9 -45736893.604 8
 86  6 12  1 17 23.0800000  0  3G 6G 9G11
  20829684.194    20829686.675    35536676.324 8 -44991970.741 9
  20331996.673    20331998.670    21199661.087 9 -56207607.445 7
  21266998.403    21267000.844    39052354.730 9 -45727962.302 9
 86  6 12  1 17 29.0800000  0  3G 6G 9G11
  20831502.920    20831504.398    35546231.310 9 -44984525.303 7
  20330399.003    20330399.578    21191263.890 9 -56214150.716 7
  21269182.912    21269183.918    39063830.092 9 -45719020.476 8
 86  6 12  1 17 35.0800000  0  3G 6G 9G11
  20833324.936    20833326.075    35555807.725 9 -44977063.166 8
  20328805.132    20328805.374    21182886.465 9 -56220678.580 7
  21271369.855    21271370.914    39075318.951 9 -45710068.112 8
 86  6 12  1 17 41.0800000  0  3G 6G 9G11
  20835151.675    20835152.638    35565405.666 9 -44969584.257 7
  20327214.685    20327215.339    21174529.087 9 -56227190.831 8
  21273557.942    21273560.381    39086821.394 9 -45701105.174 8
 86  6 12  1 17 47.0800000  0  3G 6G 9G11
  20836982.250    20836983.242    35575025.176 9 -44962088.545 7
  20325628.035    20325630.213    21166191.456 9 -56233687.669 7
  21275749.384    21275751.719    39098337.317 9 -45692131.731 8
 86  6 12  1 17 53.0800000  0  3G 6G 9G11
  20838817.328    20838818.511    35584666.207 9 -44954576.048 8
  20324045.668    20324046.724    21157873.800 9 -56240168.958 8
  21277942.748    21277945.788    39109866.757 9 -45683147.757 9
 86  6 12  1 17 59.0800000  0  3G 6G 9G11
  20840655.160    20840656.557    35594328.653 9 -44947046.874 8
  20322466.210    20322468.396    21149576.039 9 -56246634.768 8
  21280139.873    21280142.383    39121409.680 9 -45674153.270 8
 86  6 12  1 18  5.0800000  0  3G 6G 9G11
  20842498.013    20842499.524    35604012.504 8 -44939501.017 7
  20320890.939    20320891.751    21141298.169 8 -56253085.056 9
  21282338.726    21282340.822    39132965.982 9 -45665148.371 8
 86  6 12  1 18 11.0800000  0  3G 6G 9G11
  20844345.656    20844346.383    35613717.830 9 -44931938.438 8
  20319319.637    20319320.260    21133040.260 9 -56259519.787 8
  21284540.865    21284542.643    39144535.669 9 -45656133.023 8
 86  6 12  1 18 17.0800000  0  3G 6G 9G11
  20846196.463    20846197.159    35623444.607 9 -44924359.124 8
  20317752.182    20317752.195    21124802.246 9 -56265939.013 8
  21286745.339    21286746.530    39156118.756 8 -45647107.255 8
 86  6 12  1 18 23.0800000  0  3G 6G 9G11
  20848051.722    20848052.371    35633192.885 9 -44916763.068 8
  20316187.738    20316188.823    21116584.292 9 -56272342.612 7
  21288951.954    21288953.363    39167715.249 9 -45638071.027 8
 86  6 12  1 18 29.0800000  0  3G 6G 9G11
  20849910.515    20849911.455    35642962.629 9 -44909150.290 8
  20314627.588    20314628.163    21108386.295 9 -56278730.674 8
  21291160.503    21291161.552    39179325.141 9 -45629024.355 9
 86  6 12  1 18 35.0800000  0  3G 6G 9G11
  20851773.912    20851774.825    35652753.801 9 -44901520.796 8
  20313072.005    20313070.976    21100208.334 9 -56285103.117 8
  21293372.808    21293373.612    39190948.399 9 -45619967.288 7
 86  6 12  1 18 41.0800000  0  3G 6G 9G11
  20853641.020    20853642.572    35662566.460 8 -44893874.582 8
  20311518.696    20311520.590    21092050.297 9 -56291460.013 7
  21295586.777    21295589.402    39202584.913 9 -45610899.866 8
 86  6 12  1 18 47.0800000  0  3G 6G 9G11
  20855511.430    20855513.931    35672400.501 9 -44886211.701 8
  20309970.510    20309971.642    21083912.406 8 -56297801.243 7
  21297804.193    21297806.743    39214234.676 9 -45601822.133 8
 86  6 12  1 18 53.0800000  0  3G 6G 9G11
  20857387.179    20857388.661    35682255.946 9 -44878532.130 8
  20308425.528    20308427.075    21075794.515 9 -56304126.874 7
  21300022.667    21300025.438    39225897.661 9 -45592734.092 8
 86  6 12  1 18 59.0800000  0  3G 6G 9G11
  20859267.006    20859268.830    35692132.861 9 -44870835.837 8
  20306884.780    20306886.235    21067696.704 9 -56310436.841 8
  21302245.840    21302247.420    39237573.936 9 -45583635.690 8
 86  6 12  1 19  5.0800000  0  3G 6G 9G11
  20861150.479    20861152.577    35702031.231 9 -44863122.826 7
  20305347.325    20305348.782    21059619.145 9 -56316731.052 7
  21304469.626    21304472.005    39249263.472 9 -45574526.970 8
 86  6 12  1 19 11.0800000  0  3G 6G 9G11
  20863038.276    20863039.811    35711951.067 9 -44855393.088 7
  20303814.104    20303815.907    21051561.707 9 -56323009.572 7
  21306696.228    21306698.472    39260966.239 9 -45565407.933 8
 86  6 12  1 19 17.0800000  0  3G 6G 9G11
  20864929.867    20864930.488    35721892.347 9 -44847646.652 8
  20302284.987    20302286.010    21043524.424 8 -56329272.394 7
  21308926.115    21308927.292    39272682.202 9 -45556278.614 8
 86  6 12  1 19 23.0800000  0  3G 6G 9G11
  20866826.004    20866827.571    35731854.997 9 -44839883.543 8
  20300759.836    20300760.170    21035507.302 9 -56335519.491 7
  21311157.874    21311161.057    39284411.299 9 -45547139.064 8
 86  6 12  1 19 29.0800000  0  3G 6G 9G11
  20868726.264    20868726.857    35741839.109 9 -44832103.721 7
  20299237.473    20299238.703    21027510.367 9 -56341750.867 8
  21313391.585    21313395.010    39296153.481 9 -45537989.312 8
 86  6 12  1 19 35.0800000  0  3G 6G 9G11
  20870629.683    20870631.639    35751844.593 9 -44824307.239 7
  20297719.664    20297721.256    21019533.635 2 -56347966.516 3
  21315628.812    21315631.108    39307908.717 9 -45528829.397 8
 86  6 12  1 19 41.0800000  0  3G 6G 9G11
  20872537.203    20872539.409    35761871.499 9 -44816494.072 7
  20296205.542    20296205.633    21011577.086 2 -56354166.431 3
  21317868.704    21317871.092    39319677.055 9 -45519659.262 8
 86  6 12  1 19 47.0800000  0  3G 6G 9G11
  20874448.655    20874451.179    35771919.808 9 -44808664.225 7
  20294694.771    20294697.584    21003640.952 1 -56360350.424 2
  21320109.982    21320112.827    39331458.537 9 -45510478.893 9
 86  6 12  1 19 53.0800000  0  3G 6G 9G11
  20876365.554    20876367.506    35781989.568 9 -44800817.669 8
  20293188.608    20293189.953    20995725.018 3 -56366518.693 2
  21322354.381    21322357.293    39343253.151 9 -45501288.293 9
 86  6 12  1 19 59.0800000  0  3G 6G 9G11
  20878285.828    20878288.578    35792080.766 9 -44792954.402 8
  20291687.271    20291686.744    20987829.441 2 -56372671.086 1
  21324601.476    21324604.666    39355060.853 9 -45492087.480 9
 86  6 12  1 20  5.0800000  0  3G 6G 9G11
  20880210.509    20880213.007    35802193.283 9 -44785074.521 7
  20290185.121    20290188.233    20979954.160 2 -56378807.662 5
  21326851.193    21326854.672    39366881.573 9 -45482876.547 8
 86  6 12  1 20 11.0800000  0  3G 6G 9G11
  20882138.283    20882140.743    35812327.160 9 -44777178.003 7
  20288692.297    20288693.671    20972099.150 2 -56384928.448 1
  21329103.824    21329106.115    39378715.261 9 -45473655.490 8
 86  6 12  1 20 17.0800000  0  3G 6G 9G11
  20884070.472    20884074.476    35822482.482 9 -44769264.781 8
  20287202.360    20287203.809    20964264.470 3 -56391033.408 1
  21331357.621    21331359.039    39390561.918 9 -45464424.325 8
 86  6 12  1 20 23.0800000  0  3G 6G 9G11
  20886006.376    20886010.421    35832659.243 1 -44761334.833 1
  20285716.275    20285716.000    20956450.256 9 -56397122.388 7
  21333614.368    21333616.343    39402421.569 9 -45455183.044 7
 86  6 12  1 20 29.0800000  0  3G 6G 9G11
  20887947.265    20887949.590    35842857.415 1 -44753388.210 1
  20284232.585    20284232.673    20948656.427 9 -56403195.514 7
  21335874.047    21335876.141    39414294.209 9 -45445931.635 8
 86  6 12  1 20 35.0800000  0  3G 6G 9G11
  20889893.995    20889894.807    35853076.980 1 -44745424.922 1
  20282753.444    20282753.375    20940883.084 9 -56409252.657 7
  21338135.508    21338137.944    39426179.795 9 -45436670.143 8
 86  6 12  1 20 41.0800000  0  3G 6G 9G11
  20891842.049    20891846.531    35863317.946 1 -44737444.959 1
  20281278.106    20281278.284    20933130.209 9 -56415293.857 6
  21340399.618    21340402.024    39438078.276 9 -45427398.605 8
 86  6 12  1 20 47.0800000  0  3G 6G 9G11
  20893795.661    20893792.825    35873580.260 1 -44729448.351 1
  20279806.489    20279807.715    20925397.692 9 -56421319.194 7
  21342665.996    21342668.538    39449989.624 9 -45418117.041 9
 86  6 12  1 20 53.0800000  0  3G 6G 9G11
  20895752.993    20895754.157    35883863.942 1 -44721435.110 1
  20278339.681    20278341.016    20917685.641 9 -56427328.597 7
  21344935.465    21344937.655    39461913.820 9 -45408825.457 9
 86  6 12  1 20 59.0800000  0  3G 6G 9G11
  20897712.242    20897714.985    35894168.933 1 -44713405.242 1
  20276875.108    20276876.248    20909994.002 9 -56433322.076 7
  21347206.423    21347209.915    39473850.842 9 -45399523.884 9
 86  6 12  1 21  5.0800000  0  3G 6G 9G11
  20899677.359    20899679.299    35904495.374 1 -44705358.684 2
  20275416.311    20275416.034    20902322.966 9 -56439299.509 7
  21349480.386    21349483.238    39485800.645 9 -45390212.356 8
 86  6 12  1 21 11.0800000  0  3G 6G 9G11
  20901647.931    20901648.542    35914843.153 8 -44697295.476 7
  20273959.510    20273962.197    20894672.501 3 -56445260.903 3
  21351756.915    21351759.145    39497763.307 9 -45380890.797 9
 86  6 12  1 21 17.0800000  0  3G 6G 9G11
  20903621.141    20903621.866    35925212.335 9 -44689215.607 8
  20272506.926    20272509.689    20887042.640 3 -56451206.251 1
  21354035.224    21354038.980    39509738.799 9 -45371559.251 7
 86  6 12  1 21 23.0800000  0  3G 6G 9G11
  20905597.890    20905599.870    35935602.803 9 -44681119.137 8
  20271060.896    20271060.688    20879433.238 3 -56457135.677 2
  21356316.996    21356320.091    39521726.996 9 -45362217.807 9
 86  6 12  1 21 29.0800000  0  3G 6G 9G11
  20907579.285    20907580.253    35946014.614 9 -44673006.044 8
  20269616.307    20269618.558    20871844.441 1 -56463049.008 1
  21358600.938    21358602.754    39533727.896 9 -45352866.458 8
 86  6 12  1 21 35.0800000  0  3G 6G 9G11
  20909565.563    20909565.748    35956447.756 9 -44664876.320 8
  20268174.742    20268175.190    20864276.284 3 -56468946.277 5
  21360886.448    21360889.552    39545741.455 9 -45343505.246 8
 86  6 12  1 21 41.0800000  0  3G 6G 9G11
  20911554.722    20911556.467    35966902.216 9 -44656730.001 7
  20266739.845    20266738.574    20856728.697 3 -56474827.512 2
  21363174.562    21363177.253    39557767.755 9 -45334134.108 9
 86  6 12  1 21 47.0800000  0  3G 6G 9G11
  20913548.547    20913549.975    35977378.045 9 -44648567.015 9
  20265307.714    20265308.208    20849201.825 2 -56480692.605 3
  21365466.471    21365468.739    39569806.738 9 -45324753.088 8
 86  6 12  1 21 53.0800000  0  3G 6G 9G11
  20915545.490    20915547.288    35987875.285 9 -44640387.350 7
  20263878.779    20263880.571    20841695.624 5 -56486541.587 2
  21367759.353    21367761.544    39581858.436 9 -45315362.156 8
 86  6 12  1 21 59.0800000  0  3G 6G 9G11
  20917547.198    20917548.382    35998393.892 9 -44632191.048 8
  20262454.816    20262454.689    20834210.165 2 -56492374.431 1
  21370055.315    21370057.602    39593922.779 9 -45305961.368 8
 86  6 12  1 22  5.0800000  0  3G 6G 9G11
  20919552.557    20919554.791    36008933.771 9 -44623978.163 8
  20261031.951    20261034.450    20826745.447 6 -56498191.089 5
  21372353.365    21372356.043    39605999.753 9 -45296550.739 9
 86  6 12  1 22 11.0800000  0  3G 6G 9G11
  20921562.085    20921564.571    36019494.899 9 -44615748.716 8
  20259615.611    20259617.688    20819301.306 3 -56503991.716 2
  21374654.111    21374656.316    39618089.262 9 -45287130.347 8
 86  6 12  1 22 17.0800000  0  3G 6G 9G11
  20923575.760    20923577.185    36030077.359 9 -44607502.652 8
  20258206.400    20258205.902    20811877.894 3 -56509776.185 2
  21376957.227    21376958.940    39630191.312 9 -45277700.192 9
 86  6 12  1 22 23.0800000  0  3G 6G 9G11
  20925593.669    20925595.355    36040681.169 9 -44599239.949 7
  20256796.664    20256796.061    20804475.317 4 -56515544.440 3
  21379262.936    21379264.497    39642305.907 9 -45268260.246 8
 86  6 12  1 22 29.0800000  0  3G 6G 9G11
  20927615.326    20927617.071    36051306.241 9 -44590960.683 9
  20255392.658    20255390.132    20797093.564 6 -56521296.454 3
  21381570.597    21381572.610    39654433.043 9 -45258810.532 8
 86  6 12  1 22 35.0800000  0  3G 6G 9G11
  20929640.592    20929643.882    36061952.618 8 -44582664.810 7
  20253990.129    20253990.869    20789732.557 6 -56527032.305 3
  21383881.474    21383882.875    39666572.768 9 -45249351.000 9
 86  6 12  1 22 41.0800000  0  3G 6G 9G11
  20931670.767    20931673.180    36072620.352 9 -44574352.294 8
  20252593.898    20252594.810    20782392.431 3 -56532751.898 2
  21386193.891    21386195.658    39678725.000 9 -45239881.736 8
 86  6 12  1 22 47.0800000  0  3G 6G 9G11
  20933705.232    20933707.444    36083309.379 9 -44566023.183 8
  20251200.921    20251201.572    20775073.092 4 -56538455.265 1
  21388508.045    21388510.497    39690889.751 9 -45230402.711 9
 86  6 12  1 22 53.0800000  0  3G 6G 9G11
  20935743.519    20935745.841    36094019.678 9 -44557677.505 8
  20249811.532    20249814.528    20767774.637 4 -56544142.380 3
  21390825.310    21390826.509    39703066.963 9 -45220913.971 8
 86  6 12  1 22 59.0800000  0  3G 6G 9G11
  20937785.340    20937787.482    36104751.273 9 -44549315.219 8
  20248426.504    20248429.643    20760497.037 5 -56549813.244 2
  21393145.247    21393146.841    39715256.575 9 -45211415.586 7
 86  6 12  1 23  5.0800000  0  3G 6G 9G11
  20939831.208    20939833.263    36115504.053 8 -44540936.447 8
  20247045.844    20247048.405    20753240.317 6 -56555467.824 4
  21395466.782    21395468.341    39727458.598 9 -45201907.506 9
 86  6 12  1 23 11.0800000  0  3G 6G 9G11
  20941881.616    20941883.803    36126278.165 8 -44532541.033 8
  20245669.302    20245670.020    20746004.627 3 -56561106.031 3
  21397791.591    21397793.065    39739673.011 9 -45192389.790 8
 86  6 12  1 23 17.0800000  0  3G 6G 9G11
  20943935.514    20943938.543    36137073.638 9 -44524128.979 8
  20244295.876    20244296.859    20738789.839 3 -56566727.930 3
  21400118.529    21400120.443    39751899.834 9 -45182862.393 8
 86  6 12  1 23 23.0800000  0  3G 6G 9G11
  20945994.995    20945997.149    36147890.340 9 -44515700.390 8
  20242926.115    20242928.090    20731596.018 4 -56572333.497 3
  21402448.031    21402448.758    39764138.969 9 -45173325.406 8
 86  6 12  1 23 29.0800000  0  3G 6G 9G11
  20948056.714    20948059.387    36158728.283 7 -44507255.247 8
  20241560.464    20241563.225    20724423.102 2 -56577922.792 2
  21404779.261    21404780.766    39776390.403 9 -45163778.836 7
 86  6 12  1 23 35.0800000  0  3G 6G 9G11
  20950123.932    20950123.404    36169587.400 3 -44498793.602 1
  20240201.617    20240202.839    20717271.185 8 -56583495.718 6
  21407112.181    21407114.605    39788654.145 9 -45154222.678 8
 86  6 12  1 23 41.0800000  0  3G 6G 9G11
  20952196.923    20952194.619    36180467.797 1 -44490315.369 1
  20238844.767    20238844.601    20710140.300 9 -56589052.242 6
  21409448.192    21409449.355    39800930.235 9 -45144656.904 8
 86  6 12  1 23 47.0800000  0  3G 6G 9G11
  20954262.733    20954271.020    36191369.491 1 -44481820.549 1
  20237490.827    20237492.420    20703030.471 9 -56594592.368 7
  21411786.455    21411788.862    39813218.622 9 -45135081.531 8
 86  6 12  1 23 53.0800000  0  3G 6G 9G11
  20956347.264    20956351.381    36202292.413 1 -44473309.194 1
  20236141.894    20236143.340    20695941.710 8 -56600116.087 6
  21414127.985    21414128.267    39825519.240 9 -45125496.638 8
 86  6 12  1 23 59.0800000  0  3G 6G 9G11
  20958430.746    20958430.796    36213236.542 1 -44464781.306 1
  20234797.832    20234798.429    20688873.922 9 -56605623.457 7
  21416470.679    21416471.996    39837832.032 9 -45115902.259 8
 86  6 12  1 24  5.0800000  0  3G 6G 9G11
  20960516.857    20960518.574    36224201.902 6 -44456236.872 5
  20233456.851    20233456.923    20681827.226 9 -56611114.381 7
  21418815.612    21418818.267    39850156.999 9 -45106298.388 9
 86  6 12  1 24 11.0800000  0  3G 6G 9G11
  20962608.558    20962608.427    36235188.519 5 -44447675.874 5
  20232118.520    20232120.851    20674801.744 6 -56616588.792 6
  21421163.943    21421164.774    39862494.164 5 -45096685.017 7
 86  6 12  1 24 17.0800000  0  3G 6G 9G11
  20964701.637    20964704.120    36246196.313 8 -44439098.370 8
  20230786.503    20230788.844    20667797.300 8 -56622046.791 8
  21423513.878    21423515.198    39874843.529 9 -45087062.138 8
 86  6 12  1 24 23.0800000  0  4G 6G13G 9G11
  20966799.814    20966801.965    36257225.360 9 -44430504.321 7
                  21264399.034    -2471603.478 9
  20229457.464    20229459.529    20660814.099 8 -56627488.255 7
  21425866.033    21425867.337    39887205.030 9 -45077429.796 8
 86  6 12  1 24 29.0800000  0  4G 6G13G 9G11
  20968902.042    20968905.286    36268275.622 9 -44421893.733 8
                  21262197.216    -2483183.998 9
  20228132.816    20228135.494    20653851.970 8 -56632913.287 8
  21428220.437    21428222.605    39899578.677 9 -45067787.998 8
 86  6 12  1 24 35.0800000  0  4G 6G13G 9G11
  20971008.988    20971012.368    36279347.085 8 -44413266.633 8
                  21260027.242    -2494745.189 9
  20226811.716    20226813.698    20646911.076 9 -56638321.759 8
  21430578.302    21430579.096    39911964.461 9 -45058136.732 8
 86  6 12  1 24 41.0800000  0  4G 6G13G 9G11
  20973120.587    20973121.603    36290439.723 9 -44404623.023 8
  21257831.705    21257832.457    -2506287.502 9   3352243.366 6
  20225495.660    20225496.685    20639991.356 7 -56643713.767 7
  21432937.119    21432938.738    39924362.305 9 -45048476.072 8
 86  6 12  1 24 47.0800000  0  4G 6G13G 9G11
  20975234.570    20975237.027    36301553.632 8 -44395962.836 7
  21255638.335    21255639.638    -2517810.576 9   3343264.418 7
  20224182.442    20224183.592    20633092.838 9 -56649089.228 7
  21435298.418    21435299.543    39936772.264 9 -45038805.984 8
 86  6 12  1 24 53.0800000  0  4G 6G13G 9G11
  20977354.723    20977355.922    36312688.619 9 -44387286.232 8
  21253448.694    21253450.985    -2529314.446 9   3334300.363 8
  20222874.200    20222875.428    20626215.574 9 -56654448.136 8
  21437662.298    21437664.403    39949194.251 9 -45029126.521 8
 86  6 12  1 24 59.0800000  0  4G 6G13G 9G11
  20979477.587    20979478.551    36323844.838 9 -44378593.086 8
  21251263.985    21251265.802    -2540799.241 9   3325351.170 8
  20221570.274    20221569.663    20619359.446 7 -56659790.566 7
  21440028.587    21440030.733    39961628.253 9 -45019437.683 8
 86  6 12  1 25  5.0800000  0  4G 6G13G 9G11
  20981605.300    20981606.169    36335022.227 8 -44369883.443 8
  21249081.520    21249083.781    -2552264.854 9   3316416.934 8
  20220268.974    20220269.347    20612524.765 9 -56665116.303 7
  21442396.523    21442399.151    39974074.283 9 -45009739.482 8
 86  6 12  1 25 11.0800000  0  4G 6G13G 9G11
  20983736.050    20983736.013    36346220.803 9 -44361157.278 8
  21246903.554    21246906.153    -2563711.286 9   3307497.651 7
  20218971.943    20218972.929    20605711.406 8 -56670425.423 7
  21444767.705    21444768.957    39986532.285 9 -45000031.950 8
 86  6 12  1 25 17.0800000  0  4G 6G13G 9G11
  20985871.581    20985871.914    36357440.583 9 -44352414.593 8
  21244729.186    21244730.375    -2575138.502 9   3298593.325 8
  20217679.424    20217680.149    20598919.242 8 -56675718.011 6
  21447139.998    21447141.617    39999002.189 9 -44990315.134 7
 86  6 12  1 25 23.0800000  0  4G 6G13G 9G11
  20988011.263    20988011.653    36368681.524 9 -44343655.429 9
  21242558.052    21242559.447    -2586546.632 9   3289703.869 8
  20216391.425    20216391.755    20592148.416 8 -56680993.979 7
  21449515.278    21449517.651    40011484.045 9 -44980589.022 8
 86  6 12  1 25 29.0800000  0  4G 6G13G 9G11
  20990154.522    20990154.813    36379943.615 9 -44334879.771 8
  21240391.038    21240392.809    -2597935.551 9   3280829.391 7
  20215106.669    20215107.991    20585398.964 8 -56686253.300 8
  21451892.603    21451894.812    40023977.831 9 -44970853.611 8
 86  6 12  1 25 35.0800000  0  4G 6G13G 9G11
  20992300.842    20992302.744    36391226.860 9 -44326087.652 9
  21238227.764    21238230.396    -2609305.278 9   3271969.874 7
  20213827.324    20213828.555    20578670.829 9 -56691495.994 7
  21454272.416    21454275.019    40036483.536 9 -44961108.913 9
 86  6 12  1 25 41.0800000  0  4G 6G13G 9G11
  20994451.995    20994453.670    36402531.221 9 -44317279.052 8
  21236067.534    21236069.750    -2620655.775 9   3263125.337 8
  20212549.934    20212553.080    20571964.109 9 -56696722.029 6
  21456654.151    21456656.408    40049001.119 9 -44951354.955 8
 86  6 12  1 25 47.0800000  0  4G 6G13G 9G11
  20996607.360    20996608.577    36413856.734 9 -44308453.990 8
  21233911.357    21233912.964    -2631987.044 9   3254295.775 7
  20211278.553    20211279.275    20565278.788 9 -56701931.352 6
  21459038.409    21459041.628    40061530.578 9 -44941591.739 8
 86  6 12  1 25 53.0800000  0  4G 6G13G 9G11
  20998765.904    20998766.811    36425203.377 9 -44299612.468 8
  21231758.111    21231761.387    -2643299.111 9   3245481.184 9
  20210010.547    20210011.513    20558614.931 9 -56707123.986 7
  21461424.727    21461426.725    40074071.897 9 -44931819.291 9
 86  6 12  1 25 59.0800000  0  4G 6G13G 9G11
  21000928.388    21000930.315    36436571.149 9 -44290754.466 8
  21229609.729    21229611.561    -2654591.985 9   3236681.543 8
  20208746.942    20208747.635    20551972.489 8 -56712299.899 7
  21463813.589    21463816.164    40086625.069 9 -44922037.602 9
 86  6 12  1 26  5.0800000  0  4G 6G13G 9G11
  21003096.604    21003098.133    36447959.991 9 -44281880.047 8
  21227464.418    21227466.985    -2665865.718 9   3227896.820 8
  20207486.362    20207487.784    20545351.505 8 -56717459.114 7
  21466204.886    21466207.103    40099190.039 9 -44912246.707 7
 86  6 12  1 26 11.0800000  0  4G 6G13G 9G11
  21005267.359    21005268.179    36459370.020 9 -44272989.127 8
  21225322.712    21225323.928    -2677120.224 9   3219127.089 8
  20206231.177    20206231.467    20538752.029 8 -56722601.562 7
  21468598.589    21468599.886    40111766.822 9 -44902446.626 8
 86  6 12  1 26 17.0800000  0  4G 6G13G 9G11
  21007443.043    21007445.131    36470801.160 9 -44264081.753 8
  21223185.452    21223186.718    -2688355.551 9   3210372.286 7
  20204978.762    20204978.712    20532174.032 9 -56727727.268 6
  21470994.174    21470996.529    40124355.344 9 -44892637.385 8
 86  6 12  1 26 23.0800000  0  4G 6G13G 9G11
  21009622.365    21009623.729    36482253.463 9 -44255157.873 9
  21221050.550    21221052.937    -2699571.662 9   3201632.458 8
  20203731.433    20203733.085    20525617.609 9 -56732836.182 7
  21473391.481    21473392.721    40136955.656 9 -44882818.967 9
 86  6 12  1 26 29.0800000  0  4G 6G13G 9G11
  21011806.032    21011806.455    36493726.805 9 -44246217.626 7
  21218919.252    21218922.209    -2710768.507 9   3192907.660 8
  20202487.372    20202487.786    20519082.672 9 -56737928.339 7
  21475791.367    21475793.346    40149567.668 9 -44872991.431 8
 86  6 12  1 26 35.0800000  0  4G 6G13G 9G11
  21013993.904    21013994.626    36505221.202 9 -44237260.945 8
  21216792.992    21216795.140    -2721946.112 9   3184197.830 8
  20201247.730    20201247.852    20512569.268 8 -56743003.717 6
  21478193.701    21478197.056    40162191.376 9 -44863154.778 8
 86  6 12  1 26 41.0800000  0  4G 6G13G 9G11
  21016184.477    21016185.952    36516736.683 9 -44228287.843 8
  21214668.934    21214671.502    -2733104.516 9   3175502.975 8
  20200012.855    20200014.236    20506077.405 9 -56748062.313 8
  21480598.278    21480600.637    40174826.775 9 -44853309.014 8
 86  6 12  1 26 47.0800000  0  4G 6G13G 9G11
  21018380.042    21018380.496    36528273.300 9 -44219298.278 9
  21212549.285    21212551.783    -2744243.746 9   3166823.062 7
  20198782.304    20198782.889    20499607.158 9 -56753104.064 7
  21483005.030    21483006.331    40187473.824 9 -44843454.163 8
 86  6 12  1 26 53.0800000  0  4G 6G13G 9G11
  21020579.358    21020581.055    36539830.991 9 -44210292.289 8
  21210434.205    21210435.076    -2755363.787 9   3158158.094 9
  20197554.721    20197556.275    20493158.471 8 -56758129.031 7
  21485414.046    21485415.893    40200132.485 9 -44833590.282 8
 86  6 12  1 26 59.0800000  0  4G 6G13G 9G11
  21022783.061    21022783.867    36551409.714 9 -44201269.914 8
  21208321.433    21208323.533    -2766464.603 9   3149508.112 9
  20196330.503    20196332.206    20486731.462 9 -56763137.089 7
  21487825.232    21487827.204    40212802.754 7 -44823717.352 8
 86  6 12  1 27  5.0800000  0  4G 6G13G 9G11
  21024989.505    21024991.470    36563009.522 9 -44192231.107 8
  21206212.572    21206213.872    -2777546.103 9   3140873.189 9
  20195111.607    20195114.355    20480326.059 9 -56768128.316 7
  21490238.328    21490240.577    40225484.652 9 -44813835.343 8
 86  6 12  1 27 11.0800000  0  4G 6G13G 9G11
  21027200.137    21027203.368    36574630.325 9 -44183175.950 8
  21204107.223    21204109.380    -2788608.290 9   3132253.300 8
  20193896.805    20193899.590    20473942.274 9 -56773102.700 7
  21492654.068    21492655.633    40238178.117 9 -44803944.347 8
 86  6 12  1 27 17.0800000  0  4G 6G13G 9G11
  21029415.619    21029418.393    36586272.246 9 -44174104.330 9
  21202005.211    21202007.750    -2799651.230 9   3123648.418 8
  20192686.469    20192687.400    20467580.260 8 -56778060.102 7
  21495071.342    21495073.133    40250883.131 9 -44794044.333 8
 86  6 12  1 27 23.0800000  0  4G 6G13G 9G11
  21031635.066    21031638.152    36597935.156 9 -44165016.346 7
  21199908.141    21199910.384    -2810674.962 9   3115058.492 8
  20191479.707    20191482.050    20461239.760 9 -56783000.754 7
  21497491.950    21497493.841    40263599.647 9 -44784135.364 8
 86  6 12  1 27 29.0800000  0  4G 6G13G 9G11
  21033859.028    21033861.133    36609619.125 9 -44155911.969 7
  21197812.885    21197816.577    -2821679.407 9   3106483.608 7
  20190278.136    20190279.477    20454921.109 8 -56787924.373 8
  21499913.983    21499916.280    40276327.704 9 -44774217.405 8
 86  6 12  1 27 35.0800000  0  4G 6G13G 9G11
  21036086.540    21036088.308    36621324.111 9 -44146791.214 8
  21195723.092    21195726.826    -2832664.564 9   3097923.753 8
  20189078.635    20189082.267    20448624.203 9 -56792831.054 7
  21502337.840    21502340.670    40289067.257 9 -44764290.482 7
 86  6 12  1 27 41.0800000  0  4G 6G13G 9G11
  21038318.255    21038319.381    36633050.170 8 -44137654.027 8
  21193636.823    21193640.447    -2843630.533 9   3089378.852 8
  20187885.698    20187887.387    20442348.982 9 -56797720.840 8
  21504765.257    21504766.748    40301818.278 9 -44754354.621 8
 86  6 12  1 27 47.0800000  0  4G 6G13G 9G11
  21040554.406    21040555.695    36644797.221 9 -44128500.491 7
  21191553.528    21191555.876    -2854577.272 9   3080848.924 8
  20186695.569    20186696.187    20436095.509 9 -56802593.665 7
  21507192.895    21507195.353    40314580.754 9 -44744409.843 8
 86  6 12  1 27 53.0800000  0  4G 6G13G 9G11
  21042792.674    21042794.302    36656565.246 9 -44119330.605 9
  21189473.438    21189476.191    -2865504.718 9   3072334.041 8
  20185509.370    20185510.996    20429863.877 8 -56807449.485 7
  21509624.256    21509625.250    40327354.687 9 -44734456.135 9
 86  6 12  1 27 59.0800000  0  4G 6G13G 9G11
  21045036.017    21045037.232    36668354.301 9 -44110144.336 8
  21187397.849    21187400.361    -2876412.881 9   3063834.175 8
  20184327.530    20184329.291    20423654.048 8 -56812288.319 7
  21512056.655    21512058.810    40340140.031 9 -44724493.521 8
 86  6 12  1 28  5.0800000  0  4G 6G13G 9G11
  21047283.728    21047284.411    36680164.339 9 -44100941.719 8
  21185326.003    21185328.380    -2887301.772 9   3055349.341 7
  20183150.478    20183152.452    20417466.008 8 -56817110.167 7
  21514492.073    21514492.153    40352936.788 9 -44714522.026 8
 86  6 12  1 28 11.0800000  0  4G 6G13G 9G11
  21049535.366    21049535.851    36691995.380 9 -44091722.724 8
  21183257.639    21183260.405    -2898171.416 9   3046879.491 7
  20181977.177    20181978.307    20411299.752 9 -56821915.038 7
  21516928.187    21516931.344    40365744.897 9 -44704541.688 8
 86  6 12  1 28 17.0800000  0  4G 6G13G 9G11
  21051790.915    21051791.511    36703847.422 9 -44082487.369 8
  21181192.981    21181195.313    -2909021.766 9   3038424.669 8
  20180808.252    20180807.987    20405155.369 9 -56826702.862 7
  21519368.709    21519370.071    40378564.338 9 -44694552.514 7
 86  6 12  1 28 23.0800000  0  4G 6G13G 9G11
  21054049.914    21054049.943    36715720.422 9 -44073235.688 8
  21179131.952    21179134.149    -2919852.762 9   3029984.938 8
  20179643.266    20179642.680    20399032.842 9 -56831473.660 7
  21521809.798    21521810.598    40391395.132 9 -44684554.500 8
 86  6 12  1 28 29.0800000  0  4G 6G13G 9G11
  21056312.854    21056314.214    36727614.389 9 -44063967.666 8
  21177073.786    21177076.201    -2930664.470 9   3021560.232 8
  20178482.476    20178483.247    20392932.276 9 -56836227.352 7
  21524253.554    21524255.308    40404237.200 9 -44674547.698 8
 86  6 12  1 28 35.0800000  0  4G 6G13G 9G11
  21058580.112    21058580.857    36739529.331 9 -44054683.307 8
  21175020.778    21175022.993    -2941456.890 9   3013150.563 8
  20177325.003    20177327.104    20386853.529 8 -56840964.029 7
  21526700.543    21526702.514    40417090.493 9 -44664532.142 9
 86  6 12  1 28 41.0800000  0  4G 6G13G 9G11
  21060851.927    21060853.451    36751465.231 9 -44045382.600 7
  21172970.100    21172973.513    -2952229.977 9   3004755.964 9
  20176172.374    20176174.016    20380796.794 9 -56845683.570 7
  21529147.752    21529149.648    40429955.088 9 -44654507.789 7
 86  6 12  1 28 47.0800000  0  4G 6G13G 9G11
  21063127.054    21063128.874    36763422.064 9 -44036065.605 8
  21170924.009    21170926.909    -2962983.705 9   2996376.437 8
  20175024.688    20175025.807    20374761.913 9 -56850386.072 7
  21531598.057    21531600.265    40442830.974 9 -44644474.627 8
 86  6 12  1 28 53.0800000  0  4G 6G13G 9G11
  21065405.595    21065408.100    36775399.878 9 -44026732.247 8
  21168881.819    21168884.714    -2973718.139 9   2988011.939 9
  20173878.962    20173881.243    20368749.048 9 -56855071.426 7
  21534049.981    21534052.418    40455718.081 9 -44634432.733 8
 86  6 12  1 28 59.0800000  0  4G 6G13G 9G11
  21067690.429    21067690.714    36787398.623 9 -44017382.582 7
  21166842.540    21166845.448    -2984433.371 9   2979662.401 8
  20172738.971    20172741.132    20362758.193 9 -56859739.631 7
  21536504.114    21536506.106    40468616.402 9 -44624382.090 8
 86  6 12  1 29  5.0800000  0  4G 6G13G 9G11
  21069977.378    21069977.838    36799418.270 9 -44008016.635 8
  21164806.883    21164810.281    -2995129.308 9   2971327.904 9
  20171603.906    20171605.806    20356789.187 9 -56864390.796 7
  21538961.149    21538963.975    40481525.859 9 -44614322.792 8
 86  6 12  1 29 11.0800000  0  4G 6G13G 9G11
  21072268.128    21072268.515    36811458.799 9 -43998634.410 8
  21162775.161    21162778.180    -3005805.954 9   2963008.445 8
  20170472.366    20170473.309    20350842.242 9 -56869024.787 7
  21541419.438    21541421.567    40494446.479 9 -44604254.777 7
 86  6 12  1 29 17.0800000  0  4G 6G13G 9G11
  21074563.326    21074563.120    36823520.263 9 -43989235.862 8
  21160747.718    21160751.083    -3016463.315 9   2954704.011 8
  20169344.890    20169345.285    20344917.382 9 -56873641.564 7
  21543880.680    21543883.071    40507378.265 9 -44594178.056 8
 86  6 12  1 29 23.0800000  0  4G 6G13G 9G11
  21076862.893    21076863.097    36835602.637 9 -43979821.049 8
  21158722.291    21158726.114    -3027101.469 9   2946414.548 8
  20168222.626    20168222.375    20339014.551 8 -56878241.181 6
  21546343.433    21546345.547    40520321.174 9 -44584092.685 8
 86  6 12  1 29 29.0800000  0  4G 6G13G 9G11
  21079166.216    21079166.301    36847705.875 9 -43970389.938 8
  21156701.794    21156703.910    -3037720.322 9   2938140.120 8
  20167103.260    20167102.954    20333133.680 9 -56882823.669 7
  21548807.943    21548811.397    40533275.172 9 -44573998.651 9
 86  6 12  1 29 35.0800000  0  4G 6G13G 9G11
  21081472.580    21081473.372    36859829.994 9 -43960942.589 8
  21154685.293    21154688.280    -3048319.818 9   2929880.779 7
  20165988.449    20165988.955    20327274.929 9 -56887388.935 7
  21551276.565    21551278.743    40546240.286 9 -44563895.983 8
 86  6 12  1 29 41.0800000  0  4G 6G13G 9G11
  21083784.252    21083784.406    36871975.049 9 -43951478.910 7
  21152670.740    21152673.945    -3058900.056 9   2921636.430 7
  20164877.388    20164878.642    20321438.240 9 -56891937.007 7
  21553744.552    21553747.970    40559216.461 9 -44553784.679 9
 86  6 12  1 29 47.0800000  0  4G 6G13G 9G11
  21086099.449    21086099.527    36884140.993 9 -43941998.966 7
  21150662.332    21150664.702    -3069460.979 9   2913407.150 8
  20163771.499    20163771.682    20315623.726 9 -56896467.796 8
  21556216.325    21556218.506    40572203.667 9 -44543664.785 9
 86  6 12  1 29 53.0800000  0  4G 6G13G 9G11
  21088417.303    21088419.455    36896327.758 9 -43932502.791 8
  21148656.775    21148658.595    -3080002.555 9   2905192.937 8
  20162668.507    20162672.165    20309831.368 9 -56900981.320 7
  21558689.749    21558691.220    40585201.938 9 -44533536.255 8
 86  6 12  1 29 59.0800000  0  4G 6G13G 9G11
  21090740.631    21090742.670    36908535.390 9 -43922990.351 7
  21146654.363    21146655.420    -3090524.786 9   2896993.816 9
  20161570.186    20161571.574    20304061.111 9 -56905477.627 7
  21561165.703    21561168.480    40598211.201 9 -44523399.177 8
 86  6 12  1 30  5.0800000  0  4G 6G13G 9G11
  21093067.386    21093069.846    36920763.923 9 -43913461.637 8
  21144655.827    21144656.712    -3101027.734 9   2888809.696 8
  20160476.105    20160477.821    20298312.969 8 -56909956.699 7
  21563643.481    21563646.398    40611231.438 9 -44513253.542 8
 86  6 12  1 30 11.0800000  0  4G 6G13G 9G11
  21095398.864    21095399.472    36933013.310 9 -43903916.657 7
  21142660.525    21142663.207    -3111511.375 9   2880640.620 8
  20159386.936    20159388.348    20292587.024 9 -56914418.455 8
  21566122.644    21566125.617    40624262.681 9 -44503099.324 8
 86  6 12  1 30 17.0800000  0  4G 6G13G 9G11
  21097733.326    21097735.359    36945283.519 9 -43894355.466 8
  21140668.912    21140670.098    -3121975.653 9   2872486.659 7
  20158300.566    20158302.577    20286883.323 9 -56918862.930 7
  21568604.713    21568607.927    40637304.915 9 -44492936.556 8
 86  6 12  1 30 23.0800000  0  4G 6G13G 9G11
  21100073.049    21100074.663    36957574.629 9 -43884777.982 8
  21138680.983    21138684.099    -3132420.642 9   2864347.705 8
  20157220.145    20157221.707    20281201.849 9 -56923290.032 7
  21571089.193    21571091.422    40650358.043 9 -44482765.287 6
 86  6 12  1 30 29.0800000  0  4G 6G13G 9G11
  21102415.524    21102416.750    36969886.508 9 -43875184.321 8
  21136697.692    21136699.750    -3142846.245 9   2856223.853 9
  20156143.251    20156145.545    20275542.592 8 -56927699.847 7
  21573575.268    21573576.177    40663422.032 9 -44472585.560 7
 86  6 12  1 30 35.0800000  0  4G 6G13G 9G11
  21104763.227    21104763.922    36982219.189 9 -43865574.449 7
  21134717.081    21134719.834    -3153252.470 9   2848115.122 8
  20155071.134    20155070.204    20269905.634 9 -56932092.282 8
  21576063.350    21576065.408    40676496.910 9 -44462397.346 9
 86  6 12  1 30 41.0800000  0  4G 6G13G 9G11
  21107114.166    21107114.760    36994572.785 9 -43855948.265 9
  21132740.531    21132743.404    -3163639.307 9   2840021.494 8
  20154001.570    20154004.511    20264290.902 9 -56936467.394 8
  21578553.581    21578555.452    40689582.675 9 -44452200.652 8
 86  6 12  1 30 47.0800000  0  4G 6G13G 9G11
  21109468.776    21109469.646    37006947.199 9 -43846305.874 9
  21130766.979    21130769.534    -3174006.825 9   2831942.917 8
  20152938.703    20152939.691    20258698.371 9 -56940825.219 7
  21581045.220    21581046.810    40702679.300 9 -44441995.489 8
 86  6 12  1 30 53.0800000  0  4G 6G13G 9G11
  21111827.212    21111829.413    37019342.387 9 -43836647.293 8
  21128797.711    21128802.189    -3184355.013 9   2823879.389 8
  20151878.372    20151880.330    20253128.248 9 -56945165.566 8
  21583539.947    21583541.494    40715786.810 9 -44431781.849 8
 86  6 12  1 30 59.0800000  0  4G 6G13G 9G11
  21114189.574    21114191.899    37031758.317 9 -43826972.543 8
  21126832.674    21126834.738    -3194683.870 9   2815830.932 8
  20150822.261    20150823.297    20247580.484 9 -56949488.511 8
  21586035.405    21586038.252    40728905.051 9 -44421559.848 9
 86  6 12  1 31  5.0800000  0  4G 6G13G 9G11
  21116556.772    21116557.749    37044195.064 9 -43817281.581 7
  21124869.844    21124873.109    -3204993.387 9   2807797.547 8
  20149771.308    20149772.367    20242054.983 8 -56953794.086 7
  21588533.678    21588536.261    40742034.105 9 -44411329.414 8
 86  6 12  1 31 11.0800000  0  4G 6G13G 9G11
  21118927.377    21118929.030    37056652.582 9 -43807574.416 7
  21122912.729    21122914.914    -3215283.535 9   2799779.242 8
  20148723.877    20148725.935    20236551.830 9 -56958082.261 8
  21591034.236    21591036.690    40755173.905 9 -44401090.629 9
 86  6 12  1 31 17.0800000  0  4G 6G13G 9G11
  21121302.464    21121304.302    37069130.849 9 -43797851.111 7
  21120958.034    21120961.207    -3225554.363 9   2791776.004 7
  20147680.812    20147681.681    20231071.023 8 -56962353.012 7
  21593536.656    21593539.286    40768324.423 9 -44390843.465 8
 86  6 12  1 31 23.0800000  0  4G 6G13G 9G11
  21123681.115    21123681.500    37081629.945 9 -43788111.560 8
  21119006.587    21119010.039    -3235805.768 9   2783787.910 8
  20146641.747    20146643.627    20225612.612 9 -56966606.341 7
  21596040.935    21596042.609    40781485.686 9 -44380587.942 8
 86  6 12  1 31 29.0800000  0  4G 6G13G 9G11
  21126063.363    21126065.364    37094149.786 9 -43778355.834 8
  21117060.621    21117064.171    -3246037.819 9   2775814.883 8
  20145607.537    20145609.032    20220176.632 9 -56970842.153 7
  21598547.197    21598550.995    40794657.695 9 -44370324.046 9
 86  6 12  1 31 35.0800000  0  4G 6G13G 9G11
  21128449.389    21128450.509    37106690.317 9 -43768583.996 8
  21115117.354    21115120.252    -3256250.514 9   2767856.946 7
  20144577.560    20144579.355    20214763.075 9 -56975060.519 8
  21601056.682    21601058.659    40807840.368 9 -44360051.847 9
 86  6 12  1 31 41.0800000  0  4G 6G13G 9G11
  21130839.253    21130840.837    37119251.572 9 -43758796.021 8
  21113176.913    21113179.881    -3266443.852 9   2759914.087 8
  20143550.928    20143552.881    20209371.858 9 -56979261.471 8
  21603567.659    21603569.752    40821033.679 9 -44349771.342 7
 86  6 12  1 31 47.0800000  0  4G 6G13G 9G11
  21133234.695    21133235.538    37131833.547 9 -43748991.877 8
  21111241.136    21111244.185    -3276617.880 9   2751986.270 8
  20142530.033    20142531.692    20204003.134 9 -56983444.883 7
  21606080.187    21606082.543    40834237.651 9 -44339482.535 8
 86  6 12  1 31 53.0800000  0  4G 6G13G 9G11
  21135632.006    21135633.456    37144436.290 9 -43739171.576 8
  21109309.223    21109310.959    -3286772.610 9   2744073.494 8
  20141512.192    20141515.303    20198656.910 8 -56987610.778 7
  21608595.524    21608597.592    40847452.225 9 -44329185.478 8
 86  6 12  1 31 59.0800000  0  4G 6G13G 9G11
  21138034.570    21138035.035    37157059.685 9 -43729335.163 8
  21107380.498    21107382.522    -3296908.077 9   2736175.736 8
  20140500.307    20140501.246    20193333.149 8 -56991759.159 7
  21611112.217    21611114.101    40860677.434 9 -44318880.102 8
 86  6 12  1 32  5.0800000  0  4G 6G13G 9G11
  21140440.167    21140442.161    37169703.835 9 -43719482.580 8
  21105455.473    21105458.578    -3307024.134 9   2728293.102 8
  20139490.679    20139493.042    20188031.905 9 -56995890.002 7
  21613630.999    21613633.438    40873913.233 9 -44308566.507 7
 86  6 12  1 32 11.0800000  0  4G 6G13G 9G11
  21142850.499    21142852.816    37182368.683 9 -43709613.881 9
  21103533.595    21103535.532    -3317120.792 9   2720425.569 7
  20138486.993    20138488.083    20182753.086 9 -57000003.364 7
  21616151.144    21616153.042    40887159.574 9 -44298244.679 9
 86  6 12  1 32 17.0800000  0  4G 6G13G 9G11
  21145264.569    21145266.026    37195054.238 9 -43699729.045 8
  21101616.019    21101618.202    -3327198.081 9   2712573.159 8
  20137485.864    20137486.531    20177496.879 9 -57004099.119 7
  21618674.486    21618676.026    40900416.430 9 -44287914.668 8
 86  6 12  1 32 23.0800000  0  4G 6G13G 9G11
  21147682.935    21147683.224    37207760.443 9 -43689828.109 8
  21099702.270    21099704.865    -3337256.025 9   2704735.808 9
  20136490.691    20136490.761    20172263.174 9 -57008177.325 8
  21621198.976    21621200.028    40913683.782 9 -44277576.481 8
 86  6 12  1 32 29.0800000  0  4G 6G13G 9G11
  21150105.192    21150105.614    37220487.279 9 -43679911.090 8
  21097792.773    21097793.995    -3347294.573 9   2696913.556 8
  20135499.848    20135500.473    20167052.084 9 -57012237.918 8
  21623725.972    21623728.046    40926961.595 9 -44267230.128 8
 86  6 12  1 32 35.0800000  0  4G 6G13G 9G11
  21152529.745    21152532.090    37233234.788 9 -43669977.974 8
  21095885.586    21095888.270    -3357313.762 9   2689106.397 8
  20134511.615    20134511.684    20161863.567 8 -57016280.926 8
  21626254.525    21626255.932    40940249.871 9 -44256875.630 8
 86  6 12  1 32 41.0800000  0  4G 6G13G 9G11
  21154959.927    21154960.675    37246002.987 9 -43660028.734 8
  21093982.569    21093985.298    -3367313.580 9   2681314.334 7
  20133528.056    20133530.538    20156697.604 9 -57020306.358 7
  21628785.015    21628786.962    40953548.597 9 -44246513.000 8
 86  6 12  1 32 47.0800000  0  4G 6G13G 9G11
  21157393.779    21157394.141    37258791.850 9 -43650063.405 8
  21092082.890    21092086.115    -3377294.029 9   2673537.369 8
  20132548.872    20132549.728    20151554.286 9 -57024314.137 8
  21631316.655    21631318.815    40966857.759 9 -44236142.221 8
 86  6 12  1 32 53.0800000  0  4G 6G13G 9G11
  21159830.892    21159831.419    37271601.291 9 -43640082.025 8
  21090188.036    21090189.923    -3387255.147 9   2665775.468 8
  20131575.448    20131575.494    20146433.574 9 -57028304.302 7
  21633852.135    21633853.676    40980177.351 9 -44225763.327 8
 86  6 12  1 32 59.0800000  0  4G 6G13G 9G11
  21162272.379    21162273.464    37284431.365 9 -43630084.566 8
  21088295.515    21088298.924    -3397196.900 9   2658028.650 8
  20130604.502    20130606.099    20141335.553 9 -57032276.785 8
  21636388.756    21636389.012    40993507.329 9 -44215376.335 8
 86  6 12  1 33  5.0800000  0  4G 6G13G 9G11
  21164718.162    21164718.517    37297282.024 9 -43620071.069 7
  21086407.997    21086409.843    -3407119.191 9   2650297.005 8
  20129639.786    20129640.950    20136260.082 9 -57036231.696 8
  21638927.316    21638929.816    41006847.626 9 -44204981.294 8
 86  6 12  1 33 11.0800000  0  4G 6G13G 9G11
  21167166.954    21167168.263    37310153.368 9 -43610041.457 8
  21084522.970    21084525.723    -3417022.044 9   2642580.500 8
  20128678.249    20128679.830    20131207.320 9 -57040168.901 9
  21641466.778    21641470.274    41020198.321 9 -44194578.176 8
 86  6 12  1 33 17.0800000  0  4G 6G13G 9G11
  21169620.375    21169621.899    37323045.288 9 -43599995.802 7
  21082642.607    21082644.046    -3426905.658 9   2634878.988 8
  20127720.431    20127721.582    20126177.244 9 -57044088.451 7
  21644010.089    21644011.784    41033559.355 9 -44184166.977 8
 86  6 12  1 33 23.0800000  0  4G 6G13G 9G11
  21172077.578    21172078.675    37335957.850 9 -43589934.077 8
  21080766.101    21080767.237    -3436769.896 9   2627192.577 7
  20126768.240    20126769.655    20121169.968 9 -57047990.219 8
  21646553.920    21646556.567    41046930.680 9 -44173747.765 9
 86  6 12  1 33 29.0800000  0  4G 6G13G 9G11
  21174539.099    21174539.586    37348890.973 9 -43579856.341 9
  21078892.207    21078895.035    -3446614.792 9   2619521.232 9
  20125818.893    20125819.266    20116185.340 9 -57051874.341 7
  21649100.098    21649102.180    41060312.369 9 -44163320.456 8
 86  6 12  1 33 35.0800000  0  4G 6G13G 9G11
  21177003.227    21177004.929    37361844.716 9 -43569762.500 7
  21077022.670    21077023.918    -3456440.315 9   2611864.981 8
  20124875.213    20124875.937    20111223.562 9 -57055740.676 8
  21651648.792    21651650.569    41073704.344 9 -44152885.174 8
 86  6 12  1 33 41.0800000  0  4G 6G13G 9G11
  21179472.762    21179473.379    37374818.979 9 -43559652.692 8
  21075156.037    21075158.145    -3466246.479 9   2604223.828 7
  20123935.502    20123936.863    20106284.486 9 -57059589.304 7
  21654199.839    21654201.305    41087106.518 9 -44142441.936 8
 86  6 12  1 33 47.0800000  0  4G 6G13G 9G11
  21181946.222    21181945.798    37387813.788 9 -43549526.867 8
  21073293.943    21073295.955    -3476033.132 9   2596597.863 7
  20122999.659    20123000.360    20101368.114 9 -57063420.248 7
  21656751.798    21656753.485    41100518.933 9 -44131990.706 9
 86  6 12  1 33 53.0800000  0  4G 6G13G 9G11
  21184422.456    21184422.690    37400829.178 9 -43539385.017 8
  21071435.399    21071438.309    -3485800.437 9   2588986.971 8
  20122068.630    20122069.187    20096474.595 8 -57067233.377 8
  21659305.418    21659308.862    41113941.574 9 -44121531.506 8
 86  6 12  1 33 59.0800000  0  4G 6G13G 9G11
  21186903.010    21186904.051    37413865.152 9 -43529227.121 9
  21069580.640    21069583.461    -3495548.314 9   2581391.228 8
  20121141.403    20121143.485    20091603.858 9 -57071028.761 8
  21661861.902    21661863.424    41127374.451 9 -44111064.335 8
 86  6 12  1 34  5.0800000  0  4G 6G13G 9G11
  21189387.308    21189388.022    37426921.663 9 -43519053.218 7
  21067728.735    21067731.828    -3505276.749 9   2573810.641 8
  20120219.032    20120220.575    20086755.915 9 -57074806.372 7
  21664421.156    21664423.772    41140817.523 9 -44100589.218 8
 86  6 12  1 34 11.0800000  0  4G 6G13G 9G11
  21191875.421    21191876.008    37439998.671 9 -43508863.350 8
  21065881.410    21065883.015    -3514985.805 9   2566245.144 8
  20119301.282    20119302.590    20081930.904 9 -57078566.134 7
  21666980.869    21666982.305    41154270.767 9 -44090106.167 8
 86  6 12  1 34 17.0800000  0  4G 6G13G 9G11
  21194368.249    21194369.324    37453096.225 9 -43498657.480 7
  21064037.688    21064039.369    -3524675.439 9   2558694.774 7
  20118388.098    20118388.369    20077128.663 8 -57082308.129 8
  21669542.157    21669545.089    41167734.148 9 -44079615.229 7
 86  6 12  1 34 23.0800000  0  4G 6G13G 9G11
  21196864.462    21196865.518    37466214.330 9 -43488435.597 8
  21062197.772    21062200.011    -3534345.702 9   2551159.520 9
  20117478.613    20117478.070    20072349.356 9 -57086032.275 7
  21672106.658    21672108.184    41181207.622 9 -44069116.417 7
 86  6 12  1 34 29.0800000  0  4G 6G13G 9G11
  21199364.504    21199365.754    37479352.880 9 -43478197.772 8
  21060360.472    21060362.755    -3543996.635 9   2543639.313 8
  20116572.174    20116573.362    20067592.928 8 -57089738.575 7
  21674672.431    21674674.856    41194691.219 9 -44058609.716 1
 86  6 12  1 34 35.0800000  0  4G 6G13G 9G11
  21201868.092    21201869.881    37492511.927 9 -43467943.969 8
  21058527.863    21058531.038    -3553628.187 9   2536134.201 8
  20115671.648    20115672.454    20062859.383 9 -57093427.063 8
  21677240.022    21677241.664    41208184.876 9 -44048095.187 9
 86  6 12  1 34 41.0800000  0  4G 6G13G 9G11
  21204377.265    21204378.187    37505691.483 9 -43457674.182 8
  21056699.055    21056701.579    -3563240.379 8   2528644.199 8
  20114774.638    20114776.351    20058148.739 9 -57097097.695 8
  21679809.834    21679812.535    41221688.596 9 -44037572.802 8
 86  6 12  1 34 47.0800000  0  4G 6G13G 9G11
  21206888.814    21206890.141    37518891.486 9 -43447388.475 8
  21054873.163    21054875.629    -3572833.153 9   2521169.296 8
  20113883.481    20113884.006    20053461.084 9 -57100750.407 8
  21682381.492    21682383.987    41235202.336 9 -44027042.630 8
 86  6 12  1 34 53.0800000  0  4G 6G13G 9G11
  21209404.740    21209405.315    37532111.941 9 -43437086.828 9
  21053052.068    21053055.227    -3582406.484 9   2513709.575 7
  20112995.578    20112996.385    20048796.285 9 -57104385.318 8
  21684954.719    21684957.769    41248726.084 9 -44016504.637 8
 86  6 12  1 34 59.0800000  0  4G 6G13G 9G11
  21211923.933    21211924.395    37545352.866 9 -43426769.232 8
  21051233.620    21051236.120    -3591960.352 9   2506265.000 9
  20112112.652    20112113.260    20044154.529 9 -57108002.293 8
  21687530.364    21687532.699    41262259.856 9 -44005958.841 8
 86  6 12  1 35  5.0800000  0  4G 6G13G 9G11
  21214447.670    21214449.502    37558614.275 9 -43416435.676 7
  21049419.528    21049421.829    -3601494.854 9   2498835.531 8
  20111232.675    20111234.470    20039535.770 9 -57111601.309 8
  21690107.513    21690109.912    41275803.566 9 -43995405.305 8
 86  6 12  1 35 11.0800000  0  4G 6G13G 9G11
  21216975.071    21216976.931    37571896.079 9 -43406086.224 8
  21047608.424    21047610.483    -3611009.997 9   2491421.140 8
  20110358.841    20110360.040    20034939.938 9 -57115182.480 7
  21692686.714    21692689.266    41289357.230 9 -43984844.025 8
 86  6 12  1 35 17.0800000  0  4G 6G13G 9G11
  21219506.453    21219508.237    37585198.345 9 -43395720.823 8
  21045801.381    21045803.953    -3620505.745 9   2484021.841 9
  20109488.606    20109488.702    20030367.081 9 -57118745.746 8
  21695267.356    21695270.980    41302920.873 9 -43974274.948 8
 86  6 12  1 35 23.0800000  0  4G 6G13G 9G11
  21222041.723    21222043.173    37598521.051 9 -43385339.504 8
  21043997.832    21044001.426    -3629982.035 9   2476637.721 8
  20108622.454    20108623.562    20025817.272 9 -57122291.063 7
  21697851.646    21697852.991    41316494.469 9 -43963698.129 9
 86  6 12  1 35 29.0800000  0  4G 6G13G 9G11
  21224580.317    21224583.020    37611864.128 9 -43374942.301 8
  21042198.802    21042200.607    -3639438.914 9   2469268.740 8
  20107761.012    20107763.384    20021290.490 9 -57125818.417 8
  21700435.256    21700438.090    41330077.931 9 -43953113.613 9
 86  6 12  1 35 35.0800000  0  4G 6G13G 9G11
  21227123.362    21227125.923    37625227.542 9 -43364529.268 7
  21040405.048    21040405.744    -3648876.442 1   2461914.827 1
  20106904.146    20106905.000    20016786.797 9 -57129327.798 6
  21703022.037    21703024.087    41343671.231 9 -43942521.440 9
 86  6 12  1 35 41.0800000  0  4G 6G13G 9G11
  21229670.008    21229673.320    37638611.432 9 -43354100.267 7
  21038615.695    21038613.733    -3658294.580 1   2454576.024 1
  20106051.007    20106051.695    20012306.181 9 -57132819.180 7
  21705610.411    21705613.713    41357274.343 9 -43931921.617 8
 86  6 12  1 35 47.0800000  0  4G 6G13G 9G11
  21232221.378    21232223.049    37652015.709 9 -43343655.375 8
                  21036825.536                     2447236.114 1
  20105203.128    20105205.145    20007848.712 9 -57136292.546 7
  21708201.572    21708203.988    41370887.306 9 -43921314.114 9
 86  6 12  1 35 53.0800000  0  4G 6G13G 9G11
  21234772.877    21234778.481    37665440.355 1 -43333194.631 1
                  21407762.066                    -6669498.912 1
  20104359.674    20104360.929    20003414.351 8 -57139747.882 8
  21710793.691    21710796.185    41384510.137 9 -43910698.921 8
 86  6 12  1 35 59.0800000  0  4G 6G13G 9G11
  21237331.408    21237337.540    37678885.351 1 -43322718.010 1
                  20657995.081                    -6727398.967 1
  20103518.860    20103521.297    19999002.982 1 -57143185.315 2
  21713388.439    21713390.078    41398142.791 1 -43900076.085 9
 86  6 12  1 36  5.0800000  0  4G 6G13G 9G11
  21239896.142    21239898.157    37692350.713 9 -43312225.521 8
                  20656189.564                    -6757135.706 1
  20102684.801    20102686.730    19994614.804 8 -57146604.669 7
  21715982.830    21715986.197    41411785.196 6 -43889445.637 8
 86  6 12  1 36 11.0800000  0  4G 6G13G 9G11
  21242462.102    21242465.819    37705836.434 9 -43301717.184 8
                  20653970.022                    -6788417.780 1
  20101853.829    20101855.842    19990249.810 6 -57150005.964 6
  21718582.322    21718583.920    41425437.284 7 -43878807.644 8
 86  6 12  1 36 17.0800000  0  4G 6G13G 9G11
  21245032.050    21245039.409    37719342.472 1 -43291192.998 1
                  20652282.150                    -6839040.817 1
  20101027.320    20101030.955    19985907.958 8 -57153389.229 7
  21721181.717    21721182.660    41439099.067 8 -43868162.108 7
 86  6 12  1 36 23.0800000  0  4G 6G13G 9G11
  21247604.782    21247610.631    37732868.843 2 -43280652.975 1
                  20651620.776                    -6868706.387 1
  20100207.205    20100207.249    19981589.258 5 -57156754.438 4
  21723783.291    21723785.242    41452770.545 4 -43857509.019 8
 86  6 12  1 36 29.0800000  0  4G 6G13G 9G11
  21250184.749    21250186.904    37746415.562 6 -43270097.109 6
                  20648226.261                    -6898230.810 1
  20099388.379    20099391.007    19977293.823 7 -57160101.537 7
  21726385.942    21726389.218    41466451.735 3 -43846848.353 8
 86  6 12  1 36 35.0800000  0  3G13G 9G11
  20646696.287    10306281.317    -6947610.778 1 -57163430.093 7
  20098576.167    20098576.100    19973021.532 7 -57163430.593 7
  21728991.948    21728993.596    41480142.611 8 -43836180.142 8
 86  6 12  1 36 41.0800000  0  4G 6G13G 9G11
  21255351.894    21255354.036    37773569.877 9 -43248937.918 7
  20645972.933                    -6976641.515 1
  20097765.844    20097767.236    19968772.528 5 -57166741.510 4
  21731598.977    21731600.320    41493843.131 8 -43825504.407 8
 86  6 12  1 36 47.0800000  0  4G 6G13G 9G11
  21257937.403    21257942.554    37787177.460 1 -43238334.599 1
  20644332.896                    -7006273.389 1
  20096963.616    20096962.663    19964546.669 7 -57170034.384 7
  21734207.670    21734210.883    41507553.246 8 -43814821.207 8
 86  6 12  1 36 53.0800000  0  4G 6G13G 9G11
  21260535.228    21260537.306    37800805.332 4 -43227715.490 1
  20641081.955                    -7036104.931 1
  20096164.158    20096165.052    19960344.040 8 -57173309.156 6
  21736818.518    21736821.220    41521272.960 9 -43804130.517 8
 86  6 12  1 36 59.0800000  0  4G 6G13G 9G11
  21263131.705    21263133.549    37814453.517 9 -43217080.536 8
  20640371.140                    -7085188.015 1
  20095367.134    20095366.582    19956164.759 6 -57176565.752 5
  21739431.107    21739434.104    41535002.273 1 -43793432.351 8
 86  6 12  1 37  5.0800000  0  4G 6G13G 9G11
  21265732.703    21265734.558    37828121.955 9 -43206429.817 9
  20638710.981                    -7114510.520 1
  20094577.930    20094579.644    19952008.740 7 -57179804.193 7
  21742045.777    21742047.526    41548741.149 7 -43782726.741 8
 86  6 12  1 37 11.0800000  0  4G 6G13G 9G11
  21268337.706    21268337.891    37841810.614 1 -43195763.338 1
  20635317.646                    -7144916.052 1
  20093791.420    20093792.184    19947876.032 8 -57183024.500 7
  21744661.513    21744664.150    41562489.572 9 -43772013.693 8
 86  6 12  1 37 17.0800000  0  4G 6G13G 9G11
  21270947.094    21270950.175    37855519.516 1 -43185081.085 1
  20662223.838                    -7174333.984 1
  20093010.037    20093008.075    19943766.578 8 -57186226.673 6
  21747280.071    21747281.836    41576247.587 9 -43761293.165 7
 86  6 12  1 37 23.0800000  0  3G 6G 9G11
  21273558.962    21273561.173    37869248.652 6 -43174383.065 6
  20092231.770    20092233.228    19939680.525 5 -57189410.607 5
  21749899.839    21749902.200    41590015.135 4 -43750565.198 9
 86  6 12  1 37 29.0800000  0  3G 6G 9G11
  21276174.861    21276177.513    37882998.042 9 -43163669.267 7
  20091458.970    20091458.636    19935617.793 8 -57192576.371 7
  21752522.164    21752524.124    41603792.196 9 -43739829.831 9
 86  6 12  1 37 35.0800000  0  3G 6G 9G11
  21278795.697    21278797.010    37896767.594 9 -43152939.747 9
  20090689.822    20090690.720    19931578.420 9 -57195723.931 8
  21755145.676    21755148.449    41617578.728 9 -43729087.090 9
 86  6 12  1 37 41.0800000  0  3G 6G 9G11
  21281419.319    21281421.005    37910557.378 3 -43142194.475 5
  20089924.343    20089924.441    19927562.486 1 -57198853.241 1
  21757770.694    21757772.987    41631374.747 5 -43718336.949 8
 86  6 12  1 37 47.0800000  0  3G 6G 9G11
  21284047.784    21284049.459    37924367.406 8 -43131433.420 7
  20089164.836    20089166.015    19923569.908 7 -57201964.335 6
  21760397.852    21760399.948    41645180.189 7 -43707579.462 8
 86  6 12  1 37 53.0800000  0  3G 6G 9G11
  21286679.273    21286681.400    37938197.618 9 -43120656.639 8
  20088409.901    20088411.193    19919600.703 9 -57205057.224 7
  21763026.475    21763029.108    41658995.009 9 -43696814.675 9
 86  6 12  1 37 59.0800000  0  3G 6G 9G11
  21289315.404    21289319.257    37952047.908 1 -43109864.217 1
  20087658.765    20087660.997    19915654.862 5 -57208131.911 5
  21765657.449    21765659.808    41672819.187 6 -43686042.592 8
 86  6 12  1 38  5.0800000  0  3G 6G 9G11
  21291954.355    21291956.220    37965918.358 8 -43099056.081 7
  20086910.977    20086914.870    19911732.430 7 -57211188.359 7
  21768290.134    21768292.462    41686652.752 8 -43675263.177 8
 86  6 12  1 38 11.0800000  0  3G 6G 9G11
  21294597.864    21294599.731    37979809.030 9 -43088232.185 8
  20086170.250    20086172.951    19907833.530 8 -57214226.465 9
  21770923.957    21770926.709    41700495.743 9 -43664476.455 9
 86  6 12  1 38 17.0800000  0  4G 6G13G 9G11
  21297243.503    21297246.793    37993719.857 1 -43077392.596 1
                  22921457.777    -7544948.241 4
  20085433.783    20085435.737    19903958.047 5 -57217246.310 5
  21773560.744    21773561.158    41714348.109 7 -43653682.405 8
 86  6 12  1 38 23.0800000  0  4G 6G13G 9G11
  21299895.564    21299897.540    38007650.765 1 -43066537.355 1
                  23089488.516    -7553831.475 4
  20084699.923    20084700.082    19900106.090 8 -57220247.837 7
  21776198.589    21776199.870    41728209.761 9 -43642881.124 9
 86  6 12  1 38 29.0800000  0  4G 6G13G 9G11
  21302550.445    21302551.063    38021601.816 1 -43055666.413 1
                  22915063.987    -7617267.559 3
  20083971.713    20083974.102    19896277.599 7 -57223231.085 6
  21778837.203    21778839.141    41742080.689 8 -43632072.613 9
 86  6 12  1 38 35.0800000  0  4G 6G13G 9G11
  21305208.524    21305211.113    38035572.979 1 -43044779.803 1
                  23082067.841    -7626158.648 3
  20083247.432    20083249.711    19892472.555 6 -57226196.068 5
  21781479.172    21781480.837    41755960.883 9 -43621256.875 8
 86  6 12  1 38 41.0800000  0  3G 6G13G 9
  21307872.481    21307873.440    38049564.242 3 -43033877.528 3
                  23085083.756    -7635007.675 5
  20082527.907    20082530.130    19888691.133 6 -57229142.626 5
 86  6 12  1 38 47.0800000  0  4G 6G13G 9G11
  21310536.094    21310541.029    38063575.594 1 -43022959.612 1
                  20984846.036    -7643824.309 6
  20081813.908    20081812.057    19884933.156 2 -57232070.910 2
  21786767.308    21786768.399    41783748.959 9 -43599603.839 9
 86  6 12  1 38 53.0800000  0  4G 6G13G 9G11
  21313208.680    21313209.159    38077607.012 9 -43012026.032 8
                  20983180.824    -7652621.532 9
  20081101.804    20081103.305    19881198.767 8 -57234980.835 7
  21789412.854    21789415.658    41797656.798 9 -43588766.561 8
 86  6 12  1 38 59.0800000  0  4G 6G13G 9G11
  21315883.382    21315883.226    38091658.441 9 -43001076.871 8
                  20981508.478    -7661399.406 9
  20080396.170    20080397.501    19877487.978 8 -57237872.357 7
  21792062.086    21792064.051    41811573.863 9 -43577922.123 8
 86  6 12  1 39  5.0800000  0  4G 6G13G 9G11
  21318560.666    21318560.648    38105730.013 9 -42990112.021 8
                  20979872.245    -7670158.568 9
  20079693.860    20079696.151    19873800.715 8 -57240745.558 7
  21794712.235    21794713.338    41825500.092 9 -43567070.500 8
 86  6 12  1 39 11.0800000  0  4G 6G13G 9G11
  21321241.606    21321242.801    38119821.657 9 -42979131.530 8
  20978209.574    20978210.835    -7678897.599 9   9966121.829 1
  20078996.507    20078997.920    19870137.037 9 -57243600.359 6
  21797363.648    21797365.550    41839435.458 9 -43556211.781 8
 86  6 12  1 39 17.0800000  0  4G 6G13G 9G11
  21323926.733    21323927.835    38133933.319 9 -42968135.438 7
  20976549.430    20976551.310    -7687617.237 9   9959327.317 7
  20078304.510    20078305.784    19866496.959 9 -57246436.788 8
  21800017.122    21800019.155    41853379.996 9 -43545345.905 8
 86  6 12  1 39 23.0800000  0  4G 6G13G 9G11
  21326616.459    21326617.397    38148064.995 9 -42957123.736 7
  20974893.901    20974895.635    -7696317.388 9   9952547.997 8
  20077615.712    20077617.168    19862880.529 9 -57249254.790 7
  21802671.935    21802673.748    41867333.609 9 -43534472.964 8
 86  6 12  1 39 29.0800000  0  4G 6G13G 9G11
  21329309.823    21329310.717    38162216.688 9 -42946096.451 8
  20973242.465    20973244.225    -7704998.150 9   9945783.778 8
  20076932.440    20076934.314    19859287.684 9 -57252054.422 7
  21805328.889    21805330.584    41881296.296 9 -43523592.949 8
 86  6 12  1 39 35.0800000  0  4G 6G13G 9G11
  21332006.415    21332007.511    38176388.395 9 -42935053.587 8
  20971594.635    20971595.982    -7713659.504 9   9939034.665 7
  20076253.370    20076256.003    19855718.577 9 -57254835.526 8
  21807987.508    21807990.059    41895268.098 9 -43512705.837 8
 86  6 12  1 39 41.0800000  0  4G 6G13G 9G11
  21334707.651    21334708.043    38190580.099 9 -42923995.121 8
  20969950.378    20969950.424    -7722301.521 9   9932300.636 8
  20075579.334    20075579.484    19852173.095 8 -57257598.243 7
  21810648.440    21810650.226    41909249.031 9 -43501811.620 7
 86  6 12  1 39 47.0800000  0  4G 6G13G 9G11
  21337411.174    21337411.557    38204791.842 9 -42912921.037 7
  20968309.530    20968310.521    -7730924.113 9   9925581.727 8
  20074908.859    20074909.261    19848651.271 9 -57260342.524 7
  21813310.653    21813313.110    41923238.961 9 -43490910.368 8
 86  6 12  1 39 53.0800000  0  4G 6G13G 9G11
  21340119.304    21340120.908    38219023.542 9 -42901831.412 7
  20966671.969    20966673.902    -7739527.362 9   9918877.911 7
  20074242.522    20074243.462    19845153.111 9 -57263068.362 7
  21815973.514    21815975.965    41937237.835 9 -43480002.175 7
 86  6 12  1 39 59.0800000  0  4G 6G13G 9G11
  21342831.643    21342832.201    38233275.199 9 -42890726.233 8
  20965038.424    20965040.407    -7748111.164 9   9912189.236 7
  20073581.441    20073583.715    19841678.647 8 -57265775.746 8
  21818639.986    21818641.793    41951245.651 9 -43469086.987 8
 86  6 12  1 40  5.0800000  0  4G 6G13G 9G11
  21345546.985    21345547.784    38247546.760 9 -42879605.537 9
  20963408.697    20963411.540    -7756675.580 9   9905515.667 8
  20072925.334    20072926.369    19838227.871 9 -57268464.667 7
  21821306.916    21821308.472    41965262.508 9 -43458164.755 8
 86  6 12  1 40 11.0800000  0  4G 6G13G 9G11
  21348266.447    21348269.827    38261838.286 9 -42868469.291 7
  20961782.134    20961785.565    -7765220.521 9   9898857.274 8
  20072272.911    20072274.357    19834800.851 9 -57271135.056 7
  21823975.517    21823979.394    41979288.338 9 -43447235.550 8
 86  6 12  1 40 17.0800000  0  4G 6G13G 9G11
  21350990.002    21350991.998    38276149.730 9 -42857317.527 9
  20960160.804    20960161.555    -7773746.098 9   9892213.966 9
  20071624.910    20071626.495    19831397.509 8 -57273787.018 7
  21826646.586    21826649.795    41993323.118 9 -43436299.370 8
 86  6 12  1 40 23.0800000  0  4G 6G13G 9G11
  21353716.909    21353718.854    38290481.102 9 -42846150.232 9
  20958540.583    20958543.379    -7782252.233 9   9885585.812 8
  20070981.922    20070982.857    19828017.953 9 -57276420.434 7
  21829319.531    21829321.902    42007366.840 9 -43425356.204 9
 86  6 12  1 40 29.0800000  0  4G 6G13G 9G11
  21356447.790    21356450.484    38304832.420 9 -42834967.391 8
  20956926.739    20956928.748    -7790739.022 9   9878972.729 7
  20070343.646    20070344.078    19824662.242 8 -57279035.290 7
  21831993.427    21831996.027    42021419.459 9 -43414406.114 8
 86  6 12  1 40 35.0800000  0  4G 6G13G 9G11
  21359182.138    21359184.166    38319203.613 9 -42823769.070 9
  20955315.540    20955317.795    -7799206.473 9   9872374.720 7
  20069707.897    20069710.818    19821330.277 8 -57281631.614 7
  21834669.303    21834671.548    42035480.954 9 -43403449.107 8
 86  6 12  1 40 41.0800000  0  4G 6G13G 9G11
  21361920.943    21361924.024    38333594.706 9 -42812555.232 8
  20953707.588    20953709.261    -7807654.505 9   9865791.843 8
  20069079.395    20069080.671    19818022.067 8 -57284209.445 8
  21837347.252    21837349.076    42049551.330 9 -43392485.190 8
 86  6 12  1 40 47.0800000  0  4G 6G13G 9G11
  21364663.186    21364665.995    38348005.693 9 -42801325.904 8
  20952104.124    20952106.632    -7816083.203 9   9859224.023 8
  20068454.816    20068456.934    19814737.775 9 -57286768.639 8
  21840026.442    21840028.461    42063630.486 9 -43381514.422 8
 86  6 12  1 40 53.0800000  0  4G 6G13G 9G11
  21367409.329    21367411.971    38362436.541 9 -42790081.081 7
  20950503.850    20950506.239    -7824492.552 9   9852671.298 7
  20067833.428    20067836.317    19811477.207 9 -57289309.339 6
  21842706.101    21842708.987    42077718.466 9 -43370536.786 1
 86  6 12  1 40 59.0800000  0  4G 6G13G 9G11
  21370158.577    21370162.591    38376887.225 9 -42778820.821 9
  20948907.042    20948908.415    -7832882.478 9   9846133.681 7
  20067219.049    20067221.623    19808240.470 9 -57291831.471 7
  21845388.966    21845392.179    42091815.285 9 -43359552.245 8
 86  6 12  1 41  5.0800000  0  4G 6G13G 9G11
  21372913.048    21372915.365    38391357.786 9 -42767545.068 7
  20947314.326    20947316.890    -7841252.995 9   9839611.210 8
  20066607.204    20066609.256    19805027.585 8 -57294335.014 7
  21848074.091    21848076.257    42105920.909 9 -43348560.860 8
 86  6 12  1 41 11.0800000  0  4G 6G13G 9G11
  21375670.773    21375672.759    38405848.181 8 -42756253.856 8
  20945724.878    20945726.756    -7849604.102 9   9833103.855 7
  20066001.463    20066002.335    19801838.632 8 -57296819.918 8
  21850759.126    21850761.073    42120035.299 9 -43337562.628 7
 86  6 12  1 41 17.0800000  0  4G 6G13G 9G11
  21378431.812    21378434.456    38420358.363 9 -42744947.226 9
  20944138.748    20944142.213    -7857935.845 9   9826611.592 9
  20065398.546    20065399.412    19798673.575 7 -57299286.200 7
  21853446.770    21853449.516    42134158.390 9 -43326557.627 8
 86  6 12  1 41 23.0800000  0  4G 6G13G 9G11
  21381196.465    21381198.590    38434888.418 9 -42733625.122 9
  20942557.820    20942560.906    -7866248.312 9   9820134.336 8
  20064801.374    20064802.388    19795532.286 8 -57301733.945 8
  21856136.257    21856138.350    42148290.185 9 -43315545.844 8
 86  6 12  1 41 29.0800000  0  4G 6G13G 9G11
  21383965.580    21383968.338    38449438.271 9 -42722287.579 9
  20940979.311    20940981.856    -7874541.352 9   9813672.243 8
  20064208.635    20064207.486    19792414.961 9 -57304163.020 8
  21858827.369    21858829.494    42162430.707 9 -43304527.261 8
 86  6 12  1 41 35.0800000  0  4G 6G13G 9G11
  21386737.647    21386740.467    38464007.875 9 -42710934.652 7
  20939405.296    20939407.295    -7882814.993 9   9807225.255 8
  20063619.211    20063621.059    19789321.607 8 -57306573.451 8
  21861519.049    21861521.268    42176579.886 9 -43293501.928 9
 86  6 12  1 41 41.0800000  0  4G 6G13G 9G11
  21389514.662    21389516.454    38478597.225 9 -42699566.329 8
  20937834.747    20937836.463    -7891069.260 9   9800793.365 8
  20063035.201    20063035.479    19786252.100 8 -57308965.258 7
  21864213.756    21864215.829    42190737.751 9 -43282469.834 8
 86  6 12  1 41 47.0800000  0  4G 6G13G 9G11
  21392294.796    21392296.631    38493206.379 9 -42688182.585 8
  20936267.139    20936269.951    -7899304.130 9   9794376.575 7
  20062454.049    20062456.367    19783206.656 8 -57311338.348 7
  21866909.905    21866911.189    42204904.281 9 -43271430.981 8
 86  6 12  1 41 53.0800000  0  4G 6G13G 9G11
  21395078.016    21395079.985    38507835.279 9 -42676783.436 7
  20934703.348    20934706.128    -7907519.694 9   9787974.843 8
  20061878.898    20061882.817    19780185.166 8 -57313692.763 7
  21869606.896    21869609.633    42219079.416 9 -43260385.421 8
 86  6 12  1 41 59.0800000  0  4G 6G13G 9G11
  21397866.534    21397867.158    38522483.967 9 -42665368.883 8
  20933144.186    20933146.533    -7915715.855 9   9781588.229 8
  20061308.731    20061311.489    19777187.506 9 -57316028.593 7
  21872306.411    21872308.994    42233263.170 9 -43249333.155 8
 86  6 12  1 42  5.0800000  0  4G 6G13G 9G11
  21400657.777    21400658.095    38537152.351 9 -42653938.983 8
  20931587.526    20931590.719    -7923892.691 9   9775216.674 8
  20060743.700    20060746.008    19774213.907 8 -57318345.679 7
  21875006.739    21875008.795    42247455.522 9 -43238274.190 8
 86  6 12  1 42 11.0800000  0  4G 6G13G 9G11
  21403452.018    21403454.344    38551840.424 9 -42642493.736 8
  20930036.507    20930037.352    -7932050.122 9   9768860.236 8
  20060182.040    20060184.430    19771264.286 7 -57320644.108 7
  21877710.060    21877710.722    42261656.408 9 -43227208.573 7
 86  6 12  1 42 17.0800000  0  4G 6G13G 9G11
  21406250.587    21406253.088    38566548.195 9 -42631033.155 8
  20928487.218    20928490.020    -7940188.242 9   9762518.843 8
  20059625.059    20059627.106    19768338.628 8 -57322923.829 7
  21880413.879    21880415.149    42275865.816 9 -43216136.303 7
 86  6 12  1 42 23.0800000  0  4G 6G13G 9G11
  21409054.157    21409055.019    38581275.767 9 -42619557.134 8
  20926942.672    20926945.094    -7948306.986 9   9756192.548 8
  20059072.640    20059074.637    19765437.074 8 -57325184.784 7
  21883118.774    21883120.324    42290083.779 9 -43205057.379 7
 86  6 12  1 42 29.0800000  0  4G 6G13G 9G11
  21411860.304    21411861.047    38596023.033 9 -42608065.760 8
  20925401.412    20925403.739    -7956406.408 9   9749881.318 8
  20058525.061    20058526.624    19762559.538 8 -57327427.023 7
  21885826.245    21885829.509    42304310.286 9 -43193971.796 8
 86  6 12  1 42 35.0800000  0  4G 6G13G 9G11
  21414670.746    21414670.906    38610789.921 9 -42596559.105 5
  20923863.763    20923865.151    -7964486.461 9   9743585.178 8
  20057982.722    20057984.422    19759706.089 9 -57329650.494 7
  21888534.970    21888537.647    42318545.270 9 -43182879.609 8
 86  6 12  1 42 41.0800000  0  4G 6G13G 9G11
  21417484.793    21417485.956    38625576.501 9 -42585037.099 8
  20922329.613    20922330.310    -7972547.126 9   9737304.134 8
  20057444.035    20057445.575    19756876.727 9 -57331855.200 8
  21891245.640    21891247.694    42332788.754 9 -43171780.783 8
 86  6 12  1 42 47.0800000  0  4G 6G13G 9G11
  21420301.045    21420302.393    38640382.727 9 -42573499.789 8
  20920799.466    20920801.764    -7980588.419 9   9731038.200 8
  20056910.804    20056911.156    19754071.457 9 -57334041.119 6
  21893957.782    21893960.055    42347040.625 1 -43160675.440 8
 86  6 12  1 42 53.0800000  0  4G 6G13G 9G11
  21423122.758    21423125.711    38655208.581 9 -42561947.191 7
  20919273.157    20919274.645    -7988610.373 9   9724787.336 7
  20056381.120    20056380.535    19751290.118 8 -57336208.407 7
  21896671.491    21896672.921    42361300.876 9 -43149563.551 9
 86  6 12  1 42 59.0800000  0  4G 6G13G 9G11
  21425948.397    21425950.625    38670054.102 9 -42550379.260 9
  20917750.001    20917752.143    -7996612.904 9   9718551.602 8
  20055857.686    20055857.447    19748533.052 9 -57338356.759 8
  21899386.128    21899389.163    42375569.592 9 -43138445.082 8
 86  6 12  1 43  5.0800000  0  4G 6G13G 9G11
  21428776.868    21428778.449    38684919.203 9 -42538796.065 9
  20916230.434    20916232.817    -8004596.074 9   9712330.936 8
  20055335.544    20055337.508    19745800.050 9 -57340486.373 6
  21902103.341    21902105.614    42389846.663 8 -43127320.098 6
 86  6 12  1 43 11.0800000  0  4G 6G13G 9G11
  21431608.831    21431610.295    38699803.890 9 -42527197.616 8
  20914715.442    20914717.170    -8012559.975 9   9706125.310 8
  20054820.150    20054822.245    19743091.111 8 -57342597.240 7
  21904821.235    21904824.759    42404132.108 9 -43116188.585 9
 86  6 12  1 43 17.0800000  0  4G 6G13G 9G11
  21434444.914    21434445.636    38714708.179 9 -42515583.893 8
  20913203.361    20913206.736    -8020504.456 9   9699934.810 8
  20054308.888    20054310.710    19740406.378 8 -57344689.238 7
  21907541.852    21907544.942    42418425.964 9 -43105050.527 8
 86  6 12  1 43 23.0800000  0  4G 6G13G 9G11
  21437283.917    21437286.975    38729632.047 9 -42503954.917 9
  20911696.214    20911697.001    -8028429.521 9   9693759.449 8
  20053803.460    20053804.746    19737745.721 8 -57346762.471 7
  21910263.530    21910265.417    42432728.177 9 -43093905.946 8
 86  6 12  1 43 29.0800000  0  4G 6G13G 9G11
  21440129.068    21440130.665    38744575.469 9 -42492310.706 8
  20910191.121    20910194.189    -8036335.241 9   9687599.137 8
  20053301.159    20053302.944    19735109.279 8 -57348816.856 6
  21912986.237    21912988.762    42447038.669 9 -43082754.923 8
 86  6 12  1 43 35.0800000  0  4G 6G13G 9G11
  21442976.885    21442977.005    38759538.450 9 -42480651.236 8
  20908689.771    20908692.780    -8044221.693 9   9681453.846 8
  20052805.227    20052806.187    19732497.008 8 -57350852.369 7
  21915711.760    21915713.175    42461357.378 9 -43071597.486 7
 86  6 12  1 43 41.0800000  0  4G 6G13G 9G11
  21445827.392    21445828.445    38774520.993 9 -42468976.547 9
  20907192.867    20907196.474    -8052088.792 9   9675323.648 7
  20052311.540    20052312.367    19729908.947 8 -57352869.056 7
  21918437.839    21918438.601    42475684.379 9 -43060433.596 8
 86  6 12  1 43 47.0800000  0  4G 6G13G 9G11
  21448682.140    21448684.592    38789523.122 9 -42457286.588 8
  20905700.340    20905702.611    -8059936.540 9   9669208.521 9
  20051824.366    20051825.846    19727345.130 8 -57354866.836 8
                  21921166.041    42490019.659 9
 86  6 12  1 43 53.0800000  0  4G 6G13G 9G11
  21451539.856    21451541.825    38804544.746 9 -42445581.439 9
  20904210.393    20904213.265    -8067764.908 9   9663108.485 7
  20051341.488    20051343.091    19724805.435 8 -57356845.822 7
  21923894.421    21923897.992    42504363.211 9 -43003315.438 1
 86  6 12  1 43 59.0800000  0  4G 6G13G 9G11
  21454402.641    21454404.447    38819585.856 9 -42433861.092 8
  20902724.109    20902727.078    -8075573.968 9   9657023.515 8
  20050863.069    20050861.557    19722289.947 8 -57358805.942 7
  21926626.449    21926628.478    42518714.933 9 -42992132.291 8
 86  6 12  1 44  5.0800000  0  4G 6G13G 9G11
  21457269.260    21457270.588    38834646.457 9 -42422125.579 9
  20901241.591    20901244.269    -8083363.739 9   9650953.567 8
  20050388.878    20050390.252    19719798.768 8 -57360747.119 7
  21929358.102    21929361.162    42533074.865 9 -42980942.745 8
 86  6 12  1 44 11.0800000  0  4G 6G13G 9G11
  21460138.652    21460140.654    38849726.569 9 -42410374.847 8
  20899762.315    20899766.119    -8091134.136 9   9644898.710 8
  20049917.747    20049921.636    19717331.816 8 -57362669.416 6
  21932093.559    21932095.476    42547442.967 9 -42969746.821 9
 86  6 12  1 44 17.0800000  0  4G 6G13G 9G11
  21463011.367    21463013.864    38864826.160 9 -42398608.930 8
  20898287.896    20898291.306    -8098885.190 9   9638858.933 8
  20049453.881    20049455.662    19714889.119 8 -57364572.809 6
  21934828.275    21934831.039    42561819.240 9 -42958544.532 9
 86  6 12  1 44 23.0800000  0  4G 6G13G 9G11
  21465887.947    21465890.969    38879945.207 9 -42386827.872 8
  20896816.898    20896820.257    -8106616.893 9   9632834.229 9
  20048993.679    20048995.211    19712470.615 4 -57366457.374 7
  21937566.153    21937568.027    42576203.616 9 -42947335.869 1
 86  6 12  1 44 29.0800000  0  4G 6G13G 9G11
  21468770.648    21468771.797    38895083.701 9 -42375031.647 9
  20895349.618    20895351.844    -8114329.227 9   9626824.620 8
  20048538.876    20048540.391    19710076.415 8 -57368322.989 6
  21940304.935    21940307.024    42590596.126 9 -42936121.001 7
 86  6 12  1 44 35.0800000  0  4G 6G13G 9G11
  21471653.956    21471654.810    38910241.638 9 -42363220.270 9
  20893885.035    20893888.191    -8122022.262 9   9620830.056 9
  20048087.074    20048088.735    19707706.543 8 -57370169.634 7
  21943044.664    21943048.104    42604996.677 9 -42924899.785 9
 86  6 12  1 44 41.0800000  0  4G 6G13G 9G11
  21474542.669    21474545.101    38925419.022 9 -42351393.757 8
  20892425.203    20892427.613    -8129695.968 9   9614850.553 7
  20047640.933    20047642.039    19705361.029 7 -57371997.315 7
  21945786.880    21945788.795    42619405.341 9 -42913672.258 9
 86  6 12  1 44 47.0800000  0  4G 6G13G 9G11
  21477434.038    21477436.505    38940615.749 9 -42339552.155 8
  20890969.145    20890971.389    -8137350.384 9   9608886.071 7
  20047199.775    20047201.020    19703039.771 8 -57373806.082 8
  21948530.771    21948532.423    42633822.034 9 -42902438.471 8
 86  6 12  1 44 53.0800000  0  4G 6G13G 9G11
  21480329.901    21480332.069    38955831.910 9 -42327695.412 8
  20889515.625    20889518.296    -8144985.468 9   9602936.653 8
  20046762.969    20046763.753    19700742.917 8 -57375595.842 7
  21951275.066    21951277.842    42648246.783 9 -42891198.417 8
 86  6 12  1 44 59.0800000  0  4G 6G13G 9G11
  21483229.326    21483230.399    38971067.441 9 -42315823.585 8
  20888066.872    20888069.481    -8152601.317 9   9597002.226 7
  20046329.099    20046331.175    19698470.293 8 -57377366.724 7
  21954021.277    21954024.760    42662679.526 9 -42879952.135 8
 86  6 12  1 45  5.0800000  0  4G 6G13G 9G11
  21486131.715    21486133.610    38986322.322 9 -42303936.675 8
  20886620.311    20886623.604    -8160197.801 9   9591082.893 9
  20045901.580    20045902.968    19696222.089 8 -57379118.594 7
  21956769.721    21956771.180    42677120.259 9 -42868699.616 8
 86  6 12  1 45 11.0800000  0  4G 6G13G 9G11
  21489037.849    21489040.309    39001596.618 9 -42292034.640 8
  20885178.880    20885182.253    -8167775.029 9   9585178.565 8
  20045479.493    20045480.896    19693998.204 8 -57380851.472 7
  21959519.524    21959520.251    42691568.921 9 -42857440.913 8
 86  6 12  1 45 17.0800000  0  4G 6G13G 9G11
  21491948.778    21491950.709    39016890.226 9 -42280117.541 8
  20883740.242    20883743.601    -8175333.028 9   9579289.218 7
  20045061.262    20045060.711    19691798.749 7 -57382565.335 7
  21962270.252    21962272.516    42706025.464 9 -42846176.079 7
 86  6 12  1 45 23.0800000  0  4G 6G13G 9G11
  21494862.699    21494865.021    39032203.169 9 -42268185.380 8
  20882305.783    20882308.368    -8182871.719 9   9573414.921 8
  20044646.526    20044648.007    19689623.596 8 -57384260.240 7
  21965021.680    21965025.157    42720489.992 9 -42834905.041 9
 86  6 12  1 45 29.0800000  0  4G 6G13G 9G11
  21497780.000    21497781.909    39047535.420 9 -42256238.184 9
  20880874.859    20880877.590    -8190391.070 9   9567555.701 8
  20044236.586    20044238.782    19687472.920 7 -57385936.123 8
  21967776.741    21967779.402    42734962.451 9 -42823627.799 8
 86  6 12  1 45 35.0800000  0  4G 6G13G 9G11
  21500701.221    21500704.216    39062886.989 8 -42244275.934 8
  20879447.059    20879449.533    -8197891.143 9   9561711.477 8
  20043832.586    20043834.099    19685346.635 9 -57387592.968 6
  21970531.681    21970534.769    42749442.786 9 -42812344.420 8
 86  6 12  1 45 41.0800000  0  4G 6G13G 9G11
  21503626.243    21503628.476    39078257.855 9 -42232298.641 8
  20878024.178    20878026.310    -8205371.978 9   9555882.264 9
  20043432.425    20043435.437    19683244.673 7 -57389230.857 8
  21973289.477    21973291.813    42763930.991 9 -42801054.908 8
 86  6 12  1 45 47.0800000  0  4G 6G13G 9G11
  21506555.259    21506557.477    39093647.942 8 -42220306.375 8
  20876604.894    20876607.241    -8212833.585 9   9550068.016 8
  20043037.750    20043038.365    19681167.191 8 -57390849.683 7
  21976048.558    21976049.881    42778427.083 9 -42789759.238 6
 86  6 12  1 45 53.0800000  0  4G 6G13G 9G11
  21509486.732    21509489.117    39109057.348 9 -42208299.054 8
  20875187.769    20875191.201    -8220275.869 9   9544268.843 9
  20042646.086    20042648.345    19679114.193 8 -57392449.430 7
  21978807.791    21978809.786    42792931.001 9 -42778457.506 8
 86  6 12  1 45 59.0800000  0  4G 6G13G 9G11
  21512422.947    21512424.737    39124486.020 9 -42196276.717 7
  20873775.320    20873779.057    -8227698.889 9   9538484.673 8
  20042260.102    20042260.545    19677085.703 7 -57394030.079 7
  21981569.254    21981571.209    42807442.752 9 -42767149.658 9
 86  6 12  1 46  5.0800000  0  4G 6G13G 9G11
  21515362.083    21515365.059    39139933.977 9 -42184239.362 8
  20872367.026    20872369.543    -8235102.649 9   9532715.502 8
  20041878.672    20041880.257    19675081.619 8 -57395591.692 7
  21984332.931    21984335.641    42821962.339 9 -42755835.705 8
 86  6 12  1 46 11.0800000  0  4G 6G13G 9G11
  21518305.715    21518308.428    39155401.177 9 -42172187.006 8
  20870962.677    20870964.433    -8242487.130 9   9526961.384 8
  20041501.320    20041503.696    19673101.978 8 -57397134.267 7
  21987097.276    21987099.370    42836489.701 9 -42744515.678 8
 86  6 12  1 46 17.0800000  0  4G 6G13G 9G11
  21521253.815    21521254.891    39170887.507 9 -42160119.714 1
  20869560.315    20869562.500    -8249852.340 9   9521222.254 8
  20041129.296    20041132.239    19671146.929 7 -57398657.691 7
  21989862.764    21989865.904    42851024.826 9 -42733189.606 9
 86  6 12  1 46 23.0800000  0  4G 6G13G 9G11
  21524204.111    21524205.355    39186393.114 9 -42148037.453 8
  20868163.034    20868164.267    -8257198.239 9   9515498.185 8
  20040762.862    20040763.024    19669216.344 8 -57400162.035 8
  21992629.810    21992632.809    42865567.711 9 -42721857.498 8
 86  6 12  1 46 29.0800000  0  4G 6G13G 9G11
  21527157.357    21527160.619    39201917.959 9 -42135940.186 8
  20866768.452    20866770.725    -8264524.892 9   9509789.103 7
  20040399.864    20040402.365    19667310.293 6 -57401647.271 7
  21995399.420    21995400.602    42880118.346 8 -42710519.345 8
 86  6 12  1 46 35.0800000  0  4G 6G13G 9G11
  21530115.043    21530117.734    39217461.923 9 -42123828.007 8
  20865377.684    20865379.690    -8271832.225 8   9504095.082 8
  20040042.361    20040043.101    19665428.810 8 -57403113.368 6
  21998169.394    21998171.657    42894676.684 9 -42699175.185 8
 86  6 12  1 46 41.0800000  0  4G 6G13G 9G11
  21533076.102    21533079.056    39233025.058 8 -42111700.903 8
  20863991.066    20863992.074    -8279120.328 9   9498416.046 7
  20039689.253    20039691.897    19663571.894 6 -57404560.315 7
  22000941.597    22000943.388    42909242.703 9 -42687825.050 8
 86  6 12  1 46 47.0800000  0  4G 6G13G 9G11
  21536041.539    21536045.877    39248607.386 9 -42099558.843 8
  20862607.584    20862608.776    -8286389.098 9   9492752.068 8
  20039339.594    20039341.961    19661739.519 8 -57405988.136 8
  22003714.005    22003717.248    42923816.403 9 -42676468.918 9
 86  6 12  1 46 53.0800000  0  4G 6G13G 9G11
  21539010.899    21539014.566    39264208.855 9 -42087401.868 8
  20861227.998    20861230.249    -8293638.684 9   9487103.042 8
  20038996.632    20038999.188    19659931.623 8 -57407396.902 7
  22006487.974    22006492.195    42938397.758 9 -42665106.831 8
 86  6 12  1 46 59.0800000  0  4G 6G13G 9G11
  21541983.834    21541986.502    39279829.461 9 -42075229.971 9
  20859851.764    20859854.559    -8300868.991 9   9481469.042 8
  20038656.947    20038659.185    19658148.338 7 -57408786.458 7
  22009264.910    22009267.572    42952986.793 9 -42653738.745 8
 86  6 12  1 47  5.0800000  0  4G 6G13G 9G11
  21544959.486    21544961.670    39295469.203 9 -42063043.166 8
  20858479.725    20858481.248    -8308079.974 9   9475850.091 9
  20038321.114    20038322.642    19656389.669 8 -57410156.854 8
  22012040.212    22012045.203    42967583.402 9 -42642364.766 8
 86  6 12  1 47 11.0800000  0  4G 6G13G 9G11
  21547939.657    21547942.637    39311128.061 9 -42050841.478 9
  20857111.072    20857113.688    -8315271.660 9   9470246.184 8
  20037990.223    20037995.314    19654655.656 7 -57411508.032 8
  22014821.750    22014824.254    42982187.554 9 -42630984.907 7
 86  6 12  1 47 17.0800000  0  4G 6G13G 9G11
  21550923.015    21550925.627    39326805.995 8 -42038624.906 9
  20855747.058    20855748.362    -8322444.114 8   9464657.266 8
  20037666.285    20037667.404    19652946.180 8 -57412840.095 7
  22017602.026    22017604.645    42996799.322 9 -42619599.127 9
 86  6 12  1 47 23.0800000  0  4G 6G13G 9G11
  21553909.774    21553913.017    39342502.998 9 -42026393.490 8
  20854385.824    20854388.611    -8329597.368 9   9459083.295 8
  20037345.565    20037347.357    19651261.294 7 -57414152.982 7
  22020383.751    22020386.741    43011418.644 9 -42608207.448 8
 86  6 12  1 47 29.0800000  0  4G 6G13G 9G11
  21556900.998    21556902.881    39358219.043 9 -42014147.228 8
  20853027.163    20853030.466    -8336731.427 9   9453524.304 8
  20037028.969    20037032.821    19649601.019 7 -57415446.707 6
  22023167.881    22023171.064    43026045.483 9 -42596809.916 9
 86  6 12  1 47 35.0800000  0  4G 6G13G 9G11
  21559895.770    21559898.300    39373954.158 9 -42001886.099 9
  20851672.953    20851676.242    -8343846.325 9   9447980.229 8
  20036717.929    20036721.740    19647965.352 8 -57416721.254 6
  22025952.376    22025955.129    43040679.805 9 -42585406.556 8
 86  6 12  1 47 41.0800000  0  4G 6G13G 9G11
  21562894.636    21562896.375    39389708.310 9 -41989610.147 8
  20850323.310    20850324.921    -8350941.998 9   9442451.137 8
  20036411.210    20036413.768    19646354.323 8 -57417976.604 7
  22028739.254    22028741.031    43055321.607 9 -42573997.365 8
 86  6 12  1 47 47.0800000  0  4G 6G13G 9G11
  21565895.505    21565897.613    39405481.503 9 -41977319.357 8
  20848975.997    20848979.263    -8358018.380 9   9436937.073 7
  20036110.556    20036112.093    19644768.120 8 -57419212.608 7
  22031525.884    22031528.319    43069970.875 9 -42562582.338 8
 86  6 12  1 47 53.0800000  0  4G 6G13G 9G11
  21568901.093    21568902.448    39421273.780 9 -41965013.694 8
  20847633.390    20847636.466    -8365075.566 9   9431437.964 7
  20035812.667    20035814.195    19643206.529 7 -57420429.425 7
                  22034315.572    43084627.669 5
 86  6 12  1 47 59.0800000  0  4G 6G13G 9G11
  21571909.945    21571911.096    39437085.019 9 -41952693.264 8
  20846294.704    20846297.364    -8372113.521 9   9425953.853 8
  20035520.941    20035522.038    19641669.666 6 -57421626.988 7
  22037105.899    22037107.596    43099291.871 9 -42505101.841 9
 86  6 12  1 48  5.0800000  0  4G 6G13G 9G11
  21574921.833    21574924.846    39452915.249 9 -41940358.021 8
  20844958.323    20844961.528    -8379132.250 9   9420484.712 8
  20035233.976    20035235.845    19640157.495 8 -57422805.304 6
  22039898.727    22039900.069    43113963.477 9 -42493669.413 8
 86  6 12  1 48 11.0800000  0  4G 6G13G 9G11
  21577938.012    21577940.683    39468764.421 9 -41928008.031 8
  20843626.530    20843629.825    -8386131.825 9   9415030.500 8
  20034951.060    20034952.276    19638669.985 8 -57423964.413 7
  22042691.441    22042694.231    43128642.496 9 -42482231.210 7
 86  6 12  1 48 17.0800000  0  4G 6G13G 9G11
  21580957.998    21580958.572    39484632.587 9 -41915643.240 9
  20842298.318    20842300.732    -8393112.136 9   9409591.297 8
  20034672.494    20034673.343    19637207.217 8 -57425104.248 7
  22045486.427    22045488.965    43143328.872 9 -42470787.285 9
 86  6 12  1 48 23.0800000  0  4G 6G13G 9G11
  21583980.529    21583981.951    39500519.663 9 -41903263.703 8
  20840973.969    20840976.725    -8400073.252 9   9404167.060 8
  20034399.279    20034399.199    19635769.172 7 -57426224.805 8
  22048281.704    22048284.443    43158022.584 9 -42459337.644 8
 86  6 12  1 48 29.0800000  0  4G 6G13G 9G11
  21587007.903    21587009.738    39516425.682 9 -41890869.409 8
  20839653.043    20839655.255    -8407015.106 9   9398757.832 8
  20034129.231    20034130.548    19634355.817 8 -57427326.105 7
  22051079.641    22051082.669    43172723.702 9 -42447882.240 8
 86  6 12  1 48 35.0800000  0  4G 6G13G 9G11
  21590039.214    21590039.928    39532350.615 9 -41878460.380 8
  20838335.951    20838338.339    -8413937.713 9   9393363.595 8
  20033865.538    20033865.858    19632967.228 7 -57428408.140 7
  22053879.025    22053880.631    43187432.108 9 -42436421.152 8
 86  6 12  1 48 41.0800000  0  4G 6G13G 9G11
  21593072.046    21593073.471    39548294.483 9 -41866036.600 8
  20837022.224    20837024.162    -8420841.145 9   9387984.298 8
  20033605.849    20033607.042    19631603.454 7 -57429470.825 7
  22056678.951    22056681.884    43202147.779 8 -42424954.394 7
 86  6 12  1 48 47.0800000  0  4G 6G13G 9G11
  21596109.610    21596111.313    39564257.234 8 -41853598.096 8
  20835712.119    20835713.808    -8427725.431 9   9382619.916 9
  20033351.016    20033351.671    19630264.332 8 -57430514.291 7
  22059480.682    22059483.109    43216870.771 8 -42413481.946 8
 86  6 12  1 48 53.0800000  0  4G 6G13G 9G11
  21599150.967    21599153.288    39580238.864 9 -41841144.899 8
  20834405.813    20834406.941    -8434590.563 9   9377270.474 9
  20033101.021    20033099.477    19628950.083 8 -57431538.408 7
  22062283.432    22062286.463    43231601.082 9 -42402003.781 8
 86  6 12  1 48 59.0800000  0  4G 6G13G 9G11
  21602195.626    21602197.228    39596239.362 9 -41828676.987 8
  20833103.124    20833105.608    -8441436.476 9   9371935.986 8
  20032856.401    20032857.529    19627660.595 8 -57432543.208 7
  22065089.047    22065091.597    43246338.682 9 -42390519.947 8
 86  6 12  1 49  5.0800000  0  4G 6G13G 9G11
  21605243.303    21605245.219    39612258.696 9 -41816194.394 8
  20831803.314    20831805.415    -8448263.266 9   9366616.414 8
  20032614.606    20032615.980    19626395.915 8 -57433528.671 6
  22067894.327    22067896.090    43261083.460 9 -42379030.501 8
 86  6 12  1 49 11.0800000  0  4G 6G13G 9G11
  21608295.143    21608297.123    39628296.873 9 -41803697.126 8
  20830508.189    20830510.292    -8455070.825 9   9361311.828 8
  20032379.072    20032379.067    19625156.074 8 -57434494.759 7
  22070700.909    22070703.181    43275835.506 9 -42367535.421 8
 86  6 12  1 49 17.0800000  0  4G 6G13G 9G11
  21611350.647    21611353.509    39644354.078 9 -41791185.033 9
  20829215.967    20829218.536    -8461859.289 9   9356022.118 8
  20032147.778    20032147.182    19623941.084 8 -57435441.519 7
  22073509.463    22073511.469    43290594.660 9 -42356034.784 8
 86  6 12  1 49 23.0800000  0  4G 6G13G 9G11
  21614410.585    21614412.683    39660430.025 9 -41778658.321 8
  20827927.518    20827931.052    -8468628.616 9   9350747.330 8
  20031921.888    20031922.319    19622750.891 7 -57436368.949 7
  22076320.286    22076322.567    43305361.015 9 -42344528.537 9
 86  6 12  1 49 29.0800000  0  4G 6G13G 9G11
  21617473.643    21617474.558    39676524.670 9 -41766117.045 9
  20826643.509    20826645.725    -8475378.722 9   9345487.501 8
  20031699.885    20031699.935    19621585.507 8 -57437277.027 7
  22079131.467    22079133.825    43320134.515 9 -42333016.721 9
 86  6 12  1 49 35.0800000  0  4G 6G13G 9G11
  21620539.532    21620540.795    39692638.106 9 -41753561.121 8
  20825362.019    20825365.156    -8482109.671 9   9340242.612 7
  20031482.676    20031483.857    19620445.039 7 -57438165.703 7
  22081943.395    22081944.523    43334915.172 9 -42321499.318 8
 86  6 12  1 49 41.0800000  0  4G 6G13G 9G11
  21623608.254    21623611.019    39708770.339 9 -41740990.576 8
  20824085.961    20824088.484    -8488821.533 9   9335012.597 8
  20031269.943    20031271.327    19619329.397 8 -57439035.052 7
  22084758.271    22084761.127    43349702.930 9 -42309976.404 8
 86  6 12  1 49 47.0800000  0  4G 6G13G 9G11
  21626683.181    21626684.592    39724921.326 9 -41728405.394 8
  20822811.634    20822813.786    -8495514.140 9   9329797.569 7
  20031063.601    20031061.889    19618238.713 8 -57439884.938 6
  22087573.058    22087575.018    43364497.821 9 -42298447.921 8
 86  6 12  1 49 53.0800000  0  4G 6G13G 9G11
  21629759.603    21629762.296    39741090.987 9 -41715805.660 8
  20821541.828    20821544.827    -8502187.605 9   9324597.478 8
  20030860.001    20030860.854    19617172.813 8 -57440715.493 7
  22090389.805    22090391.640    43379299.772 9 -42286913.935 8
 86  6 12  1 49 59.0800000  0  4G 6G13G 9G11
  21632839.541    21632842.139    39757279.476 9 -41703191.269 9
  20820275.914    20820278.653    -8508841.899 9   9319412.315 8
  20030662.847    20030663.780    19616131.842 7 -57441526.651 6
  22093207.763    22093209.726    43394108.786 1 -42275374.432 8
 86  6 12  1 50  5.0800000  0  4G 6G13G 9G11
  21635924.029    21635926.387    39773486.563 9 -41690562.382 8
  20819013.022    20819016.021    -8515477.101 9   9314242.030 8
  20030468.367    20030469.059    19615115.727 7 -57442318.421 7
  22096027.867    22096029.375    43408924.866 9 -42263829.437 8
 86  6 12  1 50 11.0800000  0  4G 6G13G 9G11
  21639011.497    21639013.951    39789712.468 9 -41677918.835 8
  20817754.328    20817756.975    -8522093.150 9   9309086.671 8
  20030280.287    20030280.140    19614124.549 8 -57443090.772 7
  22098847.794    22098851.183    43423747.974 9 -42252278.967 8
 86  6 12  1 50 17.0800000  0  4G 6G13G 9G11
  21642102.602    21642104.635    39805957.071 9 -41665260.709 9
  20816499.166    20816501.856    -8528690.085 9   9303946.208 9
  20030096.048    20030095.504    19613158.240 9 -57443843.755 6
  22101670.597    22101672.572    43438578.101 9 -42240723.033 8
 86  6 12  1 50 23.0800000  0  4G 6G13G 9G11
  21645197.221    21645199.227    39822220.335 9 -41652588.043 8
  20815247.136    20815249.355    -8535267.809 9   9298820.713 8
  20029917.055    20029917.125    19612216.891 6 -57444577.253 7
  22104493.266    22104496.651    43453415.223 9 -42229161.640 8
 86  6 12  1 50 29.0800000  0  4G 6G13G 9G11
  21648295.509    21648298.391    39838502.225 9 -41639900.871 8
  20813998.852    20813999.640    -8541826.436 9   9293710.104 8
  20029740.798    20029744.184    19611300.537 7 -57445291.326 7
  22107318.232    22107319.935    43468259.330 9 -42217594.808 9
 86  6 12  1 50 35.0800000  0  4G 6G13G 9G11
  21651397.859    21651400.456    39854802.758 9 -41627199.170 8
  20812754.712    20812756.496    -8548365.934 9   9288614.385 8
  20029572.504    20029573.984    19610409.097 8 -57445985.944 7
  22110143.751    22110146.928    43483110.342 9 -42206022.582 8
 86  6 12  1 50 41.0800000  0  4G 6G13G 9G11
  21654503.867    21654506.115    39871121.951 9 -41614482.934 9
  20811513.504    20811516.932    -8554886.314 9   9283533.582 8
  20029406.803    20029410.278    19609542.628 9 -57446661.123 7
  22112970.520    22112974.596    43497968.323 9 -42194444.950 8
 86  6 12  1 50 47.0800000  0  4G 6G13G 9G11
  21657612.278    21657614.349    39887459.751 9 -41601752.172 8
  20810276.760    20810279.181    -8561387.580 9   9278467.660 7
  20029246.842    20029248.687    19608701.100 8 -57447316.862 7
  22115799.963    22115803.013    43512833.229 9 -42182861.921 8
 86  6 12  1 50 53.0800000  0  4G 6G13G 9G11
  21660725.109    21660727.151    39903816.170 9 -41589006.927 7
  20809043.590    20809045.865    -8567869.736 8   9273416.635 9
  20029092.903    20029093.463    19607884.560 7 -57447953.132 7
  22118629.700    22118632.902    43527705.001 9 -42171273.519 8
 86  6 12  1 50 59.0800000  0  4G 6G13G 9G11
  21663841.075    21663843.271    39920191.211 9 -41576247.155 8
  20807813.171    20807815.162    -8574332.760 9   9268380.519 9
  20028941.345    20028944.333    19607093.044 8 -57448569.892 7
  22121460.588    22121464.062    43542583.671 9 -42159679.762 9
 86  6 12  1 51  5.0800000  0  4G 6G13G 9G11
  21666960.969    21666963.279    39936584.776 9 -41563472.958 8
  20806587.789    20806589.941    -8580776.698 9   9263359.274 8
  20028794.929    20028796.175    19606326.480 8 -57449167.229 9
  22124293.387    22124295.949    43557469.194 9 -42148080.656 9
 86  6 12  1 51 11.0800000  0  4G 6G13G 9G11
  21670084.555    21670085.971    39952996.911 9 -41550684.303 8
  20805365.335    20805366.432    -8587201.581 9   9258352.877 8
  20028654.266    20028655.154    19605584.953 8 -57449745.029 7
  22127127.660    22127131.286    43572361.528 9 -42136476.241 8
 86  6 12  1 51 17.0800000  0  4G 6G13G 9G11
  21673210.596    21673213.622    39969427.597 9 -41537881.172 8
  20804145.709    20804148.313    -8593607.420 9   9253361.309 8
  20028518.934    20028519.227    19604868.479 7 -57450303.348 7
  22129962.886    22129965.783    43587260.700 9 -42124866.506 8
 86  6 12  1 51 23.0800000  0  4G 6G13G 9G11
  21676340.537    21676343.701    39985876.856 9 -41525063.586 9
  20802930.363    20802932.144    -8599994.125 9   9248384.653 8
  20028386.460    20028386.971    19604177.063 8 -57450842.103 8
  22132799.804    22132802.157    43602166.622 9 -42113251.507 8
 86  6 12  1 51 29.0800000  0  4G 6G13G 9G11
  21679474.589    21679477.916    40002344.610 9 -41512231.569 8
  20801719.070    20801721.326    -8606361.673 9   9243422.943 8
  20028258.999    20028260.564    19603510.604 8 -57451361.416 7
  22135637.723    22135640.064    43617079.327 8 -42101631.231 8
 86  6 12  1 51 35.0800000  0  4G 6G13G 9G11
  21682612.170    21682613.919    40018830.868 9 -41499385.156 9
  20800510.728    20800513.234    -8612710.088 9   9238476.126 8
  20028136.332    20028139.300    19602869.290 7 -57451861.152 7
  22138476.727    22138480.044    43631998.825 9 -42090005.653 9
 86  6 12  1 51 41.0800000  0  4G 6G13G 9G11
  21685752.521    21685755.263    40035335.661 9 -41486524.279 8
  20799306.246    20799307.850    -8619039.433 9   9233544.180 8
  20028020.818    20028022.660    19602252.970 7 -57452341.403 7
  22141316.910    22141319.972    43646925.010 9 -42078374.860 9
 86  6 12  1 51 47.0800000  0  4G 6G13G 9G11
  21688897.310    21688898.964    40051858.902 9 -41473649.037 9
  20798104.805    20798107.653    -8625349.652 9   9228627.127 9
  20027908.358    20027911.451    19601661.697 8 -57452802.136 7
  22144157.828    22144161.016    43661857.919 9 -42066738.825 8
 86  6 12  1 51 53.0800000  0  4G 6G13G 9G11
  21692045.076    21692047.317    40068400.549 9 -41460759.458 9
  20796906.929    20796909.762    -8631640.862 9   9223724.883 7
  20027800.672    20027802.585    19601095.438 7 -57453243.382 6
  22147001.806    22147003.749    43676797.522 9 -42055097.580 9
 86  6 12  1 51 59.0800000  0  4G 6G13G 9G11
  21695195.131    21695199.231    40084960.631 9 -41447855.503 8
  20795713.677    20795716.719    -8637913.089 9   9218837.438 8
  20027696.878    20027698.319    19600554.250 7 -57453665.083 7
  22149845.970    22149848.325    43691743.798 4 -42043451.137 7
 86  6 12  1 52  5.0800000  0  4G 6G13G 9G11
  21698350.338    21698352.667    40101539.208 9 -41434937.137 7
  20794524.469    20794526.875    -8644166.203 9   9213964.890 8
  20027599.528    20027600.416    19600038.184 8 -57454067.226 7
  22152691.381    22152693.233    43706696.766 9 -42031799.473 8
 86  6 12  1 52 11.0800000  0  4G 6G13G 9G11
  21701509.100    21701511.204    40118136.214 9 -41422004.422 9
  20793338.719    20793341.050    -8650400.204 9   9209107.221 7
  20027506.924    20027507.350    19599547.241 8 -57454449.777 6
  22155538.710    22155540.379    43721656.341 9 -42020142.674 9
 86  6 12  1 52 17.0800000  0  4G 6G13G 9G11
  21704671.766    21704673.776    40134751.579 9 -41409057.387 8
  20792154.944    20792157.158    -8656615.173 9   9204264.390 8
  20027418.040    20027416.637    19599081.429 8 -57454812.744 7
  22158386.257    22158387.358    43736622.576 9 -42008480.672 8
 86  6 12  1 52 23.0800000  0  4G 6G13G 9G11
  21707836.388    21707838.922    40151385.369 9 -41396096.002 8
  20790975.883    20790978.739    -8662811.179 9   9199436.338 8
  20027332.862    20027334.095    19598640.726 8 -57455156.135 7
  22161235.706    22161237.143    43751595.384 8 -41996813.551 8
 86  6 12  1 52 29.0800000  0  4G 6G13G 9G11
  21711005.020    21711007.963    40168037.530 9 -41383120.302 8
  20789800.681    20789802.693    -8668988.160 9   9194623.107 8
  20027253.638    20027255.529    19598225.093 7 -57455480.021 7
  22164086.435    22164087.923    43766574.826 9 -41985141.275 9
 86  6 12  1 52 35.0800000  0  4G 6G13G 9G11
  21714176.999    21714179.369    40184708.042 9 -41370130.294 8
  20788628.783    20788630.466    -8675146.116 9   9189824.699 8
  20027179.725    20027180.232    19597834.677 7 -57455784.233 7
  22166938.071    22166939.625    43781560.858 9 -41973463.843 8
 86  6 12  1 52 41.0800000  0  4G 6G13G 9G11
  21717353.039    21717354.878    40201396.945 9 -41357125.974 7
  20787460.172    20787462.533    -8681285.041 9   9185041.133 7
  20027111.348    20027110.689    19597469.393 8 -57456068.884 6
                  22169790.288    43796553.515 8
 86  6 12  1 52 47.0800000  0  4G 6G13G 9G11
  21720532.309    21720534.682    40218104.158 9 -41344107.379 8
  20786295.919    20786298.451    -8687404.946 9   9180272.375 8
  20027045.220    20027046.939    19597129.211 8 -57456333.958 6
  22172645.004    22172754.870    43811552.625 9 -41910528.570 8
 86  6 12  1 52 53.0800000  0  4G 6G13G 9G11
  21723715.514    21723716.500    40234829.634 9 -41331074.544 9
  20785134.073    20785136.582    -8693505.907 9   9175518.379 9
  20026986.240    20026986.841    19596814.197 7 -57456579.438 7
  22175500.500    22175501.736    43826558.296 9 -41898835.904 7
 86  6 12  1 52 59.0800000  0  4G 6G13G 9G11
  21726900.762    21726903.131    40251573.450 9 -41318027.419 8
  20783978.263    20783980.516    -8699587.878 9   9170779.181 9
  20026929.745    20026930.749    19596524.311 8 -57456805.324 7
  22178357.396    22178359.270    43841570.459 9 -41887138.113 8
 86  6 12  1 53  5.0800000  0  4G 6G13G 9G11
  21730090.426    21730094.284    40268335.535 9 -41304966.073 8
  20782823.965    20782826.128    -8705650.848 9   9166054.790 9
  20026879.698    20026881.029    19596259.620 8 -57457011.565 7
  22181214.962    22181216.965    43856589.125 9 -41875435.276 9
 86  6 12  1 53 11.0800000  0  4G 6G13G 9G11
  21733284.762    21733287.517    40285115.886 9 -41291890.485 8
  20781674.131    20781676.202    -8711694.751 9   9161345.259 8
  20026834.591    20026837.368    19596020.147 8 -57457198.172 6
  22184074.451    22184076.537    43871614.232 9 -41863727.393 8
 86  6 12  1 53 17.0800000  0  4G 6G13G 9G11
  21736480.146    21736482.683    40301914.449 9 -41278800.700 8
  20780527.474    20780529.993    -8717719.683 9   9156650.508 8
  20026793.126    20026795.834    19595805.808 7 -57457365.189 7
  22186934.661    22186936.944    43886645.747 9 -41852014.526 9
 86  6 12  1 53 23.0800000  0  4G 6G13G 9G11
  21739680.543    21739682.734    40318731.287 9 -41265696.687 8
  20779384.844    20779388.051    -8723725.598 9   9151970.569 8
  20026758.171    20026758.915    19595616.736 8 -57457512.525 7
  22189796.857    22189797.758    43901683.694 9 -41840296.643 8
 86  6 12  1 53 29.0800000  0  4G 6G13G 9G11
  21742884.484    21742887.137    40335566.365 9 -41252578.447 8
  20778245.080    20778248.285    -8729712.520 9   9147305.447 9
  20026726.009    20026727.665    19595452.797 8 -57457640.286 7
  22192658.676    22192661.022    43916728.023 9 -41828573.801 9
 86  6 12  1 53 35.0800000  0  4G 6G13G 9G11
  21746092.117    21746095.188    40352419.626 9 -41239446.050 8
  20777109.232    20777112.313    -8735680.485 9   9142655.086 8
  20026700.333    20026701.555    19595314.117 8 -57457748.346 7
  22195522.843    22195525.041    43931778.719 9 -41816845.983 9
 86  6 12  1 53 41.0800000  0  4G 6G13G 9G11
  21749301.563    21749306.304    40369291.062 9 -41226299.486 9
  20775976.803    20775980.622    -8741629.518 9   9138019.470 9
  20026678.764    20026679.481    19595200.556 7 -57457836.833 6
  22198387.658    22198390.446    43946835.800 9 -41805113.187 8
 86  6 12  1 53 47.0800000  0  4G 6G13G 9G11
  21752515.409    21752518.871    40386180.639 9 -41213138.782 8
  20774848.629    20774852.119    -8747559.607 9   9133398.630 8
  20026660.936    20026661.852    19595112.344 7 -57457905.553 6
  22201255.146    22201257.355    43961899.212 9 -41793375.476 9
 86  6 12  1 53 53.0800000  0  4G 6G13G 9G11
  21755733.996    21755736.592    40403088.470 9 -41199963.861 8
  20773723.526    20773727.010    -8753470.669 9   9128792.616 8
  20026649.111    20026651.847    19595049.381 8 -57457954.636 6
  22204122.608    22204125.261    43976969.019 8 -41781632.774 8
 86  6 12  1 53 59.0800000  0  4G 6G13G 9G11
  21758954.745    21758956.967    40420014.481 9 -41186774.771 8
  20772602.609    20772605.230    -8759362.740 9   9124201.390 9
  20026641.972    20026643.453    19595011.659 7 -57457984.029 7
  22206991.621    22206993.178    43992045.100 9 -41769885.172 8
 86  6 12  1 54  5.0800000  0  4G 6G13G 9G11
  21762179.290    21762182.113    40436958.567 9 -41173571.594 8
  20771485.037    20771487.504    -8765235.982 9   9119624.848 8
  20026639.586    20026641.010    19594999.170 9 -57457993.775 6
  22209861.933    22209864.867    44007127.387 9 -41758132.748 8
 86  6 12  1 54 11.0800000  0  4G 6G13G 9G11
  21765407.051    21765409.128    40453920.738 9 -41160354.339 8
  20770370.281    20770373.067    -8771090.230 9   9115063.097 8
  20026642.893    20026644.741    19595012.046 8 -57457983.733 5
  22212732.191    22212735.079    44022215.964 9 -41746375.419 9
 86  6 12  1 54 17.0800000  0  4G 6G13G 9G11
  21768638.460    21768640.200    40470901.180 9 -41147122.836 8
  20769260.305    20769263.584    -8776925.426 9   9110516.194 8
  20026649.699    20026650.426    19595050.192 8 -57457954.007 7
  22215605.111    22215608.067    44037310.906 9 -41734613.128 9
 86  6 12  1 54 23.0800000  0  4G 6G13G 9G11
  21771872.910    21771874.988    40487899.724 9 -41133877.219 9
  20768153.980    20768156.807    -8782741.716 9   9105984.017 8
  20026662.283    20026664.105    19595113.666 8 -57457904.547 6
  22218479.335    22218481.610    44052412.045 9 -41722846.018 7
 86  6 12  1 54 29.0800000  0  4G 6G13G 9G11
  21775111.285    21775113.672    40504916.101 9 -41120617.714 8
  20767050.397    20767053.308    -8788539.046 9   9101466.619 8
  20026678.585    20026678.749    19595202.298 8 -57457835.505 7
  22221353.239    22221356.773    44067519.372 9 -41711074.077 9
 86  6 12  1 54 35.0800000  0  4G 6G13G 9G11
  21778353.067    21778355.162    40521950.670 9 -41107344.044 9
  20765950.511    20765954.131    -8794317.465 9   9096963.972 8
  20026700.532    20026700.995    19595316.261 8 -57457746.695 7
  22224229.161    22224232.434    44082632.940 9 -41699297.272 9
 86  6 12  1 54 41.0800000  0  4G 6G13G 9G11
  21781598.071    21781599.349    40539003.276 9 -41094056.295 7
  20764855.694    20764857.530    -8800076.989 9   9092476.025 8
  20026727.004    20026729.490    19595455.551 7 -57457638.149 7
  22227107.443    22227109.727    44097752.745 9 -41687515.613 9
 86  6 12  1 54 47.0800000  0  4G 6G13G 9G11
  21784845.200    21784847.656    40556073.877 9 -41080754.540 7
  20763762.272    20763765.320    -8805817.593 9   9088002.836 8
  20026757.760    20026760.007    19595620.207 8 -57457509.860 7
  22229984.298    22229988.124    44112878.729 9 -41675729.128 8
 86  6 12  1 54 53.0800000  0  4G 6G13G 9G11
  21788098.282    21788099.563    40573162.570 9 -41067438.693 8
  20762674.413    20762676.656    -8811539.324 9   9083544.345 8
  20026794.459    20026796.687    19595810.098 8 -57457361.909 7
  22232865.156    22232867.042    44128010.855 9 -41663937.871 8
 86  6 12  1 54 59.0800000  0  4G 6G13G 9G11
  21791353.482    21791355.096    40590269.276 9 -41054108.802 8
  20761589.114    20761591.771    -8817242.070 9   9079100.638 8
  20026835.316    20026836.420    19596025.403 7 -57457194.134 5
  22235745.224    22235748.381    44143149.135 9 -41652141.807 7
 86  6 12  1 55  5.0800000  0  4G 6G13G 9G11
  21794611.174    21794613.084    40607393.936 9 -41040764.918 8
  20760508.402    20760510.413    -8822925.901 9   9074671.680 8
  20026882.104    20026882.190    19596266.127 8 -57457006.563 6
  22238627.573    22238630.189    44158293.532 9 -41640340.985 7
 86  6 12  1 55 11.0800000  0  4G 6G13G 9G11
  21797873.751    21797874.534    40624536.578 9 -41027407.029 8
  20759429.587    20759431.484    -8828590.847 9   9070257.444 8
  20026932.046    20026933.741    19596532.083 8 -57456799.310 7
  22241510.321    22241513.240    44173444.053 9 -41628535.393 9
 86  6 12  1 55 17.0800000  0  4G 6G13G 9G11
  21801140.263    21801141.698    40641697.176 9 -41014035.141 8
  20758354.762    20758357.315    -8834236.954 9   9065857.881 8
  20026987.443    20026989.701    19596823.356 9 -57456572.355 6
  22244395.019    22244396.633    44188600.579 9 -41616725.103 9
 86  6 12  1 55 23.0800000  0  4G 6G13G 9G11
  21804408.217    21804410.919    40658875.668 9 -41000649.314 9
  20757284.017    20757286.691    -8839864.196 9   9061473.016 7
  20027048.878    20027047.766    19597140.029 8 -57456325.596 6
  22247280.579    22247282.133    44203763.183 9 -41604910.100 8
 86  6 12  1 55 29.0800000  0  4G 6G13G 9G11
  21807681.419    21807682.888    40676072.066 9 -40987249.529 9
  20756216.699    20756219.016    -8845472.517 9   9057102.899 8
  20027113.692    20027113.256    19597482.058 8 -57456059.078 6
  22250167.242    22250168.784    44218931.768 8 -41593090.419 8
 86  6 12  1 55 35.0800000  0  4G 6G13G 9G11
  21810956.049    21810958.850    40693286.422 8 -40973835.763 8
  20755152.961    20755156.995    -8851061.874 9   9052747.557 8
  20027183.489    20027184.113    19597849.468 8 -57455772.802 7
  22253053.718    22253056.494    44234106.391 9 -41581266.042 8
 86  6 12  1 55 41.0800000  0  4G 6G13G 9G11
  21814235.779    21814237.359    40710518.639 9 -40960408.068 8
  20754093.398    20754094.284    -8856632.349 9   9048406.938 8
  20027258.250    20027259.437    19598242.293 8 -57455466.692 7
  22255942.363    22255945.457    44249287.022 9 -41569436.984 9
 86  6 12  1 55 47.0800000  0  4G 6G13G 9G11
  21817517.540    21817521.439    40727768.765 9 -40946966.437 8
  20753036.325    20753039.175    -8862183.999 9   9044080.974 8
  20027339.179    20027337.892    19598660.469 8 -57455140.825 7
  22258832.459    22258834.305    44264473.640 9 -41557603.270 8
 86  6 12  1 55 53.0800000  0  4G 6G13G 9G11
  21820803.188    21820806.563    40745036.741 9 -40933510.880 8
  20751983.880    20751986.556    -8867716.799 9   9039769.712 8
  20027422.626    20027422.373    19599104.101 8 -57454795.160 7
  22261724.269    22261725.420    44279666.228 9 -41545764.889 8
 86  6 12  1 55 59.0800000  0  4G 6G13G 9G11
  21824093.552    21824096.112    40762322.570 9 -40920041.413 8
  20750934.791    20750937.467    -8873230.730 9   9035473.132 9
  20027511.327    20027512.400    19599573.074 9 -57454429.741 7
  22264615.926    22264618.224    44294864.811 9 -41533921.836 8
 86  6 12  1 56  5.0800000  0  4G 6G13G 9G11
  21827385.590    21827388.298    40779626.168 9 -40906558.088 8
  20749888.634    20749892.146    -8878725.762 9   9031191.303 8
  20027605.325    20027605.178    19600067.492 9 -57454044.481 6
  22267509.339    22267511.319    44310069.322 9 -41522074.167 8
 86  6 12  1 56 11.0800000  0  4G 6G13G 9G11
  21830682.371    21830685.896    40796947.650 9 -40893060.854 8
  20748847.264    20748849.758    -8884202.054 9   9026924.060 8
  20027703.892    20027704.801    19600587.301 9 -57453639.440 7
                  22270403.819    44325279.750 9
 86  6 12  1 56 17.0800000  0  4G 6G13G 9G11
  21833983.219    21833985.411    40814286.883 8 -40879549.770 8
  20747808.776    20747811.288    -8889659.470 9   9022671.523 8
  20027808.006    20027809.067    19601132.564 8 -57453214.558 6
                  22273299.499    44340496.044 9
 86  6 12  1 56 23.0800000  0  4G 6G13G 9G11
  21837284.892    21837288.306    40831643.916 9 -40866024.828 8
  20746773.363    20746776.172    -8895098.055 9   9018433.676 9
  20027915.049    20027917.395    19601703.277 8 -57452769.862 7
  22276197.064    22276199.286    44355718.231 9 -41433639.598 1
 86  6 12  1 56 29.0800000  0  4G 6G13G 9G11
  21840590.942    21840594.372    40849018.687 9 -40852486.051 7
  20745741.940    20745745.051    -8900517.765 9   9014210.531 8
  20028028.607    20028030.821    19602299.355 8 -57452305.378 7
  22279094.788    22279096.628    44370946.290 9 -41421773.582 8
 86  6 12  1 56 35.0800000  0  4G 6G13G 9G11
  21843901.635    21843904.546    40866411.255 9 -40838933.419 8
  20744713.804    20744716.102    -8905918.632 9   9010002.052 7
  20028146.410    20028149.112    19602920.997 8 -57451820.971 6
  22281992.714    22281995.138    44386180.160 9 -41409903.031 8
 86  6 12  1 56 41.0800000  0  4G 6G13G 9G11
  21847215.328    21847217.852    40883821.482 9 -40825367.016 9
  20743689.618    20743692.506    -8911300.751 9   9005808.206 8
  20028270.050    20028271.837    19603568.045 8 -57451316.779 7
  22284893.012    22284895.411    44401419.843 7 -41398027.959 2
 86  6 12  1 56 47.0800000  0  4G 6G13G 9G11
  21850530.858    21850534.013    40901249.448 9 -40811786.793 8
  20742668.399    20742671.314    -8916664.100 9   9001628.976 8
  20028398.792    20028400.009    19604240.562 6 -57450792.749 7
  22287793.182    22287797.653    44416665.227 9 -41386148.444 9
 86  6 12  1 56 53.0800000  0  4G 6G13G 9G11
  21853850.820    21853852.760    40918695.115 9 -40798192.779 8
  20741651.956    20741654.903    -8922008.619 9   8997464.416 9
  20028530.909    20028534.058    19604938.557 7 -57450248.867 7
  22290696.400    22290698.858    44431916.432 9 -41374264.393 8
 86  6 12  1 56 59.0800000  0  4G 6G13G 9G11
  21857174.305    21857176.496    40936158.541 9 -40784584.922 8
  20740638.758    20740640.459    -8927334.277 9   8993314.556 8
  20028668.062    20028670.549    19605662.057 8 -57449685.107 6
  22293599.415    22293602.148    44447173.441 9 -41362375.810 8
 86  6 12  1 57  5.0800000  0  4G 6G13G 9G11
  21860500.759    21860503.727    40953639.615 9 -40770963.320 8
  20739630.361    20739631.784    -8932641.170 9   8989179.312 8
  20028810.092    20028812.782    19606410.964 7 -57449101.540 7
  22296504.596    22296507.240    44462436.213 8 -41350482.757 8
 86  6 12  1 57 11.0800000  0  4G 6G13G 9G11
  21863830.139    21863832.954    40971138.313 9 -40757327.988 7
  20738623.436    20738625.214    -8937929.315 9   8985058.679 7
  20028959.527    20028960.997    19607185.426 9 -57448498.062 6
  22299409.442    22299412.086    44477704.711 9 -41338585.219 8
 86  6 12  1 57 17.0800000  0  4G 6G13G 9G11
  21867164.296    21867167.078    40988654.672 9 -40743678.883 8
  20737620.288    20737622.990    -8943198.764 9   8980952.628 9
  20029110.356    20029114.125    19607985.369 8 -57447874.734 7
  22302316.363    22302319.331    44492978.905 8 -41326683.264 9
 86  6 12  1 57 23.0800000  0  4G 6G13G 9G11
  21870501.348    21870502.344    41006188.626 9 -40730016.063 7
  20736621.894    20736623.438    -8948449.416 9   8976861.198 8
  20029268.405    20029269.628    19608810.739 8 -57447231.589 7
  22305223.942    22305226.695    44508258.801 8 -41314776.850 7
 86  6 12  1 57 29.0800000  0  4G 6G13G 9G11
  21873840.310    21873842.262    41023740.178 9 -40716339.543 7
  20735626.318    20735628.008    -8953681.312 9   8972784.405 9
  20029429.929    20029433.001    19609661.690 7 -57446568.584 6
  22308132.580    22308135.966    44523544.323 9 -41302866.068 8
 86  6 12  1 57 35.0800000  0  4G 6G13G 9G11
  21877184.261    21877185.602    41041309.356 9 -40702649.290 8
  20734633.231    20734636.148    -8958894.446 9   8968722.221 9
  20029596.998    20029597.595    19610538.024 7 -57445885.652 7
  22311042.498    22311044.366    44538835.513 9 -41290950.838 8
 86  6 12  1 57 41.0800000  0  4G 6G13G 9G11
  21880531.490    21880533.030    41058896.105 9 -40688945.362 6
  20733645.590    20733647.440    -8964088.843 9   8964674.639 8
  20029768.724    20029770.260    19611440.110 8 -57445182.742 6
  22313952.950    22313956.018    44554132.402 6 -41279031.212 9
 86  6 12  1 57 47.0800000  0  4G 6G13G 9G11
  21883880.707    21883882.825    41076500.418 9 -40675227.691 9
  20732660.206    20732662.266    -8969264.499 9   8960641.668 8
  20029945.780    20029947.561    19612367.592 7 -57444460.019 8
  22316865.509    22316867.646    44569434.812 9 -41267107.243 7
 86  6 12  1 57 53.0800000  0  4G 6G13G 9G11
  21887233.658    21887236.021    41094122.271 9 -40661496.390 8
  20731678.702    20731681.122    -8974421.378 9   8956623.319 9
  20030127.073    20030127.207    19613320.652 8 -57443717.367 7
  22319778.288    22319780.723    44584742.890 9 -41255178.876 8
 86  6 12  1 57 59.0800000  0  4G 6G13G 9G11
  21890590.343    21890593.251    41111761.628 9 -40647751.440 9
  20730700.869    20730703.225    -8979559.557 9   8952619.547 7
  20030313.432    20030313.314    19614299.199 8 -57442954.879 7
  22322692.859    22322695.614    44600056.573 9 -41243246.145 9
 86  6 12  1 58  5.0800000  0  4G 6G13G 9G11
  21893951.135    21893953.277    41129418.490 9 -40633992.868 8
  20729725.994    20729729.611    -8984679.075 9   8948630.308 9
  20030504.322    20030505.659    19615303.381 8 -57442172.398 7
  22325607.449    22325610.477    44615375.796 8 -41231309.084 8
 86  6 12  1 58 11.0800000  0  4G 6G13G 9G11
  21897313.302    21897315.328    41147092.828 9 -40620220.671 8
  20728755.868    20728758.827    -8989779.844 9   8944655.687 9
  20030698.959    20030701.722    19616333.041 8 -57441370.064 7
  22328523.760    22328525.803    44630700.548 9 -41219367.716 7
 86  6 12  1 58 17.0800000  0  4G 6G13G 9G11
  21900679.675    21900682.354    41164784.659 9 -40606434.823 8
  20727788.668    20727791.836    -8994861.957 9   8940695.603 8
  20030900.672    20030901.841    19617388.278 8 -57440547.815 6
  22331440.603    22331442.727    44646030.834 6 -41207422.053 8
 86  6 12  1 58 23.0800000  0  4G 6G13G 9G11
  21904050.920    21904052.648    41182494.012 9 -40592635.357 8
  20726825.150    20726827.881    -8999925.303 9   8936750.139 9
  20031106.601    20031106.578    19618469.147 1 -57439705.605 7
  22334359.203    22334361.882    44661366.680 9 -41195472.055 7
 86  6 12  1 58 29.0800000  0  4G 6G13G 9G11
  21907423.997    21907426.183    41200220.753 9 -40578822.314 8
  20725865.474    20725868.142    -9004969.959 9   8932819.238 7
  20031317.299    20031317.649    19619575.509 1 -57438843.456 6
  22337278.647    22337282.056    44676708.019 8 -41183517.763 9
 86  6 12  1 58 35.0800000  0  4G 6G13G 9G11
  21910799.818    21910802.015    41217964.950 9 -40564995.673 8
  20724907.817    20724911.784    -9009995.925 9   8928902.913 8
  20031532.172    20031533.201    19620707.443 9 -57437961.455 6
  22340197.840    22340201.669    44692054.860 9 -41171559.194 8
 86  6 12  1 58 41.0800000  0  4G 6G13G 9G11
  21914180.199    21914182.353    41235726.586 9 -40551155.450 8
  20723955.967    20723958.289    -9015003.219 9   8925001.131 8
  20031752.881    20031753.468    19621865.051 9 -57437059.427 6
  22343119.909    22343122.885    44707407.175 9 -41159596.353 9
 86  6 12  1 58 47.0800000  0  4G 6G13G 9G11
  21917563.965    21917563.623    41253505.602 9 -40537301.679 8
  20723007.401    20723008.737    -9019991.861 9   8921113.875 8
  20031978.007    20031979.106    19623048.266 9 -57436137.432 7
  22346042.356    22346045.778    44722764.952 9 -41147629.264 8
 86  6 12  1 58 53.0800000  0  4G 6G13G 9G11
  21920949.163    21920950.937    41271301.938 9 -40523434.416 8
  20722061.461    20722063.504    -9024961.857 9   8917241.152 8
  20032208.072    20032208.999    19624257.024 8 -57435195.547 7
  22348965.763    22348969.243    44738128.169 8 -41135657.938 9
 86  6 12  1 58 59.0800000  0  4G 6G13G 9G11
  21924338.427    21924340.784    41289115.677 9 -40509553.599 8
  20721120.734    20721121.103    -9029913.199 9   8913382.972 8
  20032443.214    20032443.096    19625491.375 9 -57434233.737 6
  22351889.598    22351894.586    44753496.785 9 -41123682.383 8
 86  6 12  1 59  5.0800000  0  4G 6G13G 9G11
  21927732.220    21927734.667    41306946.769 9 -40495659.255 8
  20720180.779    20720182.766    -9034845.844 9   8909539.346 8
  20032682.726    20032684.998    19626751.304 9 -57433251.977 6
  22354816.039    22354819.854    44768870.820 9 -41111702.627 8
 86  6 12  1 59 11.0800000  0  4G 6G13G 9G11
  21931129.427    21931130.410    41324795.189 9 -40481751.394 7
  20719245.816    20719247.909    -9039759.768 9   8905710.322 7
  20032927.663    20032928.255    19628036.802 8 -57432250.290 7
  22357743.168    22357745.895    44784250.192 9 -41099718.702 9
 86  6 12  1 59 17.0800000  0  4G 6G13G 9G11
  21934529.058    21934529.853    41342660.896 9 -40467830.079 8
  20718314.952    20718316.390    -9044655.107 9   8901895.765 9
  20033177.085    20033177.619    19629348.064 8 -57431228.521 6
  22360670.789    22360674.008    44799634.917 7 -41087730.594 8
 86  6 12  1 59 23.0800000  0  4G 6G13G 9G11
  21937931.951    21937933.969    41360543.956 9 -40453895.249 9
  20717386.488    20717389.095    -9049531.850 9   8898095.704 7
  20033431.809    20033432.407    19630684.875 8 -57430186.847 7
  22363599.076    22363603.048    44815024.999 8 -41075738.344 8
 86  6 12  1 59 29.0800000  0  4G 6G13G 9G11
  21941339.291    21941340.529    41378444.252 9 -40439946.975 8
  20716461.813    20716463.262    -9054389.920 9   8894310.199 8
  20033691.164    20033691.421    19632047.347 7 -57429125.194 7
  22366528.474    22366531.865    44830420.355 9 -41063741.965 8
 86  6 12  1 59 35.0800000  0  4G 6G13G 9G11
  21944749.594    21944749.714    41396361.818 9 -40425985.239 8
  20715540.746    20715542.696    -9059229.410 9   8890539.168 8
  20033953.839    20033956.364    19633435.426 8 -57428043.580 7
                  22369461.941                   -41051741.428 8
 86  6 12  1 59 41.0800000  0  4G 6G13G 9G11
  21948160.798    21948163.017    41414296.644 9 -40412010.065 8
  20714623.565    20714625.425    -9064050.273 9   8886782.658 8
  20034222.469    20034223.506    19634849.191 8 -57426941.933 7
  22372391.342    22372394.455    44809312.022 3 -41039736.786 7
 86  6 12  1 59 47.0800000  0  4G 6G13G 9G11
  21951577.562    21951578.527    41432248.722 9 -40398021.443 7
  20713709.112    20713711.496    -9068852.532 9   8883040.640 8
  20034497.083    20034498.205    19636288.525 8 -57425820.384 6
  22375323.742    22375326.867    44824723.250 9 -41027728.038 9
 86  6 12  1 59 53.0800000  0  4G 6G13G 9G11
  21954998.208    21954998.228    41450218.050 9 -40384019.385 8
  20712798.528    20712801.147    -9073636.225 9   8879313.090 8
  20034776.846    20034778.264    19637753.595 8 -57424678.755 6
  22378257.092    22378261.319    44840139.745 8 -41015715.171 9
 86  6 12  1 59 59.0800000  0  4G 6G13G 9G11
  21958419.617    21958421.137    41468204.535 9 -40370003.958 9
  20711892.121    20711894.742    -9078401.330 9   8875600.026 8
  20035059.468    20035060.718    19639244.288 8 -57423517.184 6
  22381192.583    22381194.858    44855561.422 9 -41003698.297 9
 86  6 12  2  0  5.0800000  0  4G 6G13G 9G11
  21961845.123    21961847.065    41486208.188 9 -40355975.150 8
  20710988.435    20710990.175    -9083147.916 9   8871901.383 7
  20035348.066    20035350.536    19640760.666 8 -57422335.590 6
  22384128.583    22384131.722    44870988.312 9 -40991677.347 8
 86  6 12  2  0 11.0800000  0  4G 6G13G 9G11
  21965275.460    21965276.312    41504228.997 8 -40341932.978 8
  20710088.403    20710091.535    -9087875.953 9   8868217.203 8
  20035641.451    20035643.216    19642302.738 7 -57421134.008 7
  22387064.657    22387067.774    44886420.414 8 -40979652.345 8
 86  6 12  2  0 17.0800000  0  4G 6G13G 9G11
  21968708.490    21968707.815    41522266.985 9 -40327877.401 8
  20709193.079    20709194.436    -9092585.393 9   8864547.511 8
  20035940.963    20035940.945    19643870.457 8 -57419912.396 7
  22390002.306    22390005.331    44901857.711 9 -40967623.279 7
 86  6 12  2  0 23.0800000  0  4G 6G13G 9G11
  21972143.392    21972144.925    41540322.082 9 -40313808.525 8
  20708300.558    20708302.515    -9097276.183 9   8860892.350 8
  20036244.176    20036244.749    19645463.905 9 -57418670.747 6
  22392941.425    22392942.364    44917300.183 9 -40955590.184 8
 86  6 12  2  0 29.0800000  0  4G 6G13G 9G11
  21975581.578    21975584.445    41558394.242 9 -40299726.324 8
  20707410.453    20707413.776    -9101948.418 9   8857251.642 8
  20036552.076    20036552.225    19647082.944 8 -57417409.153 6
  22395880.081    22395883.361    44932747.831 9 -40943553.054 8
 86  6 12  2  0 35.0800000  0  4G 6G13G 9G11
  21979024.823    21979026.223    41576483.534 9 -40285630.785 8
  20706525.610    20706527.476    -9106602.066 9   8853625.433 8
  20036865.604    20036864.231    19648727.682 8 -57416127.558 5
  22398820.821    22398823.442    44948200.606 9 -40931511.940 8
 86  6 12  2  0 41.0800000  0  4G 6G13G 9G11
  21982470.121    21982472.216    41594589.877 9 -40271521.949 7
  20705643.191    20705645.670    -9111237.205 9   8850013.635 8
  20037183.325    20037184.033    19650398.169 8 -57414825.861 7
  22401762.132    22401764.857    44963658.474 7 -40919466.854 8
 86  6 12  2  0 47.0800000  0  4G 6G13G 9G11
  21985917.749    21985920.563    41612713.323 9 -40257399.800 7
  20704764.956    20704767.135    -9115853.787 9   8846416.308 8
  20037503.924    20037506.771    19652094.331 8 -57413504.184 7
  22404704.932    22404707.107    44979121.419 9 -40907417.802 7
 86  6 12  2  0 53.0800000  0  4G 6G13G 9G11
  21989370.735    21989372.263    41630853.789 9 -40243264.384 8
  20703890.848    20703892.747    -9120451.807 9   8842833.433 9
  20037833.239    20037834.575    19653816.256 8 -57412162.437 7
  22407647.623    22407651.344    44994589.428 9 -40895364.823 8
 86  6 12  2  0 59.0800000  0  4G 6G13G 9G11
  21992826.889    21992827.663    41649011.311 9 -40229115.680 8
  20703019.247    20703020.942    -9125031.313 9   8839264.982 8
  20038165.310    20038167.257    19655563.849 8 -57410800.669 7
  22410592.009    22410595.294    45010062.474 9 -40883307.897 9
 86  6 12  2  1  5.0800000  0  4G 6G13G 9G11
  21996283.951    21996286.301    41667185.875 9 -40214953.709 8
  20702151.340    20702153.521    -9129592.306 9   8835710.964 8
  20038503.325    20038504.792    19657337.185 8 -57409418.856 7
  22413537.653    22413541.428    45025540.587 9 -40871247.043 8
 86  6 12  2  1 11.0800000  0  4G 6G13G 9G11
  21999745.259    21999748.050    41685377.393 9 -40200778.502 7
  20701286.833    20701287.924    -9134134.767 9   8832171.382 8
  20038846.503    20038847.470    19659136.243 8 -57408016.999 5
  22416483.418    22416486.909    45041023.718 8 -40859182.271 8
 86  6 12  2  1 17.0800000  0  4G 6G13G 9G11
  22003211.051    22003212.245    41703585.931 9 -40186590.042 7
  20700425.922    20700427.263    -9138658.736 9   8828646.215 8
  20039193.216    20039193.236    19660961.062 8 -57406595.051 6
  22419430.533    22419434.580    45056511.899 8 -40847113.564 8
 86  6 12  2  1 23.0800000  0  4G 6G13G 9G11
  22006679.605    22006681.508    41721811.457 9 -40172388.339 8
  20699568.890    20699569.860    -9143164.227 9   8825135.445 8
  20039545.285    20039546.903    19662811.521 9 -57405153.147 7
  22422378.782    22422382.611    45072005.064 8 -40835040.967 7
 86  6 12  2  1 29.0800000  0  4G 6G13G 9G11
  22010150.073    22010152.354    41740053.941 9 -40158173.434 8
  20698715.287    20698715.770    -9147651.179 9   8821639.122 7
  20039901.513    20039901.877    19664687.872 3 -57403691.054 7
  22425328.879    22425331.962    45087503.194 8 -40822964.515 9
 86  6 12  2  1 35.0800000  0  4G 6G13G 9G11
  22013625.305    22013626.728    41758313.306 9 -40143945.379 7
  20697863.539    20697865.578    -9152119.643 9   8818157.209 8
  20040264.275    20040264.948    19666589.906 8 -57402208.962 6
  22428278.794    22428280.706    45103006.217 8 -40810884.246 8
 86  6 12  2  1 41.0800000  0  4G 6G13G 9G11
  22017102.785    22017105.542    41776589.603 9 -40129704.108 8
  20697016.728    20697019.619    -9156569.651 9   8814689.663 8
  20040631.329    20040631.415    19668517.724 8 -57400706.753 7
  22431230.174    22431233.339    45118514.173 8 -40798800.132 8
 86  6 12  2  1 47.0800000  0  4G 6G13G 9G11
  22020584.501    22020586.592    41794882.824 9 -40115449.663 8
  20696173.010    20696176.036    -9161001.199 9   8811236.518 8
  20041002.826    20041002.791    19670471.291 8 -57399184.499 6
  22434181.817    22434184.429    45134027.081 9 -40786712.158 3
 86  6 12  2  1 53.0800000  0  4G 6G13G 9G11
  22024067.764    22024071.519    41813192.969 9 -40101182.037 8
  20695334.151    20695336.775    -9165414.235 9   8807797.781 7
  20041379.972    20041379.752    19672450.640 8 -57397642.155 7
  22437135.732    22437138.537    45149544.925 9 -40774620.340 8
 86  6 12  2  1 59.0800000  0  4G 6G13G 9G11
  22027555.997    22027558.022    41831519.977 9 -40086901.264 8
  20694496.678    20694500.112    -9169808.806 9   8804373.450 9
  20041761.385    20041761.098    19674455.808 8 -57396079.694 6
  22440090.345    22440091.768    45165067.694 8 -40762524.677 8
 86  6 12  2  2  5.0800000  0  4G 6G13G 9G11
  22031047.201    22031049.600    41849863.829 9 -40072607.357 8
  20693664.978    20693667.782    -9174184.870 9   8800963.518 8
  20042147.666    20042148.249    19676486.637 9 -57394497.231 6
  22443044.902    22443045.986    45180595.343 9 -40750425.221 1
 86  6 12  2  2 11.0800000  0  4G 6G13G 9G11
  22034539.849    22034543.798    41868224.473 9 -40058300.374 7
  20692835.553    20692837.969    -9178542.484 9   8797567.983 8
  20042537.744    20042541.399    19678543.275 8 -57392894.665 6
  22445999.739    22446002.812    45196127.794 9 -40738321.994 7
 86  6 12  2  2 17.0800000  0  4G 6G13G 9G11
  22038036.879    22038040.785    41886601.914 9 -40043980.300 8
  20692010.185    20692012.117    -9182881.716 9   8794186.768 8
  20042935.392    20042935.712    19680625.726 8 -57391271.977 7
  22448956.138    22448959.523    45211665.052 8 -40726215.050 9
 86  6 12  2  2 23.0800000  0  4G 6G13G 9G11
  22041538.040    22041541.296    41904996.141 9 -40029647.159 9
  20691188.053    20691190.403    -9187202.594 9   8790819.849 8
  20043335.091    20043337.668    19682733.884 9 -57389629.257 7
  22451913.790    22451917.525    45227207.086 7 -40714104.390 8
 86  6 12  2  2 29.0800000  0  4G 6G13G 9G11
  22045042.788    22045044.439    41923407.174 9 -40015300.901 8
  20690368.635    20690370.830    -9191505.012 9   8787467.303 7
  20043740.977    20043742.189    19684867.883 8 -57387966.416 6
  22454872.754    22454875.006    45242753.959 9 -40701989.938 7
 86  6 12  2  2 35.0800000  0  4G 6G13G 9G11
  22048548.228    22048551.034    41941834.963 9 -40000941.596 8
  20689553.526    20689556.762    -9195789.135 9   8784129.048 8
  20044153.173    20044153.455    19687027.648 8 -57386283.482 6
  22457831.941    22457834.545    45258305.612 9 -40689871.780 8
 86  6 12  2  2 41.0800000  0  4G 6G13G 9G11
  22052058.272    22052060.821    41960279.473 9 -39986569.274 8
  20688742.815    20688745.230    -9200054.887 9   8780805.069 8
  20044569.294    20044570.720    19689213.182 8 -57384580.465 6
                  22460794.207                   -40677749.914 8
 86  6 12  2  2 47.0800000  0  4G 6G13G 9G11
  22055572.034    22055572.935    41978740.708 9 -39972183.907 7
  20687933.645    20687936.922    -9204302.266 9   8777495.429 8
  20044988.885    20044989.904    19691424.542 8 -57382857.321 7
  22463689.789    22463755.797    45237175.812 1 -40665624.346 8
 86  6 12  2  2 53.0800000  0  4G 6G13G 9G11
  22059087.890    22059091.123    41997218.613 9 -39957785.544 9
  20687127.984    20687131.551    -9208531.184 9   8774200.166 8
  20045415.183    20045415.878    19693661.663 8 -57381114.124 6
  22466716.315    22466718.090    45252741.520 8 -40653495.116 9
 86  6 12  2  2 59.0800000  0  4G 6G13G 9G11
  22062607.379    22062610.228    42015713.311 9 -39943374.097 8
  20686328.142    20686330.404    -9212741.587 9   8770919.348 8
  20045846.071    20045847.235    19695924.584 9 -57379350.802 7
  22469678.610    22469681.981    45268311.614 9 -40641362.172 8
 86  6 12  2  3  5.0800000  0  4G 6G13G 9G11
  22066129.582    22066132.946    42034224.657 9 -39928949.691 8
  20685530.340    20685533.098    -9216933.650 9   8767652.792 9
  20046280.827    20046283.209    19698213.371 8 -57377567.333 6
  22472642.725    22472645.028    45283886.864 9 -40629225.631 7
 86  6 12  2  3 11.0800000  0  4G 6G13G 9G11
  22069656.107    22069658.437    42052752.675 9 -39914512.283 7
  20684736.142    20684737.465    -9221107.344 9   8764400.562 8
  20046722.356    20046723.473    19700527.935 9 -57375763.788 7
  22475606.845    22475610.102    45299466.808 8 -40617085.410 8
 86  6 12  2  3 17.0800000  0  4G 6G13G 9G11
  22073184.839    22073187.116    42071297.318 9 -39900061.925 8
  20683945.921    20683948.044    -9225262.725 9   8761162.609 8
  20047166.825    20047168.433    19702868.398 8 -57373940.041 7
                  22478575.856                   -40604941.561 8
 86  6 12  2  3 23.0800000  0  4G 6G13G 9G11
  22076716.234    22076718.253    42089858.543 9 -39885598.650 9
  20683158.432    20683160.010    -9229399.795 9   8757938.924 8
  20047616.910    20047619.936    19705234.565 9 -57372096.282 6
  22481446.601    22481541.872    45271486.794 9 -40592794.115 8
 86  6 12  2  3 29.0800000  0  4G 6G13G 9G11
  22080252.225    22080254.472    42108436.350 9 -39871122.440 9
  20682374.429    20682377.183    -9233518.506 9   8754729.542 8
  20048072.812    20048073.317    19707626.599 9 -57370232.378 5
  22484506.444    22484508.308    45287080.449 9 -40580643.096 8
 86  6 12  2  3 35.0800000  0  4G 6G13G 9G11
  22083790.947    22083792.754    42127030.679 9 -39856633.368 8
  20681594.055    20681596.279    -9237618.918 9   8751534.409 9
  20048532.799    20048535.124    19710044.406 9 -57368348.367 7
  22487475.539    22487478.178    45302678.862 9 -40568488.493 9
 86  6 12  2  3 41.0800000  0  4G 6G13G 9G11
  22087332.010    22087333.716    42145641.635 9 -39842131.331 8
  20680817.670    20680820.097    -9241701.043 9   8748353.536 8
  20048998.821    20048997.748    19712488.042 9 -57366444.236 7
  22490444.135    22490447.486    45318281.900 9 -40556330.288 9
 86  6 12  2  3 47.0800000  0  4G 6G13G 9G11
  22090875.688    22090877.808    42164269.114 9 -39827616.421 7
  20680044.192    20680046.053    -9245764.925 9   8745186.876 9
  20049467.839    20049467.578    19714957.597 8 -57364519.900 6
  22493413.728    22493418.023    45333889.550 8 -40544168.507 8
 86  6 12  2  3 53.0800000  0  4G 6G13G 9G11
  22094423.105    22094426.160    42182913.124 9 -39813088.657 9
  20679273.575    20679277.018    -9249810.502 9   8742034.479 8
  20049943.205    20049944.675    19717452.932 8 -57362575.494 6
  22496385.741    22496388.348    45349501.613 9 -40532003.250 8
 86  6 12  2  3 59.0800000  0  4G 6G13G 9G11
  22097974.871    22097977.346    42201573.601 9 -39798548.027 8
  20678507.639    20678509.618    -9253837.796 9   8738896.328 8
  20050422.892    20050423.155    19719974.007 9 -57360611.023 7
  22499356.856    22499359.798    45365118.227 9 -40519834.464 8
 86  6 12  2  4  5.0800000  0  4G 6G13G 9G11
  22101528.532    22101532.522    42220250.595 9 -39783994.546 8
  20677744.555    20677747.822    -9257846.824 9   8735772.410 8
  20050907.330    20050908.210    19722520.955 8 -57358626.401 7
  22502328.589    22502332.805    45380739.379 7 -40507662.141 8
 86  6 12  2  4 11.0800000  0  4G 6G13G 9G11
  22105086.026    22105089.047    42238944.015 9 -39769428.260 8
  20676985.684    20676987.665    -9261837.558 9   8732662.745 8
  20051397.344    20051398.633    19725093.708 9 -57356621.651 6
  22505302.532    22505305.657    45396365.101 7 -40495486.276 9
 86  6 12  2  4 17.0800000  0  4G 6G13G 9G11
  22108646.268    22108649.051    42257653.914 9 -39754849.118 9
  20676229.739    20676232.029    -9265810.025 9   8729567.324 8
                  20051891.885                   -57354596.723 5
  22508277.452    22508280.303    45411995.232 8 -40483306.941 8
 86  6 12  2  4 23.0800000  0  4G 6G13G 9G11
  22112209.692    22112212.334    42276380.233 9 -39740257.193 9
  20675476.916    20675479.678    -9269764.217 9   8726486.138 8
  20052390.952    20052390.104    19691450.803 1 -57352551.735 7
  22511252.294    22511255.736    45427629.846 9 -40471124.133 8
 86  6 12  2  4 29.0800000  0  4G 6G13G 9G11
  22115776.505    22115779.142    42295123.020 9 -39725652.442 9
  20674727.595    20674730.883    -9273700.119 9   8723419.203 9
  20052895.653    20052896.964    19694101.200 8 -57350486.480 7
                  22514231.756                   -40458937.821 7
 86  6 12  2  4 35.0800000  0  4G 6G13G 9G11
  22119346.689    22119349.980    42313882.207 8 -39711034.916 8
  20673981.988    20673985.369    -9277617.782 9   8720366.478 8
  20053404.745    20053404.902    19696777.473 8 -57348401.058 7
  22517135.117    22517208.409    45406581.293 9 -40446748.069 8
 86  6 12  2  4 41.0800000  0  4G 6G13G 9G11
  22122920.048    22122921.727    42332657.786 9 -39696404.602 8
  20673240.517    20673242.582    -9281517.212 9   8717327.960 7
  20053918.841    20053919.527    19699479.554 8 -57346295.551 7
  22520183.416    22520185.422    45422229.476 7 -40434554.819 8
 86  6 12  2  4 47.0800000  0  4G 6G13G 9G11
  22126495.731    22126497.806    42351449.731 9 -39681761.546 9
  20672502.092    20672504.746    -9285398.412 9   8714303.649 8
  20054437.382    20054438.418    19702207.508 9 -57344169.869 6
  22523162.647    22523164.404    45437881.898 9 -40422358.129 9
 86  6 12  2  4 53.0800000  0  4G 6G13G 9G11
  22130074.369    22130076.609    42370258.054 9 -39667105.730 8
  20671767.045    20671769.080    -9289261.415 9   8711293.521 9
  20054962.533    20054963.786    19704961.318 8 -57342024.046 6
  22526140.584    22526144.036    45453538.697 8 -40410158.036 8
 86  6 12  2  4 59.0800000  0  4G 6G13G 9G11
  22133657.351    22133659.173    42389082.668 9 -39652437.197 9
  20671035.441    20671037.657    -9293106.236 9   8708297.558 9
  20055490.798    20055489.638    19707740.959 9 -57339858.108 6
  22529121.802    22529123.287    45469199.817 9 -40397954.566 8
 86  6 12  2  5  5.0800000  0  4G 6G13G 9G11
  22137241.628    22137244.835    42407923.602 9 -39637755.970 8
  20670308.095    20670309.833    -9296932.760 9   8705315.853 8
  20056025.188    20056025.537    19710546.590 9 -57337671.908 6
  22532101.966    22532104.309    45484865.324 9 -40385747.684 8
 86  6 12  2  5 11.0800000  0  4G 6G13G 9G11
  22140830.625    22140833.695    42426780.829 9 -39623062.047 8
  20669582.047    20669584.392    -9300741.098 9   8702348.313 8
  20056563.749    20056563.946    19713378.049 9 -57335465.562 7
  22535084.992    22535086.895    45500535.132 9 -40373537.442 8
 86  6 12  2  5 17.0800000  0  4G 6G13G 9G11
  22144423.185    22144424.313    42445654.318 9 -39608355.443 8
  20668860.955    20668863.007    -9304531.244 9   8699394.958 8
  20057106.510    20057106.768    19716235.425 8 -57333239.041 7
                  22538069.477                   -40361323.983 1
 86  6 12  2  5 23.0800000  0  4G 6G13G 9G11
  22148016.967    22148019.309    42464544.146 9 -39593636.105 9
  20668143.162    20668146.406    -9308303.165 9   8696455.797 8
  20057656.346    20057655.431    19719118.702 9 -57330992.343 6
                  22541052.709                   -40349106.915 8
 86  6 12  2  5 29.0800000  0  4G 6G13G 9G11
  22151614.725    22151618.426    42483450.187 9 -39578904.155 8
  20667428.821    20667431.177    -9312056.889 9   8693530.817 8
  20058210.900    20058210.007    19722027.835 9 -57328725.485 6
  22544033.869    22544037.454    45487278.919 8 -40336885.557 1
 86  6 12  2  5 35.0800000  0  4G 6G13G 9G11
  22155215.539    22155216.919    42502372.478 9 -39564159.511 8
  20666718.182    20666720.259    -9315792.487 9   8690619.964 8
  20058767.780    20058768.381    19724962.784 8 -57326438.498 6
                  22547023.067                   -40324647.552 7
 86  6 12  2  5 41.0800000  0  4G 6G13G 9G11
  22158819.767    22158820.484    42521310.981 9 -39549402.259 7
  20666011.140    20666012.306    -9319509.904 9   8687723.283 9
  20059331.983    20059332.814    19727923.750 9 -57324131.269 7
  22549904.621    22550007.147    45438368.552 8 -40312421.186 8
 86  6 12  2  5 47.0800000  0  4G 6G13G 9G11
  22162426.137    22162429.679    42540265.686 9 -39534632.374 8
  20665306.527    20665307.496    -9323209.238 9   8684840.686 8
  20059899.171    20059902.054    19730910.536 9 -57321803.908 6
  22552992.087    22552995.155    45454063.826 9 -40300191.032 9
 86  6 12  2  5 53.0800000  0  4G 6G13G 9G11
  22166036.207    22166038.543    42559236.532 9 -39519849.895 8
  20664606.502    20664607.419    -9326890.448 9   8681972.218 7
  20060472.879    20060472.282    19733923.297 8 -57319456.307 6
  22555979.480    22555982.903    45469763.484 9 -40287957.524 9
 86  6 12  2  5 59.0800000  0  4G 6G13G 9G11
  22169649.728    22169651.766    42578223.525 9 -39505054.851 8
  20663909.021    20663911.142    -9330553.551 9   8679117.842 8
  20061050.250    20061052.999    19736961.894 8 -57317088.571 6
  22558967.148    22558970.127    45485467.333 7 -40275720.768 8
 86  6 12  2  6  5.0800000  0  4G 6G13G 9G11
  22173266.568    22173268.156    42597226.671 9 -39490247.224 8
  20663215.209    20663217.266    -9334198.493 9   8676277.626 8
  20061634.552    20061635.364    19740026.456 8 -57314700.598 6
  22561956.630    22561959.787    45501175.366 9 -40263480.750 6
 86  6 12  2  6 11.0800000  0  4G 6G13G 9G11
  22176884.548    22176887.311    42616245.953 9 -39475427.015 9
  20662525.455    20662526.930    -9337825.248 9   8673451.582 7
  20062222.665    20062224.310    19743116.898 8 -57312292.473 7
  22564946.988    22564950.079    45516887.594 8 -40251237.459 8
 86  6 12  2  6 17.0800000  0  4G 6G13G 9G11
  22180505.964    22180509.114    42635281.325 9 -39460594.275 7
  20661839.288    20661840.036    -9341433.950 9   8670639.605 8
  20062817.009    20062816.224    19746233.183 9 -57309864.195 6
  22567937.958    22567940.837    45532603.988 9 -40238990.917 9
 86  6 12  2  6 23.0800000  0  4G 6G13G 9G11
  22184131.993    22184134.724    42654332.756 9 -39445749.019 7
  20661155.308    20661156.977    -9345024.597 9   8667841.705 9
  20063413.614    20063415.102    19749375.452 8 -57307415.658 6
  22570930.079    22570932.569    45548324.562 9 -40226741.122 8
 86  6 12  2  6 29.0800000  0  4G 6G13G 9G11
  22187760.492    22187763.781    42673400.287 9 -39430891.226 9
  20660476.280    20660477.921    -9348597.161 9   8665057.888 8
  20064016.557    20064018.294    19752543.610 8 -57304946.980 6
  22573921.753    22573925.454    45564049.258 9 -40214488.120 9
 86  6 12  2  6 35.0800000  0  4G 6G13G 9G11
  22191391.544    22191393.573    42692483.878 9 -39416020.900 8
  20659799.016    20659801.041    -9352151.621 9   8662288.178 8
  20064624.057    20064624.078    19755737.774 7 -57302458.024 6
  22576915.053    22576917.717    45579778.108 9 -40202231.864 8
 86  6 12  2  6 41.0800000  0  4G 6G13G 9G11
  22195026.015    22195029.702    42711583.482 9 -39401138.102 8
  20659127.171    20659128.878    -9355687.990 9   8659532.573 7
  20065237.107    20065236.093    19758957.783 9 -57299948.932 7
  22579909.406    22579911.406    45595511.029 8 -40189972.446 9
 86  6 12  2  6 47.0800000  0  4G 6G13G 9G11
  22198664.120    22198667.720    42730699.083 9 -39386242.852 8
  20658457.246    20658459.326    -9359206.282 9   8656791.050 8
  20065854.651    20065855.146    19762203.751 8 -57297419.593 6
  22582904.085    22582906.235    45611248.018 9 -40177709.864 8
 86  6 12  2  6 53.0800000  0  4G 6G13G 9G11
  22202304.551    22202307.132    42749830.684 9 -39371335.126 9
  20657791.598    20657792.858    -9362706.534 9   8654063.592 8
  20066477.034    20066478.705    19765475.638 8 -57294870.088 6
  22585899.474    22585902.399    45626988.999 9 -40165444.181 8
 86  6 12  2  6 59.0800000  0  4G 6G13G 9G11
  22205948.415    22205952.469    42768978.189 8 -39356415.011 9
  20657128.179    20657129.370    -9366188.798 9   8651350.132 9
  20067104.029    20067107.440    19768773.437 9 -57292300.387 6
  22588895.390    22588898.200    45642734.014 9 -40153175.329 9
 86  6 12  2  7  5.0800000  0  4G 6G13G 9G11
  22209594.338    22209598.303    42788141.709 9 -39341482.420 8
  20656468.812    20656469.999    -9369652.976 9   8648650.769 8
  20067736.453    20067736.434    19772097.176 9 -57289710.456 6
  22591891.529    22591895.367    45658483.065 8 -40140903.355 8
 86  6 12  2  7 11.0800000  0  4G 6G13G 9G11
  22213244.415    22213248.161    42807321.161 9 -39326537.397 8
  20655812.980    20655815.395    -9373099.146 9   8645965.453 9
                  20068374.376                   -57287105.940 1
  22594889.911    22594892.344    45674236.123 7 -40128628.243 9
 86  6 12  2  7 17.0800000  0  4G 6G13G 9G11
  22216898.151    22216900.509    42826516.497 9 -39311579.993 8
  20655160.913    20655163.502    -9376527.226 9   8643294.226 8
                  20068504.341                   -17995914.069 1
  22597888.872    22597891.110    45689993.174 7 -40116350.028 9
 86  6 12  2  7 23.0800000  0  4G 6G13G 9G11
  22220553.165    22220556.115    42845727.730 9 -39296610.221 8
  20654511.299    20654514.063    -9379937.342 9   8640636.990 8
                  20069662.563                   -18025406.490 1
  22600886.441    22600890.583    45705754.158 9 -40104068.748 9
 86  6 12  2  7 29.0800000  0  4G 6G13G 9G11
  22224212.220    22224214.837    42864954.887 9 -39281628.033 8
  20653866.418    20653867.910    -9383329.479 9   8637993.774 7
                  20070291.553                   -18065507.553 1
  22603887.640    22603890.139    45721519.075 7 -40091784.406 8
 86  6 12  2  7 35.0800000  0  4G 6G13G 9G11
  22227874.695    22227877.434    42884197.893 9 -39266633.501 9
  20653223.534    20653226.602    -9386703.636 9   8635364.559 8
                  20070973.595                   -18062077.206 7
  22606888.552    22606890.644    45737287.909 7 -40079497.012 7
 86  6 12  2  7 41.0800000  0  4G 6G13G 9G11
  22231539.107    22231541.082    42903456.715 8 -39251626.624 8
  20652585.563    20652587.843    -9390059.845 9   8632749.333 8
                  20071635.786                   -18058597.748 8
  22609890.089    22609892.295    45753060.644 9 -40067206.575 9
 86  6 12  2  7 47.0800000  0  4G 6G13G 9G11
  22235206.901    22235209.893    42922731.318 9 -39236607.468 8
  20651949.561    20651952.921    -9393398.055 9   8630148.131 9
  20072302.396    20072306.076   -18055092.512 8  22987899.344 1
  22612892.552    22612895.772    45768837.309 8 -40054913.067 8
 86  6 12  2  7 53.0800000  0  4G 6G13G 9G11
  22238877.290    22238881.447    42942021.783 9 -39221575.957 8
  20651318.252    20651320.577    -9396718.162 9   8627561.036 8
  20072975.499    20072976.455   -18051561.267 8  22990650.949 6
  22615895.153    22615897.454    45784617.902 9 -40042616.504 9
 86  6 12  2  7 59.0800000  0  4G 6G13G 9G11
  22242551.715    22242554.801    42961328.020 9 -39206532.152 9
  20650689.156    20650692.226    -9400020.402 9   8624987.870 8
  20073652.382    20073652.276   -18048004.143 8  22993423.244 7
  22618897.960    22618901.236    45800402.356 9 -40030316.932 7
 86  6 12  2  8  5.0800000  0  4G 6G13G 9G11
  22246229.353    22246231.356    42980650.005 9 -39191476.065 8
  20650064.029    20650067.310    -9403304.648 9   8622428.721 8
  20074333.995    20074334.842   -18044421.040 9  22996215.276 6
  22621902.890    22621905.060    45816190.614 9 -40018014.389 6
 86  6 12  2  8 11.0800000  0  4G 6G13G 9G11
  22249907.947    22249910.216    42999987.793 9 -39176407.665 9
  20649442.752    20649445.670    -9406570.941 9   8619883.556 9
  20075020.399    20075020.541   -18040811.958 8  22999027.542 7
  22624907.237    22624911.152    45831982.678 9 -40005708.887 6
 86  6 12  2  8 17.0800000  0  4G 6G13G 9G11
  22253591.532    22253594.580    43019341.318 9 -39161327.013 8
  20648824.309    20648827.947    -9409819.310 9   8617352.364 9
  20075713.250    20075712.325   -18037176.969 9  23001860.000 7
  22627914.267    22627916.336    45847778.539 9 -39993400.441 8
 86  6 12  2  8 23.0800000  0  4G 6G13G 9G11
  22257277.304    22257280.157    43038710.541 9 -39146234.121 8
  20648209.688    20648212.039    -9413049.784 9   8614835.107 8
  20076408.648    20076408.860   -18033516.016 8  23004712.691 7
  22630920.806    22630922.884    45863578.215 7 -39981089.012 8
 86  6 12  2  8 29.0800000  0  4G 6G13G 9G11
  22260966.461    22260969.259    43058095.447 8 -39131129.016 9
  20647598.272    20647600.608    -9416262.329 9   8612331.837 8
  20077109.874    20077110.959   -18029829.049 9  23007585.652 7
  22633927.477    22633930.456    45879381.684 9 -39968774.618 7
 86  6 12  2  8 35.0800000  0  4G 6G13G 9G11
  22264657.381    22264660.037    43077496.053 9 -39116011.663 8
  20646990.624    20646993.674    -9419456.977 9   8609842.479 8
  20077817.427    20077817.648   -18026116.148 8  23010478.811 6
  22636935.842    22636938.391    45895188.929 9 -39956457.291 7
 86  6 12  2  8 41.0800000  0  4G 6G13G 9G11
  22268351.490    22268354.802    43096912.296 9 -39100882.141 8
  20646386.700    20646389.807    -9422633.752 9   8607367.081 9
  20078528.555    20078529.918   -18022377.336 9  23013392.157 6
  22639943.508    22639946.793    45910999.886 1 -39944137.070 9
 86  6 12  2  8 47.0800000  0  4G 6G13G 9G11
  22272050.077    22272051.954    43116344.196 9 -39085740.428 9
  20645785.116    20645788.415    -9425792.678 9   8604905.584 8
  20079244.473    20079244.682   -18018612.568 8  23016325.757 6
  22642953.715    22642957.235    45926814.595 9 -39931813.922 8
 86  6 12  2  8 53.0800000  0  4G 6G13G 9G11
  22275751.513    22275754.265    43135791.735 9 -39070586.491 9
  20645187.913    20645189.775    -9428933.597 9   8602458.071 7
  20079966.266    20079967.842   -18014821.670 8  23019279.686 6
  22645963.293    22645967.529    45942633.121 9 -39919487.812 9
 86  6 12  2  8 59.0800000  0  4G 6G13G 9G11
  22279454.961    22279457.790    43155254.860 9 -39055420.445 8
  20644593.046    20644596.517    -9432056.798 9   8600024.454 8
  20080691.772    20080691.819   -18011004.947 8  23022253.762 6
  22648973.621    22648977.937    45958455.305 8 -39907158.853 8
 86  6 12  2  9  5.0800000  0  4G 6G13G 9G11
  22283161.702    22283164.304    43174733.548 9 -39040242.271 8
  20644002.174    20644004.518    -9435162.190 9   8597604.673 9
  20081423.525    20081423.753   -18007162.327 8  23025248.027 6
  22651986.055    22651989.220    45974281.107 9 -39894827.056 9
 86  6 12  2  9 11.0800000  0  4G 6G13G 9G11
  22286872.190    22286873.599    43194227.792 9 -39025051.956 7
  20643414.470    20643417.302    -9438249.753 6   8595198.784 8
  20082160.764    20082161.365   -18003293.653 8  23028262.550 7
  22654999.245    22655001.574    45990110.600 7 -39882492.395 9
 86  6 12  2  9 17.0800000  0  4G 6G13G 9G11
  22290584.328    22290587.031    43213737.567 9 -39009849.544 8
  20642830.713    20642833.315    -9441319.469 9   8592806.802 8
  20082901.360    20082901.591   -17999399.052 8  23031297.305 7
  22658011.444    22658014.875    46005943.736 7 -39870154.896 8
 86  6 12  2  9 23.0800000  0  4G 6G13G 9G11
  22294299.566    22294302.596    43233262.878 9 -38994635.027 9
  20642250.319    20642252.278    -9444371.344 9   8590428.717 8
  20083647.509    20083647.910   -17995478.417 8  23034352.332 7
  22661024.748    22661029.299    46021780.512 9 -39857814.554 5
 86  6 12  2  9 29.0800000  0  4G 6G13G 9G11
  22298017.093    22298021.294    43252803.721 9 -38979408.421 9
  20641673.168    20641675.993    -9447405.323 9   8588064.580 8
  20084399.067    20084399.530   -17991531.927 8  23037427.539 6
  22664040.250    22664043.338    46037620.939 8 -39845471.387 8
 86  6 12  2  9 35.0800000  0  4G 6G13G 9G11
  22301739.396    22301743.093    43272360.055 9 -38964169.742 8
  20641098.883    20641101.936    -9450421.451 9   8585714.353 8
  20085153.543    20085154.661   -17987559.341 9  23040523.040 7
  22667054.253    22667056.914    46053464.975 8 -39833125.376 9
 86  6 12  2  9 41.0800000  0  4G 6G13G 9G11
  22305463.831    22305465.675    43291931.890 9 -38948918.966 8
  20640529.158    20640531.030    -9453419.670 9   8583378.079 8
  20085914.620    20085915.863   -17983560.881 8  23043638.728 6
  22670070.842    22670073.775    46069312.631 9 -39820776.561 9
 86  6 12  2  9 47.0800000  0  4G 6G13G 9G11
  22309191.685    22309191.871    43311519.146 9 -38933656.178 8
  20639961.864    20639964.214    -9456400.217 9   8581055.571 9
  20086680.295    20086681.972   -17979536.456 8  23046774.646 7
  22673087.019    22673090.285    46085163.846 8 -39808424.965 8
 86  6 12  2  9 53.0800000  0  4G 6G13G 9G11
  22312920.805    22312924.043    43331121.868 9 -38918381.358 8
  20639397.548    20639400.971    -9459363.045 9   8578746.879 9
  20087450.303    20087451.828   -17975486.043 8  23049930.815 1
  22676102.796    22676106.245    46101018.641 9 -39796070.583 9
 86  6 12  2  9 59.0800000  0  4G 6G13G 9G11
  22316654.071    22316657.032    43350739.992 9 -38903094.524 9
  20638836.800    20638840.826    -9462308.091 9   8576452.038 8
                  20088226.233   -17971409.678 7
  22679121.349    22679123.805    46116876.998 9 -39783713.434 8
 86  6 12  2 10  5.0800000  0  4G 6G13G 9G11
  22320391.056    22320393.334    43370373.479 9 -38887795.709 7
  20638279.301    20638282.540    -9465235.375 9   8574171.030 9
  20089008.792    20089007.281   -17967307.279 8  23099291.866 3
  22682140.068    22682143.250    46132738.883 8 -39771353.530 9
 86  6 12  2 10 11.0800000  0  4G 6G13G 9G11
  22324129.624    22324132.163    43390022.370 8 -38872484.899 7
  20637726.209    20637729.809    -9468144.846 9   8571903.919 9
  20089793.796    20089795.575   -17963178.915 9  23102508.780 7
  22685159.376    22685161.342    46148604.295 9 -39758990.884 8
 86  6 12  2 10 17.0800000  0  4G 6G13G 9G11
  22327870.761    22327874.336    43409686.613 9 -38857162.122 8
  20637176.252    20637179.223    -9471036.619 9   8569650.588 8
  20090583.598    20090584.205   -17959024.607 9  23105745.899 7
  22688178.358    22688181.912    46164473.196 7 -39746625.501 8
 86  6 12  2 10 23.0800000  0  4G 6G13G 9G11
  22331616.399    22331618.786    43429366.201 8 -38841827.397 8
  20636628.694    20636632.486    -9473910.675 9   8567411.079 9
  20091380.849    20091379.880   -17954844.350 8  23109003.238 6
  22691198.954    22691201.215    46180345.527 9 -39734257.445 9
 86  6 12  2 10 29.0800000  0  4G 6G13G 9G11
  22335365.736    22335367.377    43449061.116 9 -38826480.713 9
  20636085.018    20636088.402    -9476767.041 9   8565185.336 9
  20092179.654    20092181.343   -17950638.092 9  23112280.836 7
  22694220.334    22694223.247    46196221.311 8 -39721886.722 7
 86  6 12  2 10 35.0800000  0  4G 6G13G 9G11
  22339115.085    22339118.249    43468771.336 9 -38811122.119 8
  20635544.906    20635548.181    -9479605.674 9   8562973.411 9
  20092985.147    20092984.661   -17946405.863 8  23115578.674 6
  22697242.173    22697245.003    46212100.574 9 -39709513.279 9
 86  6 12  2 10 41.0800000  0  4G 6G13G 9G11
  22342868.844    22342870.569    43488496.813 9 -38795751.628 7
  20635007.669    20635010.356    -9482426.681 8   8560775.220 9
  20093795.096    20093796.681   -17942147.677 7  23118896.745 6
  22700263.993    22700267.070    46227983.247 9 -39697137.164 9
 86  6 12  2 10 47.0800000  0  4G 6G13G 9G11
  22346625.494    22346628.057    43508237.575 9 -38780369.244 8
  20634474.139    20634476.956    -9485229.998 9   8558590.826 8
  20094610.798    20094611.975   -17937863.520 8  23122235.040 7
  22703287.852    22703290.267    46243869.340 9 -39684758.396 1
 86  6 12  2 10 53.0800000  0  4G 6G13G 9G11
  22350384.980    22350386.779    43527993.556 9 -38764974.969 8
  20633944.610    20633947.008    -9488015.601 9   8556420.234 9
  20095430.285    20095433.252   -17933553.378 9  23125593.581 7
  22706311.121    22706313.925    46259758.838 9 -39672376.980 8
 86  6 12  2 10 59.0800000  0  4G 6G13G 9G11
  22354148.250    22354149.299    43547764.793 9 -38749568.823 8
  20633417.195    20633420.404    -9490783.514 9   8554263.410 9
  20096256.325    20096257.510   -17929217.262 8  23128972.367 7
  22709334.842    22709339.115    46275651.710 7 -39659992.919 6
 86  6 12  2 11  5.0800000  0  4G 6G13G 9G11
  22357912.400    22357914.931    43567551.232 9 -38734150.836 7
  20632894.407    20632897.149    -9493533.759 9   8552120.372 9
  20097085.935    20097088.750   -17924855.108 8  23132371.432 7
  22712360.876    22712363.591    46291547.975 7 -39647606.218 9
 86  6 12  2 11 11.0800000  0  4G 6G13G 9G11
  22361680.068    22361683.163    43587352.877 9 -38718720.992 8
  20632374.049    20632377.151    -9496266.356 9   8549991.075 9
  20097920.857    20097922.341   -17920467.026 8  23135790.740 7
  22715386.342    22715388.618    46307447.610 8 -39635216.924 7
 86  6 12  2 11 17.0800000  0  4G 6G13G 9G11
  22365451.400    22365454.652    43607169.735 9 -38703279.310 7
  20631858.141    20631860.248    -9498981.250 9   8547875.567 8
  20098760.731    20098762.145   -17916052.951 7  23139230.270 7
  22718412.496    22718414.929    46323350.564 9 -39622825.005 8
 86  6 12  2 11 23.0800000  0  4G 6G13G 9G11
  22369225.620    22369228.108    43627001.693 9 -38687825.839 8
  20631344.339    20631346.469    -9501678.550 9   8545773.787 9
  20099606.004    20099607.086   -17911612.898 7  23142690.050 7
  22721438.684    22721441.875    46339256.841 9 -39610430.519 9
 86  6 12  2 11 29.0800000  0  4G 6G13G 9G11
  22373002.674    22373005.212    43646848.754 9 -38672360.608 7
  20630834.490    20630837.519    -9504358.227 9   8543685.720 7
  20100456.371    20100457.926   -17907146.853 8  23146170.080 6
  22724467.385    22724469.194    46355166.387 9 -39598033.479 9
 86  6 12  2 11 35.0800000  0  4G 6G13G 9G11
  22376781.304    22376785.275    43666710.900 9 -38656883.629 8
  20630329.055    20630331.206    -9507020.259 9   8541611.427 8
  20101310.324    20101310.249   -17902654.892 8  23149670.299 7
  22727494.993    22727497.534    46371079.181 9 -39585633.898 8
 86  6 12  2 11 41.0800000  0  4G 6G13G 9G11
  22380564.299    22380567.449    43686588.135 8 -38641394.895 8
  20629825.136    20629827.464    -9509664.657 9   8539550.860 8
  20102170.049    20102171.528   -17898136.916 8  23153190.798 6
  22730523.745    22730527.142    46386995.207 9 -39573231.805 8
 86  6 12  2 11 47.0800000  0  4G 6G13G 9G11
  22384350.123    22384353.693    43706480.442 9 -38625894.417 7
  20629324.543    20629326.869    -9512291.466 9   8537503.987 8
  20103034.669    20103036.525   -17893593.025 8  23156731.519 5
  22733553.047    22733555.102    46402914.476 9 -39560827.152 8
 86  6 12  2 11 53.0800000  0  4G 6G13G 9G11
  22388139.334    22388141.259    43726387.785 9 -38610382.184 7
  20628828.834    20628831.484    -9514900.739 9   8535470.791 8
  20103905.602    20103906.569   -17889023.059 8  23160292.503 2
  22736582.778    22736585.817    46418837.058 9 -39548419.979 7
 86  6 12  2 11 59.0800000  0  4G 6G13G 9G11
  22391928.496    22391931.163    43746310.145 9 -38594858.293 9
  20628335.377    20628337.622    -9517492.473 9   8533451.265 8
  20104780.391    20104780.588   -17884427.196 8  23163873.688 6
  22739613.368    22739616.241    46434762.798 9 -39536010.318 8
 86  6 12  2 12  5.0800000  0  4G 6G13G 9G11
  22395722.831    22395726.705    43766247.544 9 -38579322.658 9
  20627845.106    20627848.128    -9520066.587 9   8531445.465 9
  20105658.938    20105658.851   -17879805.385 8  23167475.115 6
  22742644.507    22742646.370    46450691.769 7 -39523598.140 8
 86  6 12  2 12 11.0800000  0  4G 6G13G 9G11
  22399520.174    22399523.845    43786199.898 9 -38563775.390 8
  20627358.434    20627360.652    -9522623.165 9   8529453.330 8
  20106543.532    20106545.191   -17875157.610 8  23171096.742 6
  22745676.332    22745680.013    46466623.948 8 -39511183.472 9
 86  6 12  2 12 17.0800000  0  4G 6G13G 9G11
  22403320.467    22403323.868    43806167.282 8 -38548216.393 8
  20626876.147    20626878.881    -9525162.188 9   8527474.876 9
  20107432.096    20107433.679   -17870483.780 8  23174738.688 5
  22748708.336    22748712.016    46482559.323 8 -39498766.296 8
 86  6 12  2 12 23.0800000  0  4G 6G13G 9G11
  22407122.560    22407124.998    43826149.615 9 -38532645.762 8
  20626396.370    20626398.876    -9527683.683 9   8525510.072 8
  20108326.640    20108328.417   -17865783.945 9  23178400.901 6
  22751742.772    22751744.841    46498497.851 7 -39486346.680 9
 86  6 12  2 12 29.0800000  0  4G 6G13G 9G11
  22410927.198    22410930.319    43846146.951 9 -38517063.427 8
  20625920.239    20625922.434    -9530187.633 9   8523558.942 8
  20109226.039    20109227.841   -17861058.100 8  23182083.358 7
  22754775.325    22754775.336    46514439.507 8 -39473924.603 9
 86  6 12  2 12 35.0800000  0  4G 6G13G 9G11
  22414735.896    22414739.017    43866159.155 9 -38501469.516 8
  20625445.829    20625449.748    -9532674.083 9   8521621.456 8
  20110130.160    20110131.877   -17856306.249 8  23185786.110 6
  22757809.096    22757811.426    46530384.328 9 -39461500.086 8
 86  6 12  2 12 41.0800000  0  4G 6G13G 9G11
  22418547.816    22418549.882    43886186.266 9 -38485863.981 9
  20624976.134    20624979.661    -9535142.999 9   8519697.627 8
  20111039.320    20111039.564   -17851528.546 8  23189508.999 7
  22760844.351    22760846.432    46546332.269 7 -39449073.116 7
 86  6 12  2 12 47.0800000  0  4G 6G13G 9G11
  22422360.529    22422364.411    43906228.265 9 -38470246.863 9
  20624510.892    20624512.832    -9537594.424 9   8517787.425 8
  20111953.676    20111954.761   -17846724.755 8  23193252.198 6
  22763879.473    22763883.280    46562283.262 7 -39436643.784 8
 86  6 12  2 12 53.0800000  0  4G 6G13G 9G11
  22426177.275    22426179.961    43926285.182 1 -38454618.152 8
  20624046.882    20624049.647    -9540028.267 9   8515890.925 8
  20112873.225    20112875.190   -17841895.067 8  23197015.597 7
  22766915.924    22766918.986    46578237.366 8 -39424212.019 8
 86  6 12  2 12 59.0800000  0  4G 6G13G 9G11
  22429996.508    22429999.636    43946356.834 9 -38438977.878 9
  20623587.487    20623589.552    -9542444.572 9   8514008.087 9
  20113796.091    20113798.386   -17837039.391 8  23200799.229 7
  22769952.226    22769954.862    46594194.603 7 -39411777.826 8
 86  6 12  2 13  5.0800000  0  4G 6G13G 9G11
  22433819.781    22433822.978    43966443.396 9 -38423326.012 9
  20623130.891    20623132.976    -9544843.465 9   8512138.821 9
  20114725.895    20114727.662   -17832157.680 7  23204603.159 6
  22772989.719    22772992.512    46610154.891 9 -39399341.235 7
 86  6 12  2 13 11.0800000  0  4G 6G13G 9G11
  22437644.829    22437647.727    43986544.752 9 -38407662.631 7
  20622678.179    20622679.864    -9547224.961 9   8510283.122 8
  20115659.703    20115661.062   -17827250.022 8  23208427.301 7
  22776026.948    22776029.552    46626118.214 9 -39386902.284 8
 86  6 12  2 13 17.0800000  0  4G 6G13G 9G11
  22441471.477    22441476.319    44006660.890 9 -38391987.741 8
  20622227.526    20622229.785    -9549588.955 9   8508441.047 8
  20116599.521    20116599.922   -17822316.317 9  23212271.735 7
  22779065.018    22779065.430    46642084.551 9 -39374460.986 8
 86  6 12  2 13 23.0800000  0  4G 6G13G 9G11
  22445302.992    22445307.115    44026791.806 9 -38376301.332 9
  20621781.222    20621784.306    -9551935.590 9   8506612.496 8
  20117542.878    20117542.989   -17817356.701 8  23216136.379 7
  22782104.359    22782106.646    46658053.942 9 -39362017.312 8
 86  6 12  2 13 29.0800000  0  4G 6G13G 9G11
  22449137.072    22449139.382    44046937.474 9 -38360603.421 8
  20621338.205    20621339.812    -9554264.814 9   8504797.520 9
  20118493.180    20118490.824   -17812371.111 9  23220021.245 7
  22785144.410    22785145.818    46674026.309 8 -39349571.313 9
 86  6 12  2 13 35.0800000  0  4G 6G13G 9G11
  22452973.943    22452976.715    44067097.842 9 -38344894.044 9
  20620897.950    20620899.545    -9556576.536 9   8502996.180 7
  20119444.513    20119445.744   -17807359.636 8  23223926.289 7
  22788183.419    22788186.047    46690001.666 9 -39337122.983 8
 86  6 12  2 13 41.0800000  0  4G 6G13G 9G11
  22456811.724    22456815.168    44087272.938 9 -38329173.200 8
  20620461.520    20620463.691    -9558870.857 9   8501208.397 9
  20120403.888    20120405.665   -17802322.107 8  23227851.636 6
  22791224.741    22791228.014    46705980.072 9 -39324672.276 9
 86  6 12  2 13 47.0800000  0  4G 6G13G 9G11
  22460653.720    22460657.734    44107462.754 9 -38313440.892 8
  20620028.466    20620030.525    -9561147.746 9   8499434.201 8
  20121366.429    20121367.841   -17797258.538 7  23231797.273 7
  22794264.952    22794269.087    46721961.478 8 -39312219.233 7
 86  6 12  2 13 53.0800000  0  4G 6G13G 9G11
  22464499.308    22464502.851    44127667.204 9 -38297697.200 9
  20619597.391    20619600.712    -9563407.248 8   8497673.552 9
  20122335.620    20122337.795   -17792168.984 9  23235763.141 8
  22797307.744    22797310.537    46737945.745 9 -39299763.958 6
 86  6 12  2 13 59.0800000  0  4G 6G13G 9G11
  22468347.310    22468350.143    44147886.283 9 -38281942.069 8
  20619170.961    20619173.576    -9565649.392 9   8495926.435 8
  20123308.216    20123311.945   -17787053.620 8  23239749.155 6
  22800349.925    22800351.830    46753932.886 8 -39287306.463 9
 86  6 12  2 14  5.0800000  0  4G 6G13G 9G11
  22472197.419    22472200.051    44168120.027 9 -38266175.528 7
  20618747.625    20618749.706    -9567874.063 9   8494192.917 8
  20124285.744    20124288.793   -17781912.103 8  23243755.517 6
  22803393.055    22803395.891    46769922.928 9 -39274846.693 8
 86  6 12  2 14 11.0800000  0  4G 6G13G 9G11
  22476049.486    22476052.895    44188368.358 9 -38250397.627 8
  20618327.240    20618330.935    -9570081.332 9   8492472.967 9
  20125270.960    20125271.619   -17776744.765 8  23247782.011 8
  22806436.093    22806438.686    46785915.837 9 -39262384.693 8
 86  6 12  2 14 17.0800000  0  4G 6G13G 9G11
  22479905.175    22479909.394    44208631.313 9 -38234608.321 9
  20617909.895    20617912.882    -9572271.252 9   8490766.545 9
  20126258.047    20126259.822   -17771551.340 7  23251828.842 7
  22809479.904    22809482.801    46801911.601 9 -39249920.433 6
 86  6 12  2 14 23.0800000  0  4G 6G13G 9G11
  22483765.139    22483767.112    44228908.823 9 -38218807.677 8
  20617496.956    20617501.349    -9574443.839 9   8489073.623 9
  20127252.308    20127254.234   -17766332.034 8  23255895.817 6
  22812524.237    22812525.739    46817910.258 9 -39237453.995 6
 86  6 12  2 14 29.0800000  0  4G 6G13G 9G11
  22487626.442    22487628.746    44249200.861 9 -38202995.716 8
  20617086.997    20617090.367    -9576599.106 9   8487394.190 9
  20128249.696    20128251.338   -17761086.764 8  23259983.046 7
  22815569.176    22815572.020    46833911.702 8 -39224985.328 9
 86  6 12  2 14 35.0800000  0  4G 6G13G 9G11
  22491489.266    22491493.707    44269507.440 9 -38187172.434 9
  20616679.710    20616683.668    -9578737.071 8   8485728.245 9
  20129252.628    20129254.325   -17755815.453 8  23264090.553 6
  22818614.389    22818617.114    46849915.967 8 -39212514.486 9
 86  6 12  2 14 41.0800000  0  4G 6G13G 9G11
  22495355.200    22495358.963    44289828.531 9 -38171337.831 8
  20616276.458    20616280.435    -9580857.840 9   8484075.700 8
  20130261.816    20130262.219   -17750518.273 8  23268218.232 6
  22821662.597    22821663.123    46865923.039 9 -39200041.441 9
 86  6 12  2 14 47.0800000  0  4G 6G13G 9G11
  22499227.052    22499230.230    44310164.094 9 -38155491.947 8
  20615877.066    20615879.781    -9582961.250 9   8482436.681 8
  20131274.193    20131275.810   -17745195.138 8  23272366.121 6
  22824707.174    22824710.311    46881932.912 9 -39187566.197 9
 86  6 12  2 14 53.0800000  0  4G 6G13G 9G11
  22503100.797    22503102.657    44330514.116 9 -38139634.799 8
  20615479.852    20615483.365    -9585047.372 9   8480811.125 9
  20132292.570    20132293.695   -17739846.072 8  23276534.228 8
  22827754.214    22827756.789    46897945.576 9 -39175088.829 8
 86  6 12  2 14 59.0800000  0  4G 6G13G 9G11
  22506974.957    22506977.966    44350878.579 9 -38123766.400 9
  20615085.577    20615090.320    -9587116.220 9   8479199.044 9
  20133314.283    20133315.385   -17734471.020 8  23280722.580 6
  22830801.477    22830805.343    46913961.047 9 -39162609.246 8
 86  6 12  2 15  5.0800000  0  4G 6G13G 9G11
  22510851.657    22510855.238    44371257.469 9 -38107886.766 9
  20614695.487    20614698.445    -9589167.870 9   8477600.350 8
  20134342.418    20134344.301   -17729069.984 7  23284931.168 6
  22833849.919    22833852.546    46929979.242 9 -39150127.545 9
 86  6 12  2 15 11.0800000  0  4G 6G13G 9G11
  22514733.681    22514735.784    44391650.794 9 -38091995.885 8
  20614309.399    20614311.010    -9591202.236 9   8476015.140 9
  20135374.560    20135375.624   -17723642.933 7  23289160.035 7
  22836898.366    22836901.834    46946000.147 9 -39137643.723 9
 86  6 12  2 15 17.0800000  0  4G 6G13G 9G11
  22518618.000    22518619.655    44412058.455 9 -38076093.811 9
  20613923.928    20613927.588    -9593219.386 9   8474443.327 9
  20136412.187    20136414.653   -17718190.013 7  23293409.064 7
  22839947.248    22839950.379    46962023.796 8 -39125157.766 7
 86  6 12  2 15 23.0800000  0  4G 6G13G 9G11
  22522504.178    22522506.007    44432480.522 9 -38060180.516 8
  20613544.003    20613548.360    -9595219.275 9   8472884.980 9
  20137454.965    20137456.261   -17712711.167 8  23297678.290 8
  22842997.928    22843001.253    46978050.125 8 -39112669.719 9
 86  6 12  2 15 29.0800000  0  4G 6G13G 9G11
  22526391.268    22526395.303    44452916.938 9 -38044256.051 9
  20613168.017    20613170.029    -9597201.933 9   8471340.062 9
  20138502.959    20138504.530   -17707206.468 8  23301967.669 7
  22846047.240    22846051.132    46994079.106 9 -39100179.608 8
 86  6 12  2 15 35.0800000  0  4G 6G13G 9G11
  22530283.214    22530286.548    44473367.682 9 -38028320.429 9
  20612793.444    20612796.674    -9599167.415 9   8469808.517 8
  20139556.014    20139557.381   -17701675.749 8  23306277.321 6
  22849099.167    22849102.387    47010110.805 8 -39087687.382 8
 86  6 12  2 15 41.0800000  0  4G 6G13G 9G11
  22534178.207    22534180.889    44493832.707 9 -38012373.677 9
  20612422.988    20612424.861    -9601115.740 9   8468290.336 7
  20140612.166    20140615.227   -17696119.060 8  23310607.208 7
  22852149.349    22852153.945    47026145.162 8 -39075193.089 8
 86  6 12  2 15 47.0800000  0  4G 6G13G 9G11
  22538076.115    22538078.157    44514311.963 9 -37996415.815 8
  20612054.950    20612057.859    -9603046.881 9   8466785.561 7
  20141675.099    20141675.528   -17690536.424 8  23314957.309 7
  22855200.435    22855204.439    47042182.132 5 -39062696.770 8
 86  6 12  2 15 53.0800000  0  4G 6G13G 9G11
  22541975.290    22541977.911    44534805.573 9 -37980446.786 8
  20611690.091    20611694.273    -9604960.772 9   8465294.218 8
  20142742.060    20142743.252   -17684927.853 8  23319327.615 6
  22858253.381    22858257.791    47058221.713 8 -39050198.402 8
 86  6 12  2 15 59.0800000  0  4G 6G13G 9G11
  22545876.828    22545880.346    44555313.406 9 -37964466.675 9
  20611330.167    20611332.151    -9606857.480 9   8463816.277 9
  20143814.658    20143814.882   -17679293.369 8  23323718.126 7
  22861306.849    22861309.960    47074263.891 6 -39037698.013 9
 86  6 12  2 16  5.0800000  0  4G 6G13G 9G11
  22549781.981    22549785.427    44575835.493 9 -37948475.460 8
  20610971.629    20610974.226    -9608737.015 9   8462351.711 9
  20144890.575    20144893.662   -17673632.944 8  23328128.835 7
  22864360.173    22864362.121    47090308.675 7 -39025195.583 8
 86  6 12  2 16 11.0800000  0  4G 6G13G 9G11
  22553691.327    22553694.105    44596371.794 9 -37932473.156 8
  20610617.041    20610620.309    -9610599.407 9   8460900.489 9
  20145973.458    20145975.169   -17667946.522 8  23332559.806 7
  22867413.485    22867415.420    47106356.026 8 -39012691.151 8
 86  6 12  2 16 17.0800000  0  4G 6G13G 9G11
  22557601.625    22557605.020    44616922.240 9 -37916459.834 8
  20610265.540    20610268.191    -9612444.765 9   8459462.554 8
                  20147060.432   -17662234.243 8
  22870466.827    22870470.335    47122405.933 6 -39000184.739 8
 86  6 12  2 16 23.0800000  0  4G 6G13G 9G11
  22561513.478    22561517.399    44637486.903 9 -37900435.421 7
  20609917.420    20609921.106    -9614272.976 9   8458037.980 9
  20148151.429    20148154.477   -17656496.013 8  23383167.802 1
  22873521.427    22873525.090    47138458.384 9 -38987676.147 8
 86  6 12  2 16 29.0800000  0  4G 6G13G 9G11
  22565430.603    22565433.971    44658065.679 9 -37884400.050 9
  20609573.630    20609576.428    -9616084.080 8   8456626.730 8
  20149250.177    20149251.559   -17650731.940 8  23387659.252 6
                  22876579.834                   -38975165.928 8
 86  6 12  2 16 35.0800000  0  4G 6G13G 9G11
  22569350.052    22569351.742    44678658.568 9 -37868353.646 8
  20609232.003    20609235.354    -9617878.070 9   8455228.806 9
  20150351.386    20150354.704   -17644941.996 8  23392170.389 7
  22879633.203    22879635.650    47110187.006 9 -38962652.997 3
 86  6 12  2 16 41.0800000  0  4G 6G13G 9G11
  22573271.224    22573275.106    44699265.624 9 -37852296.213 8
  20608894.293    20608897.604    -9619654.984 9   8453844.208 9
  20151458.192    20151460.887   -17639126.047 8  23396702.294 7
  22882688.989    22882692.334    47126247.028 8 -38950138.735 8
 86  6 12  2 16 47.0800000  0  4G 6G13G 9G11
  22577194.891    22577200.256    44719886.730 9 -37836227.835 8
  20608559.629    20608563.108    -9621414.777 9   8452472.941 8
  20152569.188    20152571.524   -17633284.207 8  23401254.376 7
  22885746.187    22885748.305    47142309.568 8 -38937621.956 8
 86  6 12  2 16 53.0800000  0  4G 6G13G 9G11
  22581120.695    22581124.691    44740521.911 9 -37820148.492 9
  20608226.823    20608230.973    -9623157.465 9   8451115.004 9
  20153686.851    20153688.778   -17627416.438 8  23405826.666 7
  22888803.375    22888805.530    47158374.626 8 -38925103.740 8
 86  6 12  2 16 59.0800000  0  4G 6G13G 9G11
  22585050.805    22585055.096    44761171.147 9 -37804058.198 9
  20607899.648    20607903.351    -9624883.077 9   8449770.368 9
  20154808.374    20154810.071   -17621522.731 8  23410419.156 7
  22891859.767    22891863.994    47174442.114 9 -38912583.622 8
 86  6 12  2 17  5.0800000  0  4G 6G13G 9G11
  22588984.825    22588986.452    44781834.377 9 -37787956.980 8
  20607574.603    20607578.728    -9626591.591 9   8448439.056 8
  20155935.082    20155935.764   -17615603.035 8  23415031.910 6
  22894918.408    22894920.835    47190512.050 7 -38900061.587 9
 86  6 12  2 17 11.0800000  0  4G 6G13G 9G11
  22592918.967    22592922.889    44802511.629 9 -37771844.853 8
  20607253.047    20607256.659    -9628283.131 9   8447120.976 8
  20157066.442    20157068.959   -17609657.556 8  23419664.757 7
  22897976.586    22897979.897    47206584.431 2 -38887537.670 7
 86  6 12  2 17 17.0800000  0  4G 6G13G 9G11
  22596854.625    22596858.551    44823202.914 9 -37755721.787 8
  20606934.824    20606937.677    -9629957.586 9   8445816.212 9
  20158203.117    20158203.718   -17603686.088 9  23424317.822 8
  22901035.594    22901038.421    47222659.234 8 -38875011.842 8
 86  6 12  2 17 23.0800000  0  4G 6G13G 9G11
  22600795.029    22600798.240    44843908.166 9 -37739587.846 8
  20606618.723    20606621.624    -9631615.009 9   8444524.721 9
  20159344.772    20159345.297   -17597688.729 9  23428991.100 8
  22904095.517    22904097.606    47238736.456 8 -38862484.149 8
 86  6 12  2 17 29.0800000  0  4G 6G13G 9G11
  22604739.589    22604742.201    44864627.373 9 -37723443.026 9
  20606306.250    20606310.024    -9633255.448 9   8443246.463 8
  20160490.749    20160491.601   -17591665.508 6  23433684.534 7
  22907154.805    22907157.232    47254816.076 8 -38849954.601 1
 86  6 12  2 17 35.0800000  0  4G 6G13G 9G11
  22608684.721    22608687.936    44885360.478 9 -37707287.361 8
  20605997.835    20606000.608    -9634878.917 8   8441981.415 9
  20161641.952    20161643.421   -17585616.400 8  23438398.102 7
  22910214.775    22910218.446    47270898.057 8 -38837423.167 8
 86  6 12  2 17 41.0800000  0  4G 6G13G 9G11
  22612632.847    22612635.278    44906107.418 9 -37691120.919 9
  20605692.193    20605695.758    -9636485.430 9   8440729.594 9
  20162797.018    20162798.659   -17579541.387 8  23443131.884 7
  22913276.003    22913279.503    47286982.371 8 -38824889.953 8
 86  6 12  2 17 47.0800000  0  4G 6G13G 9G11
  22616582.328    22616586.393    44926868.304 9 -37674943.636 8
  20605388.396    20605391.893    -9638074.956 8   8439490.997 8
  20163958.534    20163959.651   -17573440.454 8  23447885.858 7
  22916337.031    22916340.088    47303068.973 1 -38812354.938 8
 86  6 12  2 17 53.0800000  0  4G 6G13G 9G11
  22620536.272    22620539.941    44947643.079 9 -37658755.508 9
  20605089.913    20605093.173    -9639647.499 9   8438265.643 8
  20165123.883    20165125.482   -17567313.679 9  23452659.959 6
  22919398.700    22919400.821    47319158.024 8 -38799818.053 6
 86  6 12  2 17 59.0800000  0  4G 6G13G 9G11
  22624492.419    22624496.155    44968431.710 9 -37642556.598 9
  20604793.706    20604797.207    -9641203.161 9   8437053.434 9
                  20166294.907   -17561160.971 7
  22922461.463    22922464.270    47335249.284 7 -38787279.394 8
 86  6 12  2 18  5.0800000  0  4G 6G13G 9G11
  22628450.480    22628453.865    44989234.118 9 -37626346.922 8
  20604501.226    20604503.808    -9642741.890 9   8435854.433 9
  20167468.307    20167470.763   -17554982.428 9  23503615.732 1
  22925522.743    22925525.968    47351342.867 3 -38774738.934 7
 86  6 12  2 18 11.0800000  0  4G 6G13G 9G11
  22632411.471    22632415.287    45010050.324 9 -37610126.525 8
  20604210.794    20604214.336    -9644263.694 9   8434668.608 9
  20168651.201    20168652.060   -17548778.034 8  23508450.303 7
  22928586.089    22928589.377    47367438.765 9 -38762196.688 8
 86  6 12  2 18 17.0800000  0  4G 6G13G 9G11
  22636374.999    22636377.155    45030880.356 9 -37593895.350 8
  20603924.340    20603927.696    -9645768.667 9   8433495.896 9
  20169836.613    20169837.753   -17542547.714 8  23513305.106 7
  22931650.374    22931652.203    47383536.962 9 -38749652.642 8
 86  6 12  2 18 23.0800000  0  4G 6G13G 9G11
  22640342.841    22640344.264    45051724.114 9 -37577653.466 8
  20603641.730    20603645.978    -9647256.715 9   8432336.389 8
  20171028.198    20171030.072   -17536291.527 8  23518180.053 8
  22934713.359    22934716.545    47399637.367 9 -38737106.882 8
 86  6 12  2 18 29.0800000  0  4G 6G13G 9G11
  22644311.984    22644314.843    45072581.615 9 -37561400.876 8
  20603361.041    20603363.595    -9648727.818 9   8431190.076 9
  20172223.168    20172223.274   -17530009.431 8  23523075.184 7
  22937778.091    22937781.027    47415740.025 9 -38724559.360 9
 86  6 12  2 18 35.0800000  0  4G 6G13G 9G11
  22648283.509    22648285.547    45093452.856 9 -37545137.583 8
  20603084.854    20603087.979    -9650182.039 9   8430056.915 8
  20173423.662    20173423.596   -17523701.572 8  23527990.404 7
  22940843.744    22940846.044    47431844.929 9 -38712010.086 8
 86  6 12  2 18 41.0800000  0  4G 6G13G 9G11
  22652256.740    22652259.565    45114337.839 9 -37528863.588 8
  20602811.098    20602814.362    -9651619.331 9   8428936.956 9
  20174628.382    20174631.071   -17517367.792 1  23532925.807 8
  22943907.931    22943910.095    47447952.067 9 -38699459.073 8
 86  6 12  2 18 47.0800000  0  4G 6G13G 9G11
  22656233.855    22656235.750    45135236.469 9 -37512578.959 8
  20602541.818    20602544.352    -9653039.853 9   8427830.054 9
  20175838.281    20175839.809   -17511008.158 9  23537881.369 7
  22946972.571    22946976.097    47464061.338 8 -38686906.411 7
 86  6 12  2 18 53.0800000  0  4G 6G13G 9G11
  22660213.717    22660216.191    45156148.740 9 -37496283.700 7
  20602274.626    20602276.711    -9654443.489 9   8426736.315 9
  20177054.124    20177055.126   -17504622.617 9  23542857.102 7
  22950039.912    22950041.143    47480172.789 9 -38674352.024 8
 86  6 12  2 18 59.0800000  0  4G 6G13G 9G11
  22664196.176    22664197.483    45177074.702 9 -37479977.757 8
  20602010.606    20602013.645    -9655830.287 9   8425655.703 8
  20178273.945    20178275.215   -17498211.283 8  23547852.930 7
  22953106.847    22953108.453    47496286.393 9 -38661795.983 8
 86  6 12  2 19  5.0800000  0  4G 6G13G 9G11
  22668180.802    22668182.478    45198014.266 9 -37463661.222 7
  20601750.566    20601752.816    -9657200.281 9   8424588.163 9
  20179499.718    20179500.858   -17491774.157 8  23552868.859 7
  22956172.860    22956174.443    47512402.179 2 -38649238.224 8
 86  6 12  2 19 11.0800000  0  4G 6G13G 9G11
  22672166.938    22672170.487    45218967.444 9 -37447334.098 8
  20601493.236    20601494.907    -9658553.490 9   8423533.715 8
  20180727.999    20180730.963   -17485311.141 7  23557904.975 7
  22959240.351    22959242.394    47528520.102 8 -38636678.795 9
 86  6 12  2 19 17.0800000  0  4G 6G13G 9G11
  22676157.459    22676160.850    45239934.159 9 -37430996.408 7
  20601238.456    20601241.131    -9659889.887 9   8422492.377 8
  20181963.208    20181963.914   -17478822.278 9  23562961.248 8
  22962306.851    22962309.653    47544640.149 8 -38624117.718 8
 86  6 12  2 19 23.0800000  0  4G 6G13G 9G11
  22680150.261    22680152.199    45260914.451 9 -37414648.148 8
  20600986.961    20600990.003    -9661209.404 9   8421464.176 8
  20183202.709    20183204.322   -17472307.593 9  23568037.615 6
  22965375.491    22965378.419    47560762.290 7 -38611555.034 8
 86  6 12  2 19 29.0800000  0  4G 6G13G 9G11
  22684145.515    22684147.301    45281908.256 9 -37398289.345 9
  20600738.948    20600742.709    -9662512.146 9   8420449.061 8
  20184446.722    20184450.081   -17465767.098 8  23573134.104 7
  22968444.430    22968447.409    47576886.496 9 -38598990.721 8
 86  6 12  2 19 35.0800000  0  4G 6G13G 9G11
  22688142.084    22688144.483    45302915.585 9 -37381920.002 7
  20600493.936    20600497.284    -9663798.200 9   8419446.934 9
  20185698.005    20185698.701   -17459200.817 8  23578250.681 7
  22971511.336    22971515.434    47593012.775 9 -38586424.798 9
 86  6 12  2 19 41.0800000  0  4G 6G13G 9G11
  22692141.103    22692144.721    45323936.387 9 -37365540.174 8
  20600252.931    20600255.308    -9665067.497 9   8418457.885 9
  20186951.939    20186953.998   -17452608.682 7  23583387.408 6
  22974581.779    22974584.567    47609141.175 9 -38573857.228 8
 86  6 12  2 19 47.0800000  0  4G 6G13G 9G11
  22696144.959    22696145.902    45344970.743 9 -37349149.793 8
  20600014.807    20600016.527    -9666320.021 9   8417481.891 8
  20188210.813    20188211.301   -17445990.688 8  23588544.275 8
  22977651.662    22977653.471    47625271.649 8 -38561288.028 8
 86  6 12  2 19 53.0800000  0  4G 6G13G 9G11
  22700151.016    22700154.160    45366018.542 9 -37332748.936 9
  20599779.557    20599780.941    -9667555.843 9   8416518.910 9
  20189475.173    20189476.565   -17439346.875 9  23593721.265 6
  22980721.207    22980723.176    47641404.121 8 -38548717.283 8
 86  6 12  2 19 59.0800000  0  4G 6G13G 9G11
  22704159.366    22704160.684    45387079.731 9 -37316337.615 7
  20599547.519    20599551.298    -9668774.933 9   8415568.969 9
  20190743.864    20190745.984   -17432677.263 8  23598918.362 7
  22983791.479    22983793.474    47657538.569 9 -38536144.983 8
 86  6 12  2 20  5.0800000  0  4G 6G13G 9G11
  22708168.314    22708170.819    45408154.366 9 -37299915.827 8
  20599318.715    20599320.929    -9669977.315 9   8414632.046 8
  20192019.235    20192019.930   -17425981.811 9  23604135.583 7
  22986861.436    22986864.950    47673675.067 7 -38523571.074 7
 86  6 12  2 20 11.0800000  0  4G 6G13G 9G11
  22712181.518    22712183.869    45429242.426 8 -37283483.579 8
  20599093.704    20599095.586    -9671162.989 9   8413708.153 9
  20193297.588    20193297.698   -17419260.537 8  23609372.940 6
  22989932.979    22989935.323    47689813.605 9 -38510995.606 8
 86  6 12  2 20 17.0800000  0  4G 6G13G 9G11
  22716196.964    22716199.523    45450343.852 9 -37267040.937 8
  20598870.653    20598873.140    -9672332.002 9   8412797.234 8
  20194581.410    20194582.948   -17412513.523 8  23614630.349 7
  22993004.784    22993007.431    47705954.113 9 -38498418.589 9
 86  6 12  2 20 23.0800000  0  4G 6G13G 9G11
  22720215.390    22720217.773    45471458.586 9 -37250587.911 8
  20598651.626    20598654.581    -9673484.355 9   8411899.303 9
  20195870.708    20195871.902   -17405740.678 8  23619907.895 7
  22996076.550    22996078.496    47722096.595 9 -38485840.045 9
 86  6 12  2 20 29.0800000  0  4G 6G13G 9G11
  22724236.246    22724238.079    45492586.680 9 -37234124.479 8
  20598434.636    20598437.881    -9674620.050 9   8411014.353 8
  20197164.611    20197166.069   -17398942.072 8  23625205.514 7
  22999148.740    22999151.120    47738240.996 9 -38473260.003 9
 86  6 12  2 20 35.0800000  0  4G 6G13G 9G11
  22728258.360    22728261.113    45513728.056 9 -37217650.694 8
  20598222.125    20598225.080    -9675739.058 9   8410142.394 8
  20198463.036    20198464.374   -17392117.639 8  23630523.249 7
  23002221.295    23002224.080    47754387.320 8 -38460678.455 9
 86  6 12  2 20 41.0800000  0  4G 6G13G 9G11
  22732284.388    22732285.912    45534882.726 9 -37201166.560 8
  20598012.078    20598014.992    -9676841.374 9   8409283.446 9
  20199766.528    20199767.749   -17385267.489 9  23635861.029 7
  23005293.628    23005296.011    47770535.606 7 -38448095.376 8
 86  6 12  2 20 47.0800000  0  4G 6G13G 9G11
  22736312.965    22736315.324    45556050.620 9 -37184672.106 8
  20597805.301    20597808.311    -9677927.087 9   8408437.442 8
  20201074.169    20201075.734   -17378391.543 8  23641218.901 8
  23008367.688    23008371.054    47786685.799 8 -38435510.820 6
 86  6 12  2 20 53.0800000  0  4G 6G13G 9G11
  22740343.409    22740346.166    45577231.781 9 -37168167.300 6
  20597602.495    20597606.386    -9678996.213 9   8407604.352 9
  20202387.792    20202389.261   -17371489.803 8  23646596.872 7
  23011440.622    23011443.358    47802837.828 9 -38422924.815 9
 86  6 12  2 20 59.0800000  0  4G 6G13G 9G11
  22744375.794    22744379.290    45598426.175 9 -37151652.225 9
  20597401.677    20597404.390    -9680048.760 9   8406784.199 9
  20203705.801    20203708.110   -17364562.377 8  23651994.869 7
  23014514.980    23014516.786    47818991.688 8 -38410337.405 1
 86  6 12  2 21  5.0800000  0  4G 6G13G 9G11
  22748411.101    22748415.691    45619633.719 9 -37135126.884 7
  20597204.346    20597207.042    -9681084.748 9   8405976.934 9
  20205029.967    20205032.012   -17357609.208 8  23657412.911 7
  23017588.938    23017592.389    47835147.433 9 -38397748.513 7
 86  6 12  2 21 11.0800000  0  4G 6G13G 9G11
                  22752452.248                   -37118591.258 7
  20597010.498    20597014.329    -9682104.177 9   8405182.574 8
  20206356.971    20206359.392   -17350630.237 8  23662851.069 8
  23020663.778    23020666.190    47851305.013 7 -38385158.204 9
 86  6 12  2 21 17.0800000  0  4G 6G13G 9G11
                  22756493.124                   -37102045.361 7
  20596819.874    20596822.379    -9683107.077 9   8404401.104 9
  20207690.350    20207691.471   -17343625.425 7  23668309.360 6
  23023738.720    23023741.636    47867464.403 9 -38372566.477 9
 86  6 12  2 21 23.0800000  0  4G 6G13G 9G11
                  22760536.540                   -37085489.218 8
  20596631.797    20596635.555    -9684093.449 9   8403632.503 9
  20209028.889    20209030.071   -17336595.060 7  23673787.571 8
  23026814.658    23026816.436    47883625.570 6 -38359973.354 8
 86  6 12  2 21 29.0800000  0  4G 6G13G 9G11
  22764588.767    22764581.412    45531340.266 9 -37068922.888 8
  20596447.476    20596450.345    -9685063.362 9   8402876.728 9
  20210371.189    20210373.100   -17329538.827 8  23679285.929 7
  23029889.824    23029893.828    47899788.535 9 -38347378.850 8
 86  6 12  2 21 35.0800000  0  4G 6G13G 9G11
  22768627.193    22768631.081    45552613.316 6 -37052346.368 9
  20596266.381    20596269.680    -9686016.711 9   8402133.864 8
  20211718.389    20211721.433   -17322456.959 9  23684804.275 7
  23032965.281    23032968.813    47915953.300 9 -38334782.927 8
 86  6 12  2 21 41.0800000  0  4G 6G13G 9G11
  22772677.756    22772680.990    45573899.626 8 -37035759.644 8
  20596087.663    20596091.300    -9686953.487 9   8401403.908 9
  20213071.705    20213073.397   -17315349.265 8  23690342.719 8
  23036041.248    23036045.344    47932119.787 7 -38322185.670 9
 86  6 12  2 21 47.0800000  0  4G 6G13G 9G11
  22776732.221    22776733.902    45595198.472 9 -37019162.770 8
  20595913.062    20595916.074    -9687873.757 9   8400686.822 9
  20214428.368    20214431.326   -17308215.865 9  23695901.211 8
  23039118.846    23039120.749    47948288.086 9 -38309587.013 8
 86  6 12  2 21 53.0800000  0  4G 6G13G 9G11
  22780788.076    22780790.067    45616510.924 9 -37002555.694 7
  20595741.352    20595744.197    -9688777.499 9   8399982.593 9
  20215790.587    20215793.676   -17301056.825 9  23701479.688 7
                  23042199.783   -23239158.459 9
 86  6 12  2 21 59.0800000  0  4G 6G13G 9G11
  22784845.877    22784847.589    45637836.346 9 -36985938.483 7
  20595571.457    20595575.740    -9689664.711 9   8399291.263 8
                  20217157.918   -17293872.003 7
                  23045269.771   -23258413.150 1
 86  6 12  2 22  5.0800000  0  4G 6G13G 9G11
  22788905.236    22788908.559    45659174.686 9 -36969311.223 8
  20595405.845    20595410.165    -9690535.428 9   8398612.787 8
  20218528.676    20218521.450   -17286661.496 9
  23753216.260 7  23048420.100   -23278342.922 1
 86  6 12  2 22 11.0800000  0  4G 6G13G 9G11
  22792968.866    22792972.231    45680526.073 9 -36952673.800 8
  20595243.686    20595247.068    -9691389.684 9   8397947.131 9
  20219908.753    20219908.086   -17279425.258 8
  23758854.954 6  23051298.059   -23359474.086 9
 86  6 12  2 22 17.0800000  0  4G 6G13G 9G11
  22797034.497    22797037.230    45701890.401 9 -36936026.283 7
  20595083.831    20595086.716    -9692227.474 9   8397294.318 9
  20221289.858    20221290.687   -17272163.411 8
  23764514.020 7  23054510.974   -23376824.223 3
 86  6 12  2 22 23.0800000  0  4G 6G13G 9G11
  22801102.649    22801105.976    45723267.656 9 -36919368.700 9
  20594927.625    20594930.547    -9693048.858 9   8396654.269 9
  20222676.341    20222678.287   -17264875.724 8
  23770192.743 7  23057581.084   -23430291.167 1
 86  6 12  2 22 29.0800000  0  4G 6G13G 9G11
  22805173.047    22805176.569    45744657.779 9 -36902701.079 8
  20594774.803    20594777.561    -9693853.929 9   8396026.943 9
  20224066.691    20224070.911   -17257562.478 8
  23775891.364 6  23060395.230   -23468980.866 1
 86  6 12  2 22 35.0800000  0  4G 6G13G 9G11
  22809244.932    22809248.311    45766060.797 9 -36886023.427 8
  20594625.123    20594627.597    -9694642.613 9   8395412.386 8
  20225463.630    20225466.827   -17250223.525 8
  23781610.018 7  23063787.876   -23485814.967 1
 86  6 12  2 22 41.0800000  0  4G 6G13G 9G11
  22813320.586    22813322.420    45787476.719 8 -36869335.704 8
  20594478.832    20594479.581    -9695414.878 9   8394810.630 9
  20226866.511    20226866.463   -17242858.793 8
  23787348.774 7  23066856.626   -23535771.835 1
 86  6 12  2 22 47.0800000  0  4G 6G13G 9G11
  22817399.215    22817401.328    45808905.448 9 -36852638.012 8
  20594334.642    20594336.608    -9696170.739 9   8394221.638 8
  20228272.515    20228273.002   -17235468.424 8
  23793107.498 7  23069905.336   -23552613.059 7
 86  6 12  2 22 53.0800000  0  4G 6G13G 9G11
  22821479.831    22821481.660    45830346.991 9 -36835930.336 9
  20594193.853    20594195.485    -9696910.208 9   8393645.440 8
  20229683.307    20229685.023   -17228052.437 9
  23798886.170 7  23072983.813   -23536424.664 7
 86  6 12  2 22 59.0800000  0  4G 6G13G 9G11
  22825562.041    22825564.207    45851801.347 9 -36819212.670 8
  20594056.269    20594057.724    -9697633.312 9   8393081.983 9
  20231099.345    20231100.204   -17220610.776 8  23804684.857 7
  23076065.704    23076068.709   -23520236.404 6  29932595.813 1
 86  6 12  2 23  5.0800000  0  4G 6G13G 9G11
  22829646.456    22829649.907    45873268.501 9 -36802485.042 8
  20593921.768    20593923.501    -9698340.037 9   8392531.285 8
  20232520.409    20232521.698   -17213143.449 9  23810503.559 8
  23079145.340    23079148.064   -23504046.487 8  29945211.338 7
 86  6 12  2 23 11.0800000  0  4G 6G13G 9G11
  22833733.959    22833737.311    45894748.429 9 -36785747.451 8
  20593790.620    20593792.656    -9699030.433 9   8391993.314 9
  20233946.655    20233946.727   -17205650.414 8  23816342.277 7
  23082226.437    23082229.909   -23487855.046 5  29957828.036 4
 86  6 12  2 23 17.0800000  0  4G 6G13G 9G11
  22837824.329    22837827.038    45916241.084 9 -36768999.943 7
  20593661.494    20593663.505    -9699704.470 9   8391468.093 9
                  20235376.655   -17198131.768 8
  23085308.197    23085310.272   -23471662.011 9  29970445.950 1
 86  6 12  2 23 23.0800000  0  4G 6G13G 9G11
  22841917.637    22841919.606    45937746.425 9 -36752242.548 9
  20593536.596    20593538.648    -9700362.236 9   8390955.552 8
  20236812.730    20236834.680   -17190587.487 8  23868069.767 7
  23088390.320    23088392.409   -23455467.463 9  29983065.110 8
 86  6 12  2 23 29.0800000  0  4G 6G13G 9G11
  22846010.927    22846014.234    45959264.491 9 -36735475.231 8
  20593415.038    20593417.337    -9701003.711 9   8390455.702 8
                  20238252.560   -17183056.101 4
  23091471.919    23091474.712   -23439271.345 9  29995685.453 7
 86  6 12  2 23 35.0800000  0  4G 6G13G 9G11
  22850107.935    22850110.678    45980795.233 9 -36718698.054 8
  20593295.871    20593298.594    -9701628.954 8   8389968.506 9
                  20238988.398   -23865393.418 3
  23094554.273    23094557.484   -23423073.665 8  30008307.016 8
 86  6 12  2 23 41.0800000  0  4G 6G13G 9G11
  22854207.377    22854210.388    46002338.608 9 -36701911.030 8
  20593180.008    20593182.523    -9702237.899 9   8389494.001 9
                  20241150.940   -23888823.795 2
  23097636.659    23097639.409   -23406874.495 8  30020929.748 8
 86  6 12  2 23 47.0800000  0  4G 6G13G 9G11
  22858309.651    22858312.658    46023894.673 8 -36685114.117 8
  20593066.113    20593069.880    -9702830.561 9   8389032.188 9
                  20242604.074   -23881174.176 8
                  23100722.173                    30033553.598 8
 86  6 12  2 23 53.0800000  0  4G 6G13G 9G11
  22862414.287    22862417.070    46045463.280 9 -36668307.429 8
  20592957.061    20592959.241    -9703407.004 9   8388582.981 9
  20244063.833    20244064.125   -23873501.787 9  30347598.856 3
  23103807.917    23103805.964   -23427195.609 1  30046178.533 8
 86  6 12  2 23 59.0800000  0  4G 6G13G 9G11
  22866521.520    22866524.020    46067044.489 9 -36651490.911 8
  20592849.929    20592853.475    -9703967.170 9   8388146.511 8
  20245529.781    20245529.429   -23865803.815 7  30353597.276 6
  23106886.839    23106889.012   -23410991.872 6  30058804.617 9
 86  6 12  2 24  5.0800000  0  3G13G 9G11
  20592746.982    20592749.825    -9704511.129 9   8387722.659 9
  20246998.070    20247000.521   -23858080.139 9  30359615.216 6
  23109969.612    23109972.918   -23394787.448 6  30071431.834 8
 86  6 12  2 24 11.0800000  0  3G13G 9G11
  20592646.233    20592649.802    -9705038.814 9   8387311.476 8
  20248473.601    20248474.258   -23850330.956 9  30365653.532 7
  23113054.803    23113055.539   -23378581.084 9  30084060.163 8
 86  6 12  2 24 17.0800000  0  4G12G13G 9G11
                  22879441.230   -24093764.888 1
  20592549.322    20592551.810    -9705550.289 9   8386912.928 9
  20249953.318    20249955.228   -23842556.213 9  30371711.773 7
  23116138.648    23116140.239   -23362373.301 9  30096689.609 8
 86  6 12  2 24 23.0800000  0  4G12G13G 9G11
                  22883836.971   -24118127.471 1
  20592454.841    20592458.077    -9706045.605 9   8386526.963 9
  20251437.100    20251438.636   -23834755.839 9  30377789.971 7
  23119223.715    23119224.051   -23346164.103 9  30109320.162 8
 86  6 12  2 24 29.0800000  0  4G12G13G 9G11
                  22887385.432   -24185055.689 1
  20592363.659    20592366.081    -9706524.771 9   8386153.589 8
  20252927.137    20252926.476   -23826929.953 8  30383888.075 7
  23122307.736    23122309.846   -23329953.503 1  30121951.773 8
 86  6 12  2 24 35.0800000  0  4G12G13G 9G11
                  22891325.683   -24208382.825 1
  20592276.262    20592277.985    -9706987.746 9   8385792.841 9
  20254420.918    20254422.714   -23819078.438 8  30390006.129 8
  23125392.074    23125395.691   -23313741.602 8  30134584.427 8
 86  6 12  2 24 41.0800000  0  4G12G13G 9G11
                  22895047.927   -24231924.410 1
  20592190.812    20592193.510    -9707434.598 9   8385444.643 8
  20255920.063    20255921.596   -23811201.400 9  30396144.069 7
  23128478.757    23128479.866   -23297528.370 8  30147218.102 8
 86  6 12  2 24 47.0800000  0  4G12G13G 9G11
                  22900588.048   -24260201.999 1
  20592108.366    20592111.173    -9707865.302 9   8385109.032 8
  20257423.266    20257426.641   -23803298.890 8  30402301.863 7
  23131563.433    23131565.197   -23281313.785 8  30159852.831 9
 86  6 12  2 24 53.0800000  0  4G12G13G 9G11
                  22903912.446   -24329912.067 1
  20592029.097    20592031.980    -9708279.911 9   8384785.955 8
  20258931.163    20258935.325   -23795370.781 9  30408479.614 6
  23134648.371    23134651.011   -23265097.757 9  30172488.700 8
 86  6 12  2 24 59.0800000  0  4G12G13G 9G11
                  22907694.688   -24355387.877 1
  20591954.109    20591956.625    -9708678.459 9   8384475.400 9
  20260446.429    20260446.919   -23787417.128 9  30414677.259 7
  23137734.020    23137738.162   -23248880.472 7  30185125.525 8
 86  6 12  2 25  5.0800000  0  4G12G13G 9G11
                  22913411.356   -24377862.776 1
  20591880.653    20591883.706    -9709060.852 9   8384177.432 9
  20261963.833    20261966.808   -23779437.890 8  30420894.840 7
  23140820.149    23140823.384   -23232661.845 8  30197763.409 8
 86  6 12  2 25 11.0800000  0  4G12G13G 9G11
                  22917338.213   -24404194.673 1
  20591811.393    20591813.660    -9709427.210 9   8383891.966 9
  20263486.745    20263489.993   -23771433.206 9  30427132.260 7
  23143907.438    23143910.546   -23216441.995 9  30210402.243 8
 86  6 12  2 25 17.0800000  0  4G12G13G 9G11
                  22920636.335   -24473912.251 1
  20591744.046    20591746.679    -9709777.507 9   8383619.011 9
  20265015.786    20265016.848   -23763402.896 9  30433389.640 7
  23146996.192    23146997.267   -23200220.886 9  30223042.057 9
 86  6 12  2 25 23.0800000  0  4G12G13G 9G11
                  22924563.193   -24497458.908 1
  20591680.999    20591682.512    -9710111.677 9   8383358.616 9
  20266549.375    20266550.369   -23755347.133 9  30439666.863 7
  23150082.638    23150083.502   -23183998.515 8  30235682.865 8
 86  6 12  2 25 29.0800000  0  4G12G13G 9G11
                  22928519.822   -24523790.504 1
  20591620.038    20591623.525    -9710429.785 9   8383110.752 8
  20268087.111    20268088.810   -23747265.766 9  30445964.017 7
  23153168.585    23153172.628   -23167774.891 8  30248324.646 9
 86  6 12  2 25 35.0800000  0  4G12G13G 9G11
                  22934134.749   -24547109.678 1
  20591563.447    20591565.489    -9710731.892 9   8382875.332 9
  20269629.801    20269630.703   -23739158.957 9  30452281.015 7
  23156256.141    23156259.351   -23151550.028 8  30260967.387 8
 86  6 12  2 25 41.0800000  0  4G12G13G 9G11
                  22937329.149   -24618988.228 1
  20591509.015    20591511.770    -9711017.977 9   8382652.419 9
  20271177.051    20271178.531   -23731026.661 9  30458617.871 7
  23159342.865    23159346.864   -23135323.939 7  30273611.074 8
 86  6 12  2 25 47.0800000  0  4G12G13G 9G11
                  22941257.875   -24643387.910 1
  20591457.240    20591460.225    -9711288.040 9   8382441.979 8
  20272728.981    20272730.299   -23722868.832 9  30464974.604 7
  23162431.436    23162435.732   -23119096.670 8  30286255.686 7
 86  6 12  2 25 53.0800000  0  4G12G13G 9G11
                  22951167.735   -24621384.837 1
  20591409.010    20591411.512    -9711542.106 9   8382244.009 8
  20274286.762    20274287.411   -23714685.553 9  30471351.191 7
  23165520.815    23165523.235   -23102868.238 8  30298901.220 8
 86  6 12  2 25 59.0800000  0  4G12G13G 9G11
                  22963334.097   -24599372.591 1
  20591363.801    20591366.383    -9711780.144 9   8382058.518 9
  20275849.415    20275849.373   -23706476.857 9  30477747.576 6
  23168607.947    23168611.445   -23086638.600 9  30311547.679 9
 86  6 12  2 26  5.0800000  0  4G12G13G 9G11
                  22975592.590   -24577351.173 1
  20591321.278    20591324.175    -9712002.199 9   8381885.494 9
  20277415.806    20277415.862   -23698242.622 9  30484163.854 8
  23171696.911    23171700.249   -23070407.757 9  30324195.091 9
 86  6 12  2 26 11.0800000  0  4G12G13G 9G11
                  22987675.329   -24555320.580 1
  20591282.758    20591284.646    -9712208.339 9   8381724.874 9
  20278986.536    20278988.295   -23689982.975 8  30490599.941 7
  23174785.273    23174788.982   -23054175.810 8  30336843.351 8
 86  6 12  2 26 17.0800000  0  4G12G13G 9G11
                  22999525.853   -24533280.815 1
  20591245.959    20591248.816    -9712398.531 9   8381576.659 8
  20280563.098    20280564.371   -23681697.866 8  30497055.863 7
  23177874.580    23177878.604   -23037942.762 9  30349492.468 8
 86  6 12  2 26 23.0800000  0  4G12G13G 9G11
                  23011612.885   -24511231.877 1
  20591213.313    20591214.648    -9712572.801 9   8381440.872 8
  20282144.858    20282146.107   -23673387.298 9  30503531.634 8
  23180964.778    23180966.849   -23021708.555 8  30362142.508 8
 86  6 12  2 26 29.0800000  0  4G12G13G 9G11
                  23023817.404   -24489173.766 1
  20591182.842    20591185.515    -9712731.144 9   8381317.481 9
  20283731.556    20283730.798   -23665051.302 9  30510027.206 8
  23184053.799    23184056.570   -23005473.186 8  30374793.437 8
 86  6 12  2 26 35.0800000  0  4G12G13G 9G11
                  23035908.729   -24467106.481 1
  20591155.688    20591157.112    -9712873.579 9   8381206.504 9
  20285322.146    20285323.730   -23656689.821 9  30516542.656 8
  23187143.055    23187146.973   -22989236.726 9  30387445.222 9
 86  6 12  2 26 41.0800000  0  4G12G13G 9G11
                  23047912.138   -24445030.024 1
  20591132.176    20591133.989    -9713000.113 9   8381107.905 8
  20286917.621    20286919.095   -23648303.001 9  30523077.837 6
  23190233.796    23190235.803   -22972999.202 9  30400097.834 8
 86  6 12  2 26 47.0800000  0  4G12G13G 9G11
                  23059566.468   -24422944.393 1
  20591110.626    20591112.785    -9713110.638 9   8381021.772 9
  20288518.349    20288520.744   -23639890.664 9  30529632.887 7
  23193323.181    23193326.110   -22956760.601 8  30412751.287 9
 86  6 12  2 26 53.0800000  0  4G12G13G 9G11
                  23071750.001   -24400849.590 1
  20591092.482    20591094.125    -9713205.307 9   8380948.020 7
  20290124.493    20290125.763   -23631452.913 9  30536207.751 8
  23196413.408    23196417.419   -22940520.917 9  30425405.566 8
 86  6 12  2 26 59.0800000  0  4G12G13G 9G11
                  23083846.242   -24378745.613 1
  20591078.083    20591078.982    -9713284.212 9   8380886.526 9
  20291735.879    20291736.058   -23622989.845 9  30542802.345 7
  23199503.273    23199507.615   -22924280.267 8  30438060.625 8
 86  6 12  2 27  5.0800000  0  4G12G13G 9G11
                  23095946.153   -24356632.463 1
  20591065.552    20591068.855    -9713347.264 9   8380837.397 9
  20293350.178    20293350.991   -23614501.278 9  30549416.813 7
  23202593.667    23202597.474   -22908038.447 8  30450716.584 8
 86  6 12  2 27 11.0800000  0  4G12G13G 9G11
                  23108075.368   -24334510.140 1
  20591057.163    20591058.410    -9713394.503 9   8380800.581 9
  20294971.264    20294971.796   -23605987.444 9  30556050.964 7
  23205685.487    23205688.854   -22891795.637 7  30463373.314 7
 86  6 12  2 27 17.0800000  0  4G12G13G 9G11
                  23120090.290   -24312378.644 1
  20591051.509    20591053.338    -9713425.974 9   8380776.070 9
  20296595.531    20296595.895   -23597448.262 8  30562704.866 8
  23208776.927    23208779.170   -22875551.934 8  30476030.739 8
 86  6 12  2 27 23.0800000  0  4G12G13G 9G11
                  23132663.376   -24290237.975 1
  20591047.997    20591050.296    -9713441.638 9   8380763.865 9
  20298225.877    20298226.861   -23588883.511 9  30569378.687 7
  23211867.541    23211871.597   -22859307.205 8  30488688.957 7
 86  6 12  2 27 29.0800000  0  4G12G13G 9G11
                  23144709.937   -24268088.133 1
  20591047.674    20591049.935    -9713441.490 9   8380763.984 9
  20299859.079    20299862.483   -23580293.498 8  30576072.191 7
  23214958.746    23214963.020   -22843061.455 8  30501347.983 9
 86  6 12  2 27 35.0800000  0  4G12G13G 9G11
                  23156583.990   -24245929.117 1
  20591050.699    20591052.447    -9713425.590 9   8380776.363 9
  20301500.162    20301500.722   -23571678.116 8  30582785.474 8
  23218051.644    23218055.600   -22826814.788 8  30514007.715 7
 86  6 12  2 27 41.0800000  0  4G12G13G 9G11
                  23168868.317   -24223760.929 1
  20591056.422    20591058.912    -9713393.939 9   8380801.032 9
  20303144.330    20303144.822   -23563037.483 9  30589518.443 7
  23221142.606    23221147.043   -22810567.205 9  30526668.156 8
 86  6 12  2 27 47.0800000  0  4G12G13G 9G11
                  23181390.372   -24201583.568 1
  20591065.523    20591068.786    -9713346.448 9   8380838.034 9
  20304793.448    20304793.892   -23554371.432 9  30596271.198 7
  23224234.760    23224239.508   -22794318.552 9  30539329.444 8
 86  6 12  2 27 53.0800000  0  4G12G13G 9G11
                  23193766.907   -24179397.033 1
  20591077.821    20591079.491    -9713283.178 9   8380887.342 8
  20306447.625    20306447.462   -23545679.973 9  30603043.766 7
  23227327.678    23227331.029   -22778068.937 9  30551991.481 8
 86  6 12  2 27 59.0800000  0  4G12G13G 9G11
                  23205529.358   -24157201.325 1
  20591092.248    20591095.623    -9713204.291 9   8380948.802 9
  20308106.901    20308106.902   -23536963.313 9  30609835.957 8
  23230419.880    23230423.331   -22761818.563 8  30564654.096 9
 86  6 12  2 28  5.0800000  0  4G12G13G 9G11
                  23217822.270   -24134996.445 1
  20591110.486    20591112.958    -9713109.548 9   8381022.625 9
  20309769.354    20309770.719   -23528221.228 9  30616647.959 7
  23233513.288    23233514.918   -22745567.138 8  30577317.542 8
 86  6 12  2 28 11.0800000  0  4G12G13G 9G11
                  23229616.994   -24112782.391 1
  20591131.566    20591134.456    -9712999.121 9   8381108.685 9
  20311437.657    20311439.513   -23519453.869 9  30623479.675 8
  23236605.458    23236608.709   -22729314.818 9  30589981.675 8
 86  6 12  2 28 17.0800000  0  4G12G13G 9G11
                  23241767.009   -24090559.163 1
  20591155.454    20591157.958    -9712872.979 9   8381206.978 9
  20313111.190    20313112.325   -23510661.181 9  30630331.115 7
  23239698.598    23239701.928   -22713061.605 9  30602646.521 8
 86  6 12  2 28 23.0800000  0  4G12G13G 9G11
                  23253800.467   -24068326.763 1
  20591183.263    20591185.789    -9712731.145 9   8381317.487 9
  20314788.987    20314791.192   -23501843.200 9  30637202.266 7
  23242791.569    23242794.955   -22696807.496 9  30615312.070 8
 86  6 12  2 28 29.0800000  0  4G12G13G 9G11
                  23265337.406   -24046085.190 1
  20591212.940    20591215.466    -9712573.635 9   8381440.233 9
  20316471.217    20316473.501   -23492999.957 8  30644093.102 8
  23245885.541    23245888.124   -22680552.568 9  30627978.245 9
 86  6 12  2 28 35.0800000  0  3G13G 9G11
  20591246.395    20591248.175    -9712400.492 9   8381575.147 9
  20318159.510    20318160.609   -23484131.473 9  30651003.605 8
  23248977.151    23248981.398   -22664296.834 9  30640645.053 5
 86  6 12  2 28 41.0800000  0  3G13G 9G11
  20591281.432    20591284.022    -9712211.720 9   8381722.241 9
  20319851.874    20319854.962   -23475237.769 9  30657933.745 7
  23252071.282    23252074.332   -22648040.284 9  30653312.473 8
 86  6 12  2 28 47.0800000  0  3G13G 9G11
  20591321.068    20591322.959    -9712007.352 9   8381881.491 8
  20321548.643    20321550.380   -23466318.674 9  30664883.695 8
  23255164.924    23255168.666   -22631782.943 9  30665980.533 8
 86  6 12  2 28 53.0800000  0  3G13G 9G11
  20591362.217    20591364.509    -9711787.416 9   8382052.868 9
  20323250.320    20323253.025   -23457374.389 9  30671853.267 7
  23258259.028    23258260.930   -22615524.812 9  30678649.216 8
 86  6 12  2 28 59.0800000  0  3G13G 9G11
  20591407.054    20591410.272    -9711551.859 9   8382236.420 9
  20324957.524    20324960.952   -23448404.834 8  30678842.530 8
  23261352.753    23261355.760   -22599265.912 9  30691318.478 8
 86  6 12  2 29  5.0800000  0  3G13G 9G11
  20591455.697    20591456.907    -9711300.780 9   8382432.069 9
  20326668.662    20326671.125   -23439410.093 8  30685851.411 7
  23264447.154    23264449.751   -22583006.254 9  30703988.330 8
 86  6 12  2 29 11.0800000  0  3G13G 9G11
  20591505.342    20591507.165    -9711034.081 9   8382639.884 9
  20328385.619    20328387.685   -23430390.062 9  30692879.993 7
  23267540.781    23267543.703   -22566745.833 9  30716658.802 8
 86  6 12  2 29 17.0800000  0  3G13G 9G11
  20591559.754    20591560.820    -9710751.806 9   8382859.851 9
  20330107.091    20330110.001   -23421344.722 9  30699928.321 8
  23270635.130    23270637.234   -22550484.634 9  30729329.856 8
 86  6 12  2 29 23.0800000  0  3G13G 9G11
  20591616.447    20591617.520    -9710453.961 9   8383091.940 8
  20331832.626    20331835.461   -23412274.228 9  30706996.235 7
  23273730.833    23273733.431   -22534222.628 9  30742001.541 7
 86  6 12  2 29 29.0800000  0  3G13G 9G11
  20591676.386    20591677.702    -9710140.605 9   8383336.105 8
  20333564.108    20333566.188   -23403178.478 9  30714083.810 7
  23276824.900    23276826.877   -22517959.925 9  30754673.791 8
 86  6 12  2 29 35.0800000  0  3G13G 9G11
  20591739.051    20591740.685    -9709811.721 9   8383592.389 9
  20335299.562    20335301.950   -23394057.579 9  30721191.021 7
  23279918.914    23279920.735   -22501696.539 8  30767346.544 8
 86  6 12  2 29 41.0800000  0  3G13G 9G11
  20591803.909    20591805.822    -9709467.291 9   8383860.777 8
  20337040.333    20337041.948   -23384911.423 8  30728317.894 8
  23283014.757    23283016.232   -22485432.390 9  30780019.907 7
 86  6 12  2 29 47.0800000  0  3G13G 9G11
  20591872.708    20591874.942    -9709107.343 9   8384141.251 9
  20338785.443    20338787.222   -23375740.134 8  30735464.343 7
  23286108.280    23286112.447   -22469167.520 9  30792693.833 8
 86  6 12  2 29 53.0800000  0  3G13G 9G11
  20591944.094    20591945.900    -9708731.889 7   8384433.824 6
  20340536.640    20340537.990   -23366543.722 6  30742630.379 2
  23289206.159    23289208.280   -22452901.986 6  30805368.273 6
 86  6 12  2 29 59.0800000  0  3G13G 9G11
  20592018.179    20592020.707    -9708341.012 9   8384738.397 8
  20342289.675    20342292.254   -23357322.198 9  30749815.971 8
  23292301.867    23292302.722   -22436635.771 9  30818043.245 7
 86  6 12  2 30  5.0800000  0  4G12G13G 9G11
                  21906196.574   -26116437.466 9
  20592096.308    20592098.191    -9707934.744 9   8385054.965 9
  20344050.356    20344052.303   -23348075.452 9  30757021.236 7
  23295396.824    23295398.172   -22420368.974 9  30830718.662 8
 86  6 12  2 30 11.0800000  0  4G12G13G 9G11
                  21903282.560   -26131774.669 9
  20592176.411    20592178.880    -9707513.118 9   8385383.505 8
  20345814.004    20345816.683   -23338803.620 9  30764246.033 7
  23298491.873    23298493.651   -22404101.564 9  30843394.573 7
 86  6 12  2 30 17.0800000  0  4G12G13G 9G11
                  21900398.314   -26147096.531 9
  20592259.290    20592261.401    -9707076.023 9   8385724.104 9
  20347582.692    20347584.552   -23329506.638 9  30771490.426 7
                  23301587.639   -22387833.530 7
 86  6 12  2 30 23.0800000  0  4G12G13G 9G11
  21897485.807    21897489.822   -26162402.443 9  33310212.945 8
  20592345.145    20592347.714    -9706623.532 9   8386076.699 9
  20349357.547    20349360.499   -23320184.525 9  30778754.410 7
                  23304679.100   -26280517.585 4
 86  6 12  2 30 29.0800000  0  4G12G13G 9G11
  21894576.476    21894579.141   -26177692.739 9  33298298.492 9
  20592434.091    20592436.475    -9706155.552 9   8386441.361 9
  20351136.458    20351137.696   -23310837.399 9  30786037.890 8
                  23307778.760   -26320121.874 3
 86  6 12  2 30 35.0800000  0  4G12G13G 9G11
  21891669.328    21891672.648   -26192967.320 9  33286396.222 8
  20592526.070    20592528.282    -9705672.119 1   8386818.036 8
  20352919.917    20352921.484   -23301465.040 9  30793341.014 8
                  23310876.627   -26359629.922 5
 86  6 12  2 30 41.0800000  0  4G12G13G 9G11
  21888766.440    21888768.110   -26208226.272 9  33274506.133 7
  20592621.427    20592623.224    -9705173.444 9   8387206.637 9
  20354707.403    20354709.311   -23292067.626 9  30800663.677 8
                  23313943.272   -26412139.113 1
 86  6 12  2 30 47.0800000  0  4G12G13G 9G11
                  21885865.731   -26223469.549 9
  20592719.789    20592720.785    -9704659.317 9   8387607.245 8
  20356500.885    20356502.907   -23282645.102 9  30808005.901 8
                  23317076.585   -26449804.143 1
 86  6 12  2 30 53.0800000  0  4G12G13G 9G11
  21882968.803    21882969.397   -26238697.085 9  33309000.651 1
  20592819.667    20592821.965    -9704129.819 9   8388019.849 9
  20358298.761    20358298.693   -23273197.615 9  30815367.555 7
                  23320165.609   -26467494.135 1
 86  6 12  2 30 59.0800000  0  4G12G13G 9G11
  21880073.789    21880075.745   -26253908.904 9  33297147.288 8
  20592924.525    20592925.019    -9703584.955 9   8388444.414 8
  20360100.642    20360102.227   -23263724.943 8  30822748.863 7
                  23323267.910   -26517506.523 9
 86  6 12  2 31  5.0800000  0  4G12G13G 9G11
  21877181.536    21877183.346   -26269104.940 9  33285306.207 8
  20593030.585    20593032.439    -9703024.823 9   8388880.879 9
  20361907.760    20361909.742   -23254227.184 8  30830149.722 7
                  23329026.637   -26486871.609 1
 86  6 12  2 31 11.0800000  0  4G12G13G 9G11
  21874292.829    21874294.656   -26284285.150 9  33273477.464 8
  20593140.193    20593140.788    -9702449.360 9   8389329.299 9
  20363720.939    20363720.725   -23244704.422 9  30837570.038 6
                  23329458.220   -26589521.459 8
 86  6 12  2 31 17.0800000  0  4G12G13G 9G11
  21871406.825    21871410.535   -26299449.443 9  33261661.137 7
  20593252.463    20593254.604    -9701858.637 9   8389789.603 9
  20365537.373    20365538.444   -23235156.572 8  30845009.928 7
                  23332553.868   -26627182.335 9
 86  6 12  2 31 23.0800000  0  4G12G13G 9G11
  21868524.943    21868526.117   -26314597.897 9  33249857.152 9
  20593367.338    20593369.549    -9701252.662 9   8390261.790 9
  20367359.860    20367360.147   -23225583.665 6  30852469.323 8
                  23335607.076   -26675565.547 1
 86  6 12  2 31 29.0800000  0  4G12G13G 9G11
  21865645.187    21865647.744   -26329730.470 9  33238065.536 9
  20593485.618    20593487.814    -9700631.458 9   8390745.850 9
  20369186.271    20369185.732   -23215985.782 9  30859948.195 7
                  23338744.415   -26660138.810 8
 86  6 12  2 31 35.0800000  0  4G12G13G 9G11
  21862767.644    21862769.822   -26344847.182 9  33226286.278 8
  20593606.587    20593607.912    -9699994.977 9   8391241.807 8
  20371018.191    20371017.007   -23206362.885 9  30867446.556 7
  23341841.182    23341819.146   -26643863.845 9  33872158.099 8
 86  6 12  2 31 41.0800000  0  4G12G13G 9G11
  21859894.197    21859897.756   -26359947.999 9  33214519.404 8
  20593731.020    20593733.347    -9699343.302 9   8391749.603 8
  20372854.311    20372853.152   -23196715.018 9  30874964.366 8
  23344938.156    23344940.639   -26627588.375 9  33884840.104 8
 86  6 12  2 31 47.0800000  0  4G12G13G 9G11
  21857024.299    21857025.526   -26375032.841 9  33202764.990 8
  20593858.200    20593859.897    -9698676.372 9   8392269.295 4
  20374694.076    20374694.556   -23187042.121 8  30882501.684 7
  23348035.673    23348037.684   -26611312.505 9  33897522.591 8
 86  6 12  2 31 53.0800000  0  4G12G13G 9G11
  21854156.462    21854158.165   -26390101.711 9  33191023.006 9
  20593987.813    20593989.481    -9697994.212 9   8392800.850 9
  20376539.054    20376540.028   -23177344.255 9  30890058.452 7
  23351133.249    23351135.531   -26595036.190 9  33910205.440 8
 86  6 12  2 31 59.0800000  0  4G12G13G 9G11
  21851291.905    21851294.237   -26405154.550 9  33179293.528 9
  20594120.145    20594122.213    -9697296.808 9   8393344.275 8
  20378389.211    20378390.810   -23167621.383 9  30897634.718 7
  23354230.552    23354232.341   -26578759.469 9  33922888.599 8
 86  6 12  2 32  5.0800000  0  4G12G13G 9G11
  21848429.666    21848432.030   -26420191.289 9  33167576.587 8
  20594256.282    20594257.607    -9696584.208 9   8393899.557 9
  20380243.407    20380245.539   -23157873.546 9  30905230.423 7
  23357326.997    23357329.658   -26562482.305 9  33935572.105 8
 86  6 12  2 32 11.0800000  0  4G12G13G 9G11
  21845571.737    21845574.016   -26435211.952 9  33155872.173 8
  20594394.080    20594395.948    -9695856.365 9   8394466.700 9
  20382103.788    20382105.037   -23148100.629 8  30912845.668 7
  23360425.452    23360428.858   -26546204.742 9  33948255.912 8
 86  6 12  2 32 17.0800000  0  4G12G13G 9G11
  21842716.810    21842718.603   -26450216.589 9  33144180.247 8
  20594535.512    20594538.453    -9695113.413 9   8395045.629 9
  20383967.410    20383967.990   -23138302.878 9  30920480.290 7
  23363522.055    23363524.745   -26529926.782 7  33960940.042 8
 86  6 12  2 32 23.0800000  0  4G12G13G 9G11
  21839864.119    21839866.434   -26465205.168 9  33132500.850 8
  20594680.263    20594681.330    -9694355.393 9   8395636.291 8
  20385838.022    20385838.016   -23128480.087 9  30928134.404 8
  23366620.259    23366622.864   -26513648.490 7  33973624.411 9
 86  6 12  2 32 29.0800000  0  4G12G13G 9G11
  21837014.443    21837017.806   -26480177.631 9  33120833.989 7
  20594827.105    20594828.272    -9693582.294 9   8396238.700 9
  20387711.725    20387713.611   -23118632.503 9  30935807.850 7
  23369717.899    23369720.675   -26497369.884 9  33986309.049 7
 86  6 12  2 32 35.0800000  0  4G12G13G 9G11
  21834169.168    21834171.314   -26495134.012 9  33109179.671 7
  20594977.065    20594978.318    -9692794.151 9   8396852.845 7
  20389590.244    20389591.742   -23108759.951 8  30943500.730 8
  23372815.595    23372818.565   -26481090.936 9  33998993.929 9
 86  6 12  2 32 41.0800000  0  4G12G13G 9G11
  21831326.246    21831328.553   -26510074.222 9  33097537.941 8
  20595129.086    20595132.185    -9691990.826 9   8397478.812 8
  20391473.548    20391475.069   -23098862.519 9  30951213.019 7
  23375913.572    23375916.390   -26464811.660 9  34011679.077 8
 86  6 12  2 32 47.0800000  0  4G12G13G 9G11
  21828486.477    21828489.152   -26524998.264 9  33085908.831 8
  20595285.057    20595288.099    -9691172.419 9   8398116.531 8
  20393361.742    20393362.415   -23088940.172 8  30958944.714 7
  23379011.741    23379013.966   -26448532.076 9  34024364.476 8
 86  6 12  2 32 53.0800000  0  4G12G13G 9G11
  21825649.357    21825650.588   -26539906.080 9  33074292.349 9
  20595444.232    20595446.615    -9690338.987 9   8398765.958 8
  20395254.609    20395256.079   -23078992.998 8  30966695.749 7
  23382109.631    23382111.963   -26432252.191 9  34037050.106 9
 86  6 12  2 32 59.0800000  0  4G12G13G 9G11
  21822815.211    21822817.804   -26554797.673 9  33062688.515 8
  20595605.411    20595608.038    -9689490.471 9   8399427.135 9
  20397151.980    20397153.705   -23069020.736 9  30974466.337 7
  23385207.735    23385209.460   -26415972.001 9  34049735.962 8
 86  6 12  2 33  5.0800000  0  4G12G13G 9G11
  21819984.577    21819987.818   -26569672.985 9  33051097.355 8
  20595769.852    20595772.550    -9688626.901 9   8400100.036 7
  20399054.122    20399056.901   -23059023.808 9  30982256.143 7
  23388305.389    23388307.629   -26399691.569 9  34062422.018 8
 86  6 12  2 33 11.0800000  0  4G12G13G 9G11
  21817157.081    21817160.447   -26584532.066 9  33039518.871 9
  20595936.898    20595939.367    -9687748.204 9   8400784.741 8
  20400960.585    20400963.777   -23049001.987 8  30990065.354 6
  23391402.872    23391406.134   -26383410.863 9  34075108.279 7
 86  6 12  2 33 17.0800000  0  4G12G13G 9G11
  21814332.858    21814335.541   -26599374.821 9  33027953.093 8
  20596107.292    20596108.731    -9686854.440 9   8401481.183 9
  20402873.181    20402874.870   -23038955.345 9  30997893.911 7
  23394501.148    23394504.389   -26367129.948 9  34087794.694 8
 86  6 12  2 33 23.0800000  0  4G12G13G 9G11
  21811511.264    21811513.331   -26614201.261 9  33016400.020 9
  20596280.605    20596281.285    -9685945.617 9   8402189.360 9
  20404790.502    20404790.549   -23028883.838 9  31005741.826 7
  23397600.176    23397602.966   -26350848.784 9  34100481.307 8
 86  6 12  2 33 29.0800000  0  4G12G13G 9G11
  21808693.444    21808695.402   -26629011.389 9  33004859.660 9
  20596456.093    20596457.533    -9685021.856 9   8402909.168 9
  20406711.941    20406712.972   -23018787.483 9  31013609.108 7
  23400698.646    23400701.293   -26334567.414 9  34113168.095 8
 86  6 12  2 33 35.0800000  0  4G12G13G 9G11
  21805878.082    21805880.136   -26643805.162 9  32993332.046 9
  20596634.271    20596636.625    -9684083.085 1   8403640.660 8
  20408637.643    20408637.361   -23008666.371 8  31021495.687 8
  23403796.492    23403800.370   -26318285.734 9  34125855.109 8
 86  6 12  2 33 41.0800000  0  4G12G13G 9G11
  21803066.222    21803068.189   -26658582.564 9  32981817.186 9
  20596815.740    20596817.723    -9683129.434 9   8404383.785 8
  20410568.386    20410569.560   -22998520.385 8  31029401.645 6
  23406895.327    23406898.124   -26302003.876 9  34138542.265 8
 86  6 12  2 33 47.0800000  0  4G12G13G 9G11
  21800257.807    21800259.206   -26673343.582 9  32970315.100 8
  20597000.358    20597001.825    -9682160.828 9   8405138.540 8
  20412503.340    20412505.036   -22988349.663 8  31037326.869 7
  23409993.331    23409995.299   -26285721.849 9  34151229.569 8
 86  6 12  2 33 53.0800000  0  4G12G13G 9G11
  21797452.096    21797454.110   -26688088.196 9  32958825.795 8
  20597187.007    20597189.419    -9681177.317 9   8405904.945 1
  20414443.659    20414443.367   -22978154.243 8  31045271.360 7
  23413091.886    23413094.520   -26269439.689 9  34163916.961 9
 86  6 12  2 33 59.0800000  0  4G12G13G 9G11
  21794649.062    21794651.048   -26702816.286 9  32947349.362 9
  20597377.261    20597378.586    -9680178.910 9   8406682.889 8
  20416388.812    20416389.764   -22967933.963 8  31053235.207 7
  23416190.013    23416192.588   -26253157.368 9  34176604.483 8
 86  6 12  2 34  5.0800000  0  4G12G13G 9G11
  21791849.301    21791851.311   -26717527.871 9  32935885.792 9
  20597569.864    20597571.903    -9679165.537 9   8407472.538 9
  20418337.727    20418339.603   -22957688.960 9  31061218.328 7
  23419288.067    23419290.743   -26236874.868 9  34189292.133 9
 86  6 12  2 34 11.0800000  0  4G12G13G 9G11
  21789053.284    21789055.130   -26732222.909 9  32924435.121 8
  20597765.613    20597768.483    -9678137.235 9   8408273.800 8
  20420292.023    20420292.374   -22947419.082 8  31069220.833 6
  23422386.959    23422389.957   -26220592.215 8  34201979.922 8
 86  6 12  2 34 17.0800000  0  4G12G13G 9G11
  21786259.697    21786261.540   -26746901.415 9  32912997.316 8
  20597964.740    20597965.621    -9677093.977 9   8409086.737 7
  20422249.610    20422252.087   -22937124.456 8  31077242.602 7
  23425485.851    23425488.684   -26204309.412 9  34214667.809 9
 86  6 12  2 34 23.0800000  0  4G12G13G 9G11
  21783469.483    21783471.450   -26761563.383 9  32901572.404 9
  20598165.498    20598167.710    -9676035.777 9   8409911.309 9
  20424214.062    20424215.261   -22926805.201 8  31085283.585 7
  23428584.306    23428585.987   -26188026.442 9  34227355.833 8
 86  6 12  2 34 29.0800000  0  4G12G13G 9G11
  21780682.801    21780684.443   -26776208.751 9  32890160.439 9
  20598369.834    20598372.317    -9674962.785 9   8410747.403 9
  20426183.243    20426184.556   -22916461.132 8  31093343.885 6
  23431682.861    23431685.731   -26171743.337 9  34240043.966 9
 86  6 12  2 34 35.0800000  0  4G12G13G 9G11
  21777899.165    21777900.622   -26790837.507 9  32878761.416 8
  20598576.487    20598579.816    -9673874.951 9   8411595.070 9
  20428157.011    20428157.084   -22906092.325 8  31101423.469 6
  23434780.902    23434784.271   -26155460.097 9  34252732.198 9
 86  6 12  2 34 41.0800000  0  4G12G13G 9G11
  21775118.493    21775120.646   -26805449.630 9  32867375.354 8
  20598787.233    20598788.485    -9672772.332 9   8412454.259 8
  20430133.422    20430133.417   -22895698.830 8  31109522.298 6
  23437879.178    23437883.228   -26139176.849 8  34265420.437 9
 86  6 12  2 34 47.0800000  0  4G12G13G 9G11
  21772340.524    21772342.881   -26820045.073 9  32856002.282 7
  20598999.438    20599001.950    -9671654.881 9   8413324.990 9
  20432116.192    20432117.502   -22885280.812 8  31117640.229 3
  23440976.589    23440981.955   -26122893.606 8  34278108.667 8
 86  6 12  2 34 53.0800000  0  4G12G13G 9G11
  21769566.612    21769568.304   -26834623.852 9  32844642.188 9
  20599215.278    20599217.075    -9670522.569 9   8414207.315 9
  20434103.110    20434105.668   -22874838.066 9  31125777.429 6
  23444077.176    23444079.909   -26106610.266 9  34290796.989 9
 86  6 12  2 34 59.0800000  0  4G12G13G 9G11
  21766795.344    21766797.293   -26849185.985 9  32833295.083 9
  20599433.408    20599435.133    -9669375.517 9   8415101.123 8
  20436096.076    20436097.834   -22864370.598 9  31133933.879 6
  23447175.725    23447179.130   -26090326.909 8  34303485.326 8
 86  6 12  2 35  5.0800000  0  4G12G13G 9G11
  21764027.975    21764029.530   -26863731.390 9  32821961.004 8
  20599654.112    20599656.997    -9668213.680 9   8416006.440 9
  20438092.588    20438093.447   -22853878.470 8  31142109.565 6
  23450273.421    23450277.628   -26074043.529 8  34316173.663 9
 86  6 12  2 35 11.0800000  0  4G12G13G 9G11
  21761263.542    21761264.823   -26878260.009 9  32810639.999 8
  20599878.910    20599880.449    -9667037.106 9   8416923.257 8
  20440092.802    20440094.580   -22843361.747 9  31150304.413 7
  23453372.563    23453376.927   -26057760.122 7  34328862.021 8
 86  6 12  2 35 17.0800000  0  4G12G13G 9G11
  21758502.015    21758504.108   -26892771.820 9  32799332.100 9
  20600104.366    20600107.264    -9665845.830 9   8417851.519 9
  20442098.719    20442100.991   -22832820.426 8  31158518.422 7
  23456471.326    23456474.996   -26041476.694 8  34341550.400 8
 86  6 12  2 35 23.0800000  0  4G12G13G 9G11
  21755743.650    21755744.301   -26907266.877 9  32788037.253 8
  20600334.973    20600336.870    -9664639.813 9   8418791.273 9
  20444110.147    20444111.000   -22822254.384 9  31166751.707 7
  23459570.189    23459573.316   -26025193.240 9  34354238.793 9
 86  6 12  2 35 29.0800000  0  4G12G13G 9G11
  21752988.677    21752989.840   -26921745.114 8  32776755.516 8
  20600567.011    20600568.306    -9663419.036 9   8419742.525 8
  20446124.911    20446126.761   -22811663.880 8  31175004.048 7
  23462667.900    23462672.487   -26008909.792 9  34366927.189 9
 86  6 12  2 35 35.0800000  0  4G12G13G 9G11
  21750236.829    21750238.514   -26936206.546 9  32765486.866 8
  20600801.338    20600804.008    -9662183.581 9   8420705.217 8
  20448146.224    20448146.317   -22801048.724 9  31183275.588 7
  23465766.985    23465771.256   -25992626.331 9  34379615.596 8
 86  6 12  2 35 41.0800000  0  4G12G13G 9G11
  21747487.375    21747490.760   -26950651.106 9  32754231.370 8
  20601040.044    20601041.798    -9660933.512 9   8421679.290 8
  20450169.626    20450171.078   -22790409.036 8  31191566.251 7
  23468865.183    23468868.080   -25976342.954 8  34392303.932 8
 86  6 12  2 35 47.0800000  0  4G12G13G 9G11
  21744741.763    21744744.314   -26965078.700 9  32742989.102 9
  20601280.239    20601282.006    -9659668.732 9   8422664.837 8
  20452199.757    20452200.906   -22779744.677 9  31199876.135 7
  23471964.082    23471967.859   -25960059.629 8  34404992.229 8
 86  6 12  2 35 53.0800000  0  4G12G13G 9G11
  21741999.972    21742002.244   -26979489.331 9  32731760.027 8
  20601523.781    20601525.721    -9658389.236 9   8423661.856 9
  20454232.893    20454235.537   -22769055.707 8  31208205.209 6
  23475062.300    23475065.799   -25943776.323 9  34417680.534 8
 86  6 12  2 35 59.0800000  0  4G12G13G 9G11
  21739260.367    21739261.783   -26993883.123 9  32720544.090 8
  20601769.957    20601772.311    -9657095.217 9   8424670.182 8
  20456272.944    20456272.400   -22758342.230 8  31216553.357 7
  23478161.987    23478164.898   -25927493.090 8  34430368.754 7
 86  6 12  2 36  5.0800000  0  4G12G13G 9G11
  21736524.084    21736527.442   -27008260.014 9  32709341.316 9
  20602018.793    20602021.091    -9655786.493 9   8425689.969 9
  20458315.120    20458317.209   -22747604.258 9  31224920.597 6
  23481261.350    23481262.352   -25911209.975 8  34443056.892 8
 86  6 12  2 36 11.0800000  0  4G12G13G 9G11
  21733791.987    21733794.506   -27022620.002 9  32698151.718 9
  20602271.665    20602272.890    -9654463.145 9   8426721.147 8
  20460364.697    20460364.729   -22736841.716 8  31233306.990 6
  23484357.802    23484362.711   -25894926.917 8  34455744.996 8
 86  6 12  2 36 17.0800000  0  4G12G13G 9G11
  21731062.062    21731065.800   -27036963.046 9  32686975.321 8
  20602525.911    20602527.865    -9653125.150 9   8427763.742 9
  20462416.449    20462417.866   -22726054.657 8  31241712.494 6
  23487456.808    23487460.887   -25878643.959 9  34468433.015 8
 86  6 12  2 36 23.0800000  0  4G12G13G 9G11
  21728335.660    21728338.167   -27051289.008 9  32675812.236 8
  20602782.789    20602784.243    -9651772.606 9   8428817.681 8
  20464474.347    20464474.201   -22715243.135 8  31250137.039 7
  23490555.393    23490559.342   -25862361.086 8  34481120.946 8
 86  6 12  2 36 29.0800000  0  4G12G13G 9G11
  21725612.871    21725616.939   -27065597.896 9  32664662.451 9
  20603042.874    20603044.485    -9650405.511 9   8429882.943 8
  20466535.565    20466537.178   -22704407.101 8  31258580.708 7
  23493653.412    23493657.461   -25846078.373 8  34493808.769 9
 86  6 12  2 36 35.0800000  0  4G12G13G 9G11
  21722894.192    21722896.818   -27079889.659 9  32653526.025 8
  20603306.163    20603308.131    -9649023.887 8   8430959.527 9
  20468602.581    20468603.508   -22693546.552 9  31267043.455 7
  23496753.319    23496755.823   -25829795.801 9  34506496.492 8
 86  6 12  2 36 41.0800000  0  4G12G13G 9G11
  21720177.528    21720180.915   -27094164.344 9  32642402.893 8
  20603571.685    20603573.552    -9647627.624 9   8432047.524 8
  20470673.050    20470675.487   -22682661.648 8  31275525.204 7
  23499851.059    23499854.930   -25813513.363 9  34519184.092 8
 86  6 12  2 36 47.0800000  0  4G12G13G 9G11
  21717464.459    21717467.954   -27108421.909 9  32631293.107 8
  20603839.953    20603842.365    -9646216.824 9   8433146.851 8
  20472749.446    20472750.742   -22671752.221 8  31284026.035 3
  23502948.627    23502952.784   -25797231.101 9  34531871.580 8
 86  6 12  2 36 53.0800000  0  4G12G13G 9G11
  21714754.194    21714757.231   -27122662.369 9  32620196.649 9
  20604111.370    20604113.739    -9644791.530 9   8434257.468 9
  20474829.660    20474831.768   -22660818.306 9  31292545.974 8
  23506048.213    23506051.175   -25780949.048 9  34544558.894 8
 86  6 12  2 36 59.0800000  0  4G12G13G 9G11
  21712048.634    21712050.880   -27136885.746 8  32609113.501 9
  20604385.076    20604387.646    -9643351.795 9   8435379.335 8
  20476915.528    20476917.235   -22649860.067 8  31301084.851 7
  23509146.325    23509149.465   -25764667.220 8  34557246.024 8
 86  6 12  2 37  5.0800000  0  4G12G13G 9G11
  21709344.930    21709347.187   -27151091.902 9  32598043.774 9
  20604662.102    20604664.213    -9641897.509 9   8436512.549 9
  20479006.159    20479006.861   -22638877.359 9  31309642.808 7
  23512245.158    23512247.863   -25748385.630 9  34569932.980 7
 86  6 12  2 37 11.0800000  0  4G12G13G 9G11
  21706644.059    21706647.290   -27165280.788 9  32586987.502 8
  20604941.018    20604943.185    -9640428.739 9   8437657.040 8
  20481099.859    20481101.322   -22627870.168 9  31318219.828 7
  23515343.034    23515346.097   -25732104.226 9  34582619.782 9
 86  6 12  2 37 17.0800000  0  4G12G13G 9G11
  21703947.406    21703950.890   -27179452.376 9  32575944.709 8
  20605223.481    20605225.521    -9638945.491 9   8438812.811 8
  20483200.616    20483200.774   -22616838.651 8  31326815.817 7
  23518440.889    23518443.801   -25715823.009 9  34595306.448 9
 86  6 12  2 37 23.0800000  0  4G12G13G 9G11
  21701254.459    21701256.956   -27193606.724 9  32564915.349 9
  20605508.663    20605511.461    -9637447.773 9   8439979.864 9
  20485303.857    20485305.037   -22605782.676 9  31335430.849 6
  23521539.437    23521541.991   -25699541.995 9  34607992.942 8
 86  6 12  2 37 29.0800000  0  4G12G13G 9G11
  21698563.644    21698566.846   -27207743.788 9  32553899.457 9
  20605796.478    20605798.346    -9635935.547 9   8441158.226 8
  20487411.912    20487415.632   -22594702.391 9  31344064.839 6
  23524638.157    23524640.661   -25683261.234 9  34620679.244 8
 86  6 12  2 37 35.0800000  0  4G12G13G 9G11
  21695877.054    21695879.930   -27221863.577 9  32542897.024 9
  20606087.527    20606089.682    -9634408.908 9   8442347.805 9
  20489524.574    20489527.297   -22583597.730 8  31352717.814 1
  23527735.739    23527739.589   -25666980.723 9  34633365.353 8
 86  6 12  2 37 41.0800000  0  4G12G13G 9G11
  21693193.380    21693196.714   -27235966.042 6  32531908.101 8
  20606380.179    20606382.276    -9632867.865 9   8443548.620 9
  20491643.541    20491643.154   -22572468.719 8  31361389.763 7
  23530834.159    23530836.098   -25650700.472 9  34646051.266 8
 86  6 12  2 37 47.0800000  0  4G12G13G 9G11
  21690513.830    21690516.048   -27250051.117 9  32520932.704 8
  20606676.293    20606677.990    -9631312.475 9   8444760.623 8
  20493764.900    20493766.654   -22561315.421 9  31370080.635 6
  23533931.483    23533935.633   -25634420.499 9  34658736.961 8
 86  6 12  2 37 53.0800000  0  4G12G13G 9G11
  21687836.773    21687837.631   -27264118.860 9  32509970.844 9
  20606974.640    20606977.267    -9629742.765 9   8445983.765 8
  20495891.847    20495894.206   -22550137.793 8  31378790.496 6
  23537029.066    23537033.238   -25618140.850 9  34671422.398 9
 86  6 12  2 37 59.0800000  0  4G12G13G 9G11
  21685162.213    21685165.203   -27278169.151 9  32499022.564 9
  20607276.564    20607278.160    -9628158.668 9   8447218.123 8
  20498023.950    20498024.793   -22538935.755 8  31387519.329 6
  23540127.285    23540131.220   -25601861.490 9  34684107.605 8
 86  6 12  2 38  5.0800000  0  4G12G13G 9G11
  21682492.003    21682493.667   -27292202.083 9  32488087.815 9
  20607580.692    20607583.161    -9626560.225 9   8448463.667 9
  20500159.876    20500162.791   -22527709.487 9  31396267.068 7
  23543225.870    23543228.981   -25585582.416 9  34696792.589 8
 86  6 12  2 38 11.0800000  0  4G12G13G 9G11
  21679825.593    21679826.681   -27306217.626 9  32477166.602 9
  20607887.481    20607889.793    -9624947.446 9   8449720.379 9
  20502300.845    20502303.181   -22516458.881 9  31405033.773 6
  23546323.144    23546327.501   -25569303.645 9  34709477.349 8
 86  6 12  2 38 17.0800000  0  4G12G13G 9G11
  21677161.761    21677162.771   -27320215.718 9  32466258.992 8
  20608197.361    20608199.601    -9623320.366 9   8450988.230 9
  20504446.798    20504449.278   -22505183.992 8  31413819.380 6
  23549420.863    23549423.302   -25553025.187 9  34722161.857 8
 86  6 12  2 38 23.0800000  0  4G12G13G 9G11
  21674501.268    21674502.641   -27334196.291 9  32455365.048 9
  20608510.647    20608511.041    -9621678.952 9   8452267.257 9
  20506596.445    20506598.330   -22493884.827 9  31422623.941 7
  23552518.073    23552521.257   -25536747.050 9  34734846.127 8
 86  6 12  2 38 29.0800000  0  4G12G13G 9G11
  21671844.005    21671845.328   -27348159.334 9  32444484.750 8
  20608824.648    20608827.131    -9620023.257 9   8453557.408 9
                  20508751.899   -22482561.450 8
  23555616.757    23555620.019   -25520469.179 9  34747530.169 8
 86  6 12  2 38 35.0800000  0  4G12G13G 9G11
                  21669192.891                    32433618.137 8
  20609142.827    20609144.509    -9618353.293 9   8454858.668 8
  20510913.106    20510912.758   -22471213.851 9  31477431.113 1
  23558713.802    23558716.329   -25504191.704 9  34760213.919 9
 86  6 12  2 38 41.0800000  0  4G12G13G 9G11
  21666533.760    21666541.144   -27398323.207 9  32422765.151 8
  20609462.809    20609464.906    -9616669.084 9   8456171.037 8
  20513075.095    20513077.059   -22459842.082 8  31486292.242 7
  23561810.183    23561814.984   -25487914.587 9  34772897.377 8
 86  6 12  2 38 47.0800000  0  4G12G13G 9G11
  21663892.308    21663894.612   -27412233.731 6  32411925.868 8
                  20609786.211    -9614970.639 9
  20515243.407    20515244.713   -22448446.085 8  31495172.738 6
  23564907.422    23564911.214   -25471637.848 8  34785580.553 9
 86  6 12  2 38 53.0800000  0  4G12G13G 9G11
  21661248.538    21661251.011   -27426126.484 9  32401100.353 8
                  20610111.946    -9613258.026 9
  20517416.623    20517417.266   -22437025.794 8  31504071.651 8
  23568005.463    23568008.388   -25455361.558 8  34798263.377 8
 86  6 12  2 38 59.0800000  0  4G12G13G 9G11
  21658608.149    21658610.145   -27440001.150 9  32390288.542 9
                  20610440.628    -9611531.149 9
  20519594.883    20519596.103   -22425581.297 8  31512989.444 7
  23571103.073    23571106.973   -25439085.672 9  34810945.883 8
 86  6 12  2 39  5.0800000  0  4G12G13G 9G11
  21655971.470    21655973.974   -27453858.611 9  32379490.515 8
  20610771.829    20610830.439    -9609790.103 9   8595338.631 8
  20521777.482    20521777.374   -22414112.666 8  31521926.029 7
  23574200.097    23574202.903   -25422810.182 9  34823628.074 8
 86  6 12  2 39 11.0800000  0  4G12G13G 9G11
  21653336.789    21653339.637   -27467698.394 9  32368706.280 8
  20611105.633    20611108.466    -9608034.728 9   8596706.621 6
  20523964.868    20523965.776   -22402619.785 6  31530881.516 6
  23577296.392    23577299.411   -25406535.145 9  34836309.934 8
 86  6 12  2 39 17.0800000  0  4G12G13G 9G11
  21650706.921    21650709.629   -27481520.470 9  32357935.837 8
  20611442.672    20611446.021    -9606265.109 9   8598085.540 9
  20526157.204    20526157.941   -22391102.780 9  31539855.811 7
  23580393.860    23580396.808   -25390260.548 9  34848991.425 8
 86  6 12  2 39 23.0800000  0  4G12G13G 9G11
  21648080.662    21648082.501   -27495324.896 9  32347179.141 8
  20611782.644    20611783.832    -9604481.373 9   8599475.962 8
  20528352.009    20528353.625   -22379561.658 8  31548848.879 8
  23583490.670    23583493.231   -25373986.435 9  34861672.554 7
 86  6 12  2 39 29.0800000  0  4G12G13G 9G11
  21645457.179    21645459.647   -27509111.630 9  32336436.233 9
  20612124.319    20612125.736    -9602683.486 9   8600876.911 9
  20530553.614    20530553.607   -22367996.485 9  31557860.699 7
  23586588.459    23586590.813   -25357712.795 9  34874353.313 8
 86  6 12  2 39 35.0800000  0  4G12G13G 9G11
  21642836.772    21642839.795   -27522880.569 9  32325707.188 9
  20612469.615    20612471.188    -9600871.447 9   8602288.886 8
  20532758.124    20532759.118   -22356407.133 9  31566891.362 6
  23589683.631    23589686.736   -25341439.600 9  34887033.724 8
 86  6 12  2 39 41.0800000  0  4G12G13G 9G11
  21640220.130    21640221.717   -27536631.718 9  32314992.006 8
  20612816.898    20612818.616    -9599045.303 9   8603711.870 8
  20534967.957    20534969.474   -22344793.677 9  31575940.815 8
  23592780.941    23592784.240   -25325166.917 9  34899713.730 8
 86  6 12  2 39 47.0800000  0  4G12G13G 9G11
  21637606.527    21637609.178   -27550365.119 9  32304290.659 9
  20613166.629    20613168.761    -9597205.046 9   8605145.835 9
  20537182.995    20537184.454   -22333156.152 9  31585009.005 7
  23595877.029    23595879.969   -25308894.711 9  34912393.375 8
 86  6 12  2 39 53.0800000  0  4G12G13G 9G11
  21634996.523    21634999.006   -27564080.658 9  32293603.239 9
  20613520.582    20613521.511    -9595350.768 9   8606590.724 9
  20539402.212    20539403.202   -22321494.589 9  31594095.940 7
  23598973.774    23598976.013   -25292623.028 9  34925072.635 8
 86  6 12  2 39 59.0800000  0  4G12G13G 9G11
  21632390.047    21632393.056   -27577778.286 9  32282929.749 9
  20613876.022    20613876.667    -9593482.440 9   8608046.564 9
  20541625.534    20541627.979   -22309808.913 8  31603201.656 7
  23602070.519    23602072.071   -25276351.827 9  34937751.477 8
 86  6 12  2 40  5.0800000  0  4G12G13G 9G11
  21629787.319    21629789.694   -27591457.951 9  32272270.270 8
  20614234.768    20614235.426    -9591600.051 9   8609513.360 7
  20543853.708    20543856.084   -22298099.237 8  31612326.061 8
  23605165.891    23605167.907   -25260081.145 9  34950429.917 6
 86  6 12  2 40 11.0800000  0  4G12G13G 9G11
  21627187.708    21627189.912   -27605119.744 9  32261624.719 8
  20614594.673    20614596.534    -9589703.578 9   8610991.127 9
  20546086.608    20546087.796   -22286365.503 9  31621469.231 7
  23608262.278    23608264.467   -25243811.045 9  34963107.926 9
 86  6 12  2 40 17.0800000  0  4G12G13G 9G11
  21624590.729    21624593.744   -27618763.620 9  32250993.129 8
  20614958.098    20614960.444    -9587793.045 9   8612479.866 9
  20548324.555    20548324.981   -22274607.776 9  31630631.086 8
  23611358.065    23611362.365   -25227541.481 9  34975785.494 7
 86  6 12  2 40 23.0800000  0  4G12G13G 9G11
  21621997.846    21622001.005   -27632389.510 9  32240375.551 9
  20615324.585    20615325.958    -9585868.418 9   8613979.567 9
  20550565.844    20550567.295   -22262825.990 8  31639811.698 7
  23614454.667    23614457.014   -25211272.455 9  34988462.661 7
 86  6 12  2 40 29.0800000  0  4G12G13G 9G11
  21619408.498    21619411.245   -27645997.463 9  32229771.941 9
  20615693.190    20615695.994    -9583929.749 9   8615490.223 8
  20552811.510    20552813.570   -22251020.234 9  31649010.979 7
  23617550.067    23617553.143   -25195004.009 9  35001139.363 8
 86  6 12  2 40 35.0800000  0  4G12G13G 9G11
  21616822.956    21616824.615   -27659587.465 9  32219182.340 9
  20616065.115    20616066.660    -9581977.122 9   8617011.753 9
  20555063.415    20555065.348   -22239190.480 9  31658228.981 7
  23620644.974    23620648.851   -25178736.164 9  35013815.602 8
 86  6 12  2 40 41.0800000  0  4G12G13G 9G11
  21614239.274    21614241.527   -27673159.466 9  32208606.761 8
  20616438.871    20616441.676    -9580010.573 9   8618544.133 8
  20557318.834    20557320.626   -22227336.869 9  31667465.556 7
  23623740.975    23623743.229   -25162468.908 9  35026491.400 7
 86  6 12  2 40 47.0800000  0  4G12G13G 9G11
  21611660.735    21611663.172   -27686713.441 9  32198045.217 8
  20616816.362    20616817.950    -9578030.063 9   8620087.377 9
  20559578.584    20559580.749   -22215459.190 9  31676720.883 7
  23626836.969    23626840.159   -25146202.332 9  35039166.648 8
 86  6 12  2 40 53.0800000  0  4G12G13G 9G11
  21609084.011    21609087.929   -27700249.375 9  32187497.744 9
  20617197.000    20617197.430    -9576035.591 9   8621641.519 9
  20561844.889    20561846.388   -22203557.506 8  31685994.919 8
  23629931.861    23629934.952   -25129936.348 9  35051841.437 5
 86  6 12  2 40 59.0800000  0  4G12G13G 9G11
  21606512.300    21606514.943   -27713767.216 9  32176964.375 9
  20617578.069    20617579.857    -9574027.209 9   8623206.493 9
  20564113.029    20564114.692   -22191631.962 8  31695287.529 7
  23633027.390    23633029.637   -25113670.921 9  35064515.798 8
 86  6 12  2 41  5.0800000  0  4G12G13G 9G11
  21603943.134    21603945.885   -27727266.996 9  32166445.059 8
  20617963.315    20617964.202    -9572005.022 9   8624782.218 9
  20566386.749    20566389.545   -22179682.554 9  31704598.754 7
  23636123.134    23636125.159   -25097406.108 8  35077189.679 7
 86  6 12  2 41 11.0800000  0  4G12G13G 9G11
  21601377.922    21601379.653   -27740748.626 9  32155939.884 8
  20618349.792    20618351.867    -9569968.922 9   8626368.784 8
  20568665.495    20568668.124   -22167709.221 9  31713928.631 6
  23639217.067    23639219.586   -25081141.954 9  35089863.045 8
 86  6 12  2 41 17.0800000  0  4G12G13G 9G11
  21598815.868    21598818.348   -27754212.123 9  32145448.854 8
  20618740.233    20618742.050    -9567918.928 9   8627966.186 8
  20570949.525    20570950.601   -22155712.016 8  31723277.099 7
  23642312.532    23642315.072   -25064878.445 9  35102535.914 7
 86  6 12  2 41 23.0800000  0  4G12G13G 9G11
  21596257.753    21596259.249   -27767657.361 9  32134972.040 9
  20619133.106    20619133.606    -9565854.963 9   8629574.477 9
  20573236.642    20573238.641   -22143690.982 9  31732644.121 7
  23645407.875    23645410.795   -25048615.586 9  35115208.264 8
 86  6 12  2 41 29.0800000  0  4G12G13G 9G11
  21593702.328    21593705.480   -27781084.383 9  32124509.419 9
  20619527.811    20619530.258    -9563777.137 9   8631193.569 9
  20575528.924    20575530.509   -22131646.069 9  31742029.773 7
  23648501.902    23648504.921   -25032353.389 9  35127880.107 8
 86  6 12  2 41 35.0800000  0  4G12G13G 9G11
  21591151.393    21591153.414   -27794493.174 9  32114061.021 8
  20619925.892    20619928.082    -9561685.398 9   8632823.489 9
  20577825.489    20577826.717   -22119577.310 8  31751433.991 7
  23651596.894    23651598.783   -25016091.838 9  35140551.446 8
 86  6 12  2 41 41.0800000  0  4G12G13G 9G11
  21588602.633    21588604.747   -27807883.727 9  32103626.821 8
  20620326.493    20620328.768    -9559579.821 9   8634464.198 8
  20580126.497    20580128.332   -22107484.641 8  31760856.845 7
  23654690.663    23654693.331   -24999830.973 9  35153222.180 3
 86  6 12  2 41 47.0800000  0  4G12G13G 9G11
  21586057.528    21586058.657   -27821256.006 9  32093206.858 7
  20620729.712    20620731.944    -9557460.446 9   8636115.660 8
  20582433.275    20582433.264   -22095368.138 9  31770298.267 7
  23657785.255    23657786.922   -24983570.898 8  35165892.434 8
 86  6 12  2 41 53.0800000  0  4G12G13G 9G11
  21583516.498    21583518.172   -27834609.993 9  32082801.164 9
  20621135.192    20621137.810    -9555327.278 9   8637777.874 9
  20584742.660    20584743.061   -22083227.937 9  31779758.166 7
  23660877.757    23660880.905   -24967311.577 8  35178562.023 8
 86  6 12  2 41 59.0800000  0  4G12G13G 9G11
  21580979.497    21580981.951   -27847945.623 9  32072409.765 9
  20621543.404    20621545.965    -9553180.371 9   8639450.790 8
  20587058.092    20587057.945   -22071063.941 8  31789236.603 7
  23663971.919    23663976.127   -24951052.940 8  35191231.094 8
 86  6 12  2 42  5.0800000  0  4G12G13G 9G11
  21578445.045    21578446.766   -27861262.957 9  32062032.621 9
  20621955.308    20621957.813    -9551019.646 9   8641134.463 9
  20589376.145    20589378.284   -22058876.114 8  31798733.591 7
  23667065.939    23667068.665   -24934795.009 9  35203899.602 8
 86  6 12  2 42 11.0800000  0  4G12G13G 9G11
  21575913.839    21575916.504   -27874561.978 9  32051669.733 7
  20622369.360    20622372.064    -9548845.129 9   8642828.895 8
  20591700.334    20591701.314   -22046664.551 9  31808249.102 7
  23670160.481    23670162.133   -24918537.807 9  35216567.541 8
 86  6 12  2 42 17.0800000  0  4G12G13G 9G11
  21573387.229    21573390.083   -27887842.616 9  32041321.200 8
  20622785.113    20622787.374    -9546656.889 9   8644534.012 9
  20594028.443    20594029.666   -22034429.185 9  31817783.143 8
  23673253.534    23673255.136   -24902281.352 9  35229234.902 8
 86  6 12  2 42 23.0800000  0  4G12G13G 9G11
  21570863.030    21570866.139   -27901104.820 9  32030987.011 9
  20623205.131    20623205.889    -9544454.885 9   8646249.863 8
  20596362.762    20596362.837   -22022170.147 9  31827335.637 8
  23676346.938    23676348.605   -24886025.703 9  35241901.651 8
 86  6 12  2 42 29.0800000  0  4G12G13G 9G11
  21568343.060    21568345.353   -27914348.598 9  32020667.194 8
  20623626.565    20623628.755    -9542239.137 9   8647976.426 9
  20598700.041    20598700.841   -22009887.300 8  31836906.691 8
  23679440.071    23679441.179   -24869770.836 9  35254567.786 7
 86  6 12  2 42 35.0800000  0  4G12G13G 9G11
  21565825.583    21565828.617   -27927573.977 9  32010361.706 9
  20624050.618    20624053.222    -9540009.754 9   8649713.589 9
  20601040.899    20601041.074   -21997580.854 9  31846496.119 8
  23682533.181    23682535.314   -24853516.783 9  35267233.271 5
 86  6 12  2 42 41.0800000  0  4G12G13G 9G11
  21563312.749    21563315.522   -27940780.894 9  32000070.594 9
  20624477.433    20624479.751    -9537766.635 9   8651461.472 9
  20603387.191    20603388.973   -21985250.677 8  31856104.041 7
  23685626.349    23685627.909   -24837263.514 9  35279898.150 1
 86  6 12  2 42 47.0800000  0  4G12G13G 9G11
  21560802.663    21560805.468   -27953969.336 9  31989793.884 8
  20624906.709    20624909.284    -9535509.882 9   8653219.996 9
  20605736.149    20605739.999   -21972896.886 8  31865730.370 7
  23688719.596    23688720.748   -24821011.014 9  35292562.432 2
 86  6 12  2 42 53.0800000  0  4G12G13G 9G11
  21558297.141    21558299.625   -27967139.322 9  31979531.562 9
  20625339.018    20625340.735    -9533239.474 9   8654989.143 9
  20608092.884    20608094.916   -21960519.328 8  31875375.218 5
  23691811.612    23691814.624   -24804759.316 9  35305226.089 7
 86  6 12  2 42 59.0800000  0  4G12G13G 9G11
  21555794.063    21555796.732   -27980290.717 9  31969283.734 8
  20625774.476    20625775.477    -9530955.483 9   8656768.873 8
  20610453.075    20610453.965   -21948118.179 9  31885038.435 7
  23694903.814    23694905.624   -24788508.430 9  35317889.115 8
 86  6 12  2 43  5.0800000  0  4G12G13G 9G11
  21553294.781    21553297.786   -27993423.504 9  31959050.388 9
  20626210.563    20626213.253    -9528657.823 9   8658559.263 8
  20612817.450    20612819.515   -21935693.505 9  31894720.009 7
  23697996.360    23697997.862   -24772258.440 9  35330551.455 8
 86  6 12  2 43 11.0800000  0  4G12G13G 9G11
  21550799.594    21550802.928   -28006537.712 9  31948831.530 8
  20626651.658    20626654.148    -9526346.612 9   8660360.210 9
  20615187.099    20615189.003   -21923245.029 6  31904420.109 8
  23701088.870    23701090.651   -24756009.277 9  35343213.129 8
 86  6 12  2 43 17.0800000  0  4G12G13G 9G11
  21548307.877    21548310.220   -28019633.385 9  31938627.101 8
  20627093.454    20627094.813    -9524021.787 9   8662171.755 9
  20617559.868    20617562.307   -21910773.002 8  31914138.568 7
  23704180.714    23704183.691   -24739761.032 9  35355874.102 8
 86  6 12  2 43 23.0800000  0  4G12G13G 9G11
  21545818.857    21545821.345   -28032710.435 9  31928437.190 8
  20627538.227    20627540.402    -9521683.306 9   8663993.951 8
  20619937.880    20619938.545   -21898277.359 9  31923875.422 9
  23707272.423    23707274.462   -24723513.605 9  35368534.440 8
 86  6 12  2 43 29.0800000  0  4G12G13G 9G11
  21543333.770    21543337.036   -28045768.879 9  31918261.784 8
  20627986.391    20627988.451    -9519331.271 9   8665826.707 8
  20622320.232    20622322.249   -21885758.204 9  31933630.605 7
  23710363.830    23710365.376   -24707267.131 9  35381194.034 8
 86  6 12  2 43 35.0800000  0  4G12G13G 9G11
  21540852.466    21540854.412   -28058808.601 9  31908100.962 8
  20628436.730    20628438.104    -9516965.642 9   8667670.048 8
  20624707.034    20624708.915   -21873215.433 9  31943404.193 7
  23713455.711    23713458.021   -24691021.535 9  35393852.935 6
 86  6 12  2 43 41.0800000  0  4G12G13G 9G11
  21538375.431    21538377.194   -28071829.617 8  31897954.714 8
  20628888.872    20628890.160    -9514586.447 9   8669523.966 9
  20627097.237    20627100.006   -21860649.186 8  31953196.076 8
  23716546.897    23716548.206   -24674776.797 9  35406511.177 7
 86  6 12  2 43 47.0800000  0  4G12G13G 9G11
  21535900.939    21535903.313   -28084831.903 9  31887823.065 8
  20629343.905    20629345.879    -9512193.803 9   8671388.368 8
  20629493.652    20629495.727   -21848059.363 9  31963006.312 7
  23719637.768    23719639.543   -24658532.948 9  35419168.710 8
 86  6 12  2 43 53.0800000  0  4G12G13G 9G11
  21533430.135    21533432.567   -28097815.434 9  31877706.015 9
  20629801.398    20629803.373    -9509787.678 9   8673263.271 8
  20631894.656    20631896.323   -21835446.019 9  31972834.899 8
  23722728.361    23722732.217   -24642290.058 9  35431825.512 8
 86  6 12  2 43 59.0800000  0  4G12G13G 9G11
  21530962.954    21530966.164   -28110780.250 9  31867603.568 9
  20630262.268    20630263.785    -9507368.042 9   8675148.706 8
  20634298.565    20634300.690   -21822809.181 9  31982681.786 5
  23725818.530    23725821.027   -24626048.135 9  35444481.563 8
 86  6 12  2 44  5.0800000  0  4G12G13G 9G11
  21528499.903    21528501.921   -28123726.290 9  31857515.743 8
  20630724.914    20630727.146    -9504934.931 9   8677044.636 9
  20636707.936    20636709.296   -21810148.896 9  31992546.926 7
  23728909.151    23728912.264   -24609807.199 9  35457136.836 6
 86  6 12  2 44 11.0800000  0  4G12G13G 9G11
  21526039.892    21526042.016   -28136653.577 9  31847442.534 8
  20631190.834    20631192.137    -9502488.382 9   8678951.048 9
  20639121.707    20639122.555   -21797465.117 8  32002430.377 8
  23731999.100    23732003.772   -24593567.183 9  35469791.394 8
 86  6 12  2 44 17.0800000  0  4G12G13G 9G11
  21523583.708    21523586.706   -28149562.027 9  31837384.003 9
  20631658.774    20631660.448    -9500028.345 9   8680867.969 8
  20641540.057    20641541.714   -21784757.951 9  32012332.057 8
  23735090.065    23735092.440   -24577328.129 8  35482445.203 8
 86  6 12  2 44 23.0800000  0  4G12G13G 9G11
  21521130.834    21521133.195   -28162451.553 9  31827340.201 8
  20632130.019    20632131.908    -9497554.932 9   8682795.301 8
  20643961.606    20643963.942   -21772027.258 9  32022252.072 8
  23738179.948    23738182.452   -24561090.005 9  35495098.290 8
 86  6 12  2 44 29.0800000  0  4G12G13G 9G11
  21518681.265    21518684.731   -28175322.252 9  31817311.087 9
  20632602.337    20632604.798    -9495068.090 9   8684733.093 9
  20646389.246    20646390.938   -21759273.179 9  32032190.320 7
  23741269.825    23741272.916   -24544852.864 9  35507750.597 6
 86  6 12  2 44 35.0800000  0  4G12G13G 9G11
  21516235.513    21516237.141   -28188174.021 9  31807296.725 9
  20633078.432    20633080.807    -9492567.786 9   8686681.388 8
  20648820.925    20648823.230   -21746495.610 9  32042146.866 6
  23744358.837    23744362.736   -24528616.737 9  35520402.124 8
 86  6 12  2 44 41.0800000  0  4G12G13G 9G11
  21513793.506    21513795.467   -28201006.849 9  31797297.126 8
  20633556.016    20633558.734    -9490054.088 9   8688640.116 8
  20651256.586    20651257.387   -21733694.697 8  32052121.597 7
  23747448.913    23747452.656   -24512381.631 9  35533052.853 8
 86  6 12  2 44 47.0800000  0  4G12G13G 9G11
  21511355.073    21511358.235   -28213820.749 9  31787312.260 8
  20634037.048    20634039.524    -9487527.017 9   8690609.262 8
  20653697.147    20653698.450   -21720870.460 9  32062114.506 8
  23750538.162    23750540.873   -24496147.585 9  35545702.770 8
 86  6 12  2 44 53.0800000  0  4G12G13G 9G11
  21508920.675    21508923.122   -28226615.796 9  31777342.103 9
  20634520.341    20634523.775    -9484986.592 9   8692588.822 8
  20656141.827    20656144.106   -21708022.902 9  32072125.582 8
  23753627.136    23753630.234   -24479914.677 9  35558351.871 8
 86  6 12  2 44 59.0800000  0  4G12G13G 9G11
  21506489.225    21506492.251   -28239391.865 9  31767386.718 9
  20635006.424    20635007.883    -9482432.799 9   8694578.803 8
  20658590.419    20658592.144   -21695151.896 9  32082154.934 8
  23756714.201    23756718.602   -24463682.561 8  35571000.183 8
 86  6 12  2 45  5.0800000  0  4G12G13G 9G11
  21504062.061    21504064.865   -28252148.967 9  31757446.123 9
  20635495.313    20635497.001    -9479865.651 9   8696579.168 8
  20661043.891    20661046.023   -21682257.595 9  32092202.443 7
  23759804.336    23759807.441   -24447451.549 8  35583647.717 9
 86  6 12  2 45 11.0800000  0  4G12G13G 9G11
  21501638.191    21501641.057   -28264887.002 9  31747520.381 8
  20635986.361    20635987.920    -9477285.119 9   8698589.959 9
  20663502.168    20663504.901   -21669339.907 8  32102268.171 8
  23762892.539    23762896.624   -24431221.593 8  35596294.432 8
 86  6 12  2 45 17.0800000  0  4G12G13G 9G11
  21499218.110    21499220.156   -28277605.990 9  31737609.480 9
  20636479.542    20636481.960    -9474691.288 7   8700611.124 8
  20665965.678    20665967.935   -21656398.929 9  32112352.031 7
  23765980.298    23765983.868   -24414992.692 8  35608940.336 8
 86  6 12  2 45 23.0800000  0  4G12G13G 9G11
  21496801.541    21496803.641   -28290305.939 3  31727713.416 9
  20636975.971    20636978.489    -9472084.158 9   8702642.671 8
  20668432.429    20668434.915   -21643434.648 9  32122454.063 8
  23769067.900    23769072.965   -24398764.867 8  35621585.385 9
 86  6 12  2 45 29.0800000  0  4G12G13G 9G11
  21494387.799    21494390.349   -28302986.773 9  31717832.239 9
  20637475.146    20637476.592    -9469463.791 9   8704684.516 8
  20670904.013    20670906.313   -21630447.082 9  32132574.252 8
  23772157.268    23772159.221   -24382538.149 8  35634229.588 8
 86  6 12  2 45 35.0800000  0  4G12G13G 9G11
  21491978.475    21491981.551   -28315648.496 9  31707965.974 8
  20637976.383    20637977.586    -9466830.112 9   8706736.734 8
  20673379.256    20673381.289   -21617436.300 9  32142712.525 8
  23775244.627    23775247.439   -24366312.521 8  35646872.918 8
 86  6 12  2 45 41.0800000  0  4G12G13G 9G11
  21489572.419    21489574.623   -28328291.034 9  31698114.611 1
  20638480.539    20638481.040    -9464183.184 9   8708799.274 8
  20675859.866    20675861.773   -21604402.283 9  32152868.896 7
  23778331.621    23778335.076   -24350088.018 8  35659515.388 8
 86  6 12  2 45 47.0800000  0  4G12G13G 9G11
  21487170.103    21487172.500   -28340914.471 9  31688278.189 9
  20638986.741    20638987.471    -9461523.042 9   8710872.105 8
  20678343.334    20678346.858   -21591345.019 9  32163043.377 7
  23781419.572    23781422.742   -24333864.635 8  35672156.982 7
 86  6 12  2 45 53.0800000  0  4G12G13G 9G11
  21484772.076    21484774.998   -28353518.779 9  31678456.656 7
  20639495.791    20639496.077    -9458849.759 9   8712955.188 8
  20680833.759    20680836.488   -21578264.642 9  32173235.867 8
  23784506.667    23784509.400   -24317642.380 7  35684797.693 7
 86  6 12  2 45 59.0800000  0  4G12G13G 9G11
  21482377.003    21482379.354   -28366103.870 9  31668650.080 9
  20640006.300    20640007.431    -9456163.240 9   8715048.576 9
  20683326.964    20683328.199   -21565160.904 9  32183446.566 7
  23787591.728    23787596.314   -24301421.248 9  35697437.527 9
 86  6 12  2 46  5.0800000  0  4G12G13G 9G11
  21479985.336    21479988.094   -28378669.716 9  31658858.514 9
  20640519.656    20640521.703    -9453463.525 9   8717152.251 8
  20685825.864    20685826.423   -21552034.042 9  32193675.288 7
  23790680.397    23790683.043   -24285201.173 8  35710076.540 4
 86  6 12  2 46 11.0800000  0  4G12G13G 9G11
  21477598.059    21477601.347   -28391216.301 9  31649081.953 8
  20641036.949    20641038.265    -9450750.662 9   8719266.170 8
  20688327.512    20688329.866   -21538884.006 8  32203922.075 7
  23793765.930    23793768.620   -24268982.287 8  35722714.636 8
 86  6 12  2 46 17.0800000  0  4G12G13G 9G11
  21475214.491    21475216.566   -28403743.668 9  31639320.361 9
  20641555.328    20641557.402    -9448024.621 9   8721390.358 9
  20690834.268    20690836.039   -21525710.788 8  32214186.903 1
  23796851.987    23796854.333   -24252764.580 9  35735351.814 9
 86  6 12  2 46 23.0800000  0  4G12G13G 9G11
  21472834.297    21472835.820   -28416251.734 9  31629573.815 8
  20642076.082    20642078.143    -9445285.414 9   8723524.810 8
  20693345.020    20693346.573   -21512514.446 9  32224469.773 7
  23799937.762    23799941.269   -24236548.053 8  35747988.065 9
 86  6 12  2 46 29.0800000  0  4G12G13G 9G11
  21470457.883    21470460.173   -28428740.517 9  31619842.299 8
  20642599.956    20642601.229    -9442533.085 9   8725669.485 9
  20695861.925    20695861.703   -21499295.083 9  32234770.563 7
  23803022.625    23803026.946   -24220332.783 9  35760623.399 1
 86  6 12  2 46 35.0800000  0  4G12G13G 9G11
  21468085.133    21468087.283   -28441209.961 9  31610125.844 8
  20643126.219    20643128.151    -9439767.626 9   8727824.388 9
  20698382.249    20698383.376   -21486052.519 9  32245089.442 8
  23806108.023    23806112.502   -24204118.635 8  35773257.712 8
 86  6 12  2 46 41.0800000  0  4G12G13G 9G11
  21465716.093    21465718.507   -28453660.107 9  31600424.438 8
  20643654.658    20643657.019    -9436989.094 9   8729989.480 7
  20700906.516    20700906.484   -21472786.976 9  32255426.232 7
  23809193.028    23809197.399   -24187905.747 7  35785891.120 5
 86  6 12  2 46 47.0800000  0  4G12G13G 9G11
  21463350.343    21463353.344   -28466090.895 9  31590738.099 8
  20644185.386    20644187.747    -9434197.508 9   8732164.752 9
  20703434.593    20703434.811   -21459498.367 9  32265780.977 7
  23812279.106    23812283.514   -24171694.081 6  35798523.592 8
 86  6 12  2 46 53.0800000  0  4G12G13G 9G11
  21460989.159    21460991.009   -28478502.286 9  31581066.910 9
  20644720.464    20644723.054    -9431392.894 9   8734350.154 8
  20705967.334    20705970.224   -21446186.645 9  32276153.747 7
  23815363.087    23815367.774   -24155483.582 7  35811155.144 8
 86  6 12  2 46 59.0800000  0  4G12G13G 9G11
  21458629.898    21458633.118   -28490894.301 9  31571410.763 9
  20645256.071    20645258.103    -9428575.226 9   8736545.739 9
  20708505.942    20708506.869   -21432851.884 9  32286544.481 8
  23818447.333    23818452.298   -24139274.257 7  35823785.786 8
 86  6 12  2 47  5.0800000  0  4G12G13G 9G11
  21456275.921    21456278.329   -28503266.897 9  31561769.832 1
  20645794.641    20645797.503    -9425744.626 9   8738751.402 9
  20711047.330    20711048.607   -21419494.123 9  32296953.115 8
  23821531.072    23821535.465   -24123066.106 1  35836415.484 8
 86  6 12  2 47 11.0800000  0  4G12G13G 9G11
  21453925.734    21453927.236   -28515620.032 9  31552143.964 8
  20646336.044    20646337.761    -9422900.967 9   8740967.251 7
  20713592.867    20713594.520   -21406113.405 9  32307379.633 8
  23824617.972    23824620.547   -24106859.300 8  35849044.178 9
 86  6 12  2 47 17.0800000  0  4G12G13G 9G11
  21451578.272    21451580.714   -28527953.725 9  31542533.283 8
  20646878.677    20646881.997    -9420044.296 9   8743193.221 8
  20716144.762    20716145.402   -21392709.584 9  32317824.172 8
  23827700.845    23827703.735   -24090653.778 8  35861671.875 9
 86  6 12  2 47 23.0800000  0  4G12G13G 9G11
  21449234.916    21449236.575   -28540267.910 9  31532937.813 8
  20647425.402    20647427.978    -9417174.676 9   8745429.290 9
  20718699.493    20718700.541   -21379282.790 9  32328286.610 8
  23830783.131    23830786.894   -24074449.486 7  35874298.576 9
 86  6 12  2 47 29.0800000  0  4G12G13G 9G11
  21446895.077    21446896.751   -28552562.486 9  31523357.625 9
  20647974.303    20647975.878    -9414292.072 9   8747675.472 8
  20721258.520    20721260.556   -21365833.035 9  32338766.925 7
  23833868.292    23833870.167   -24058246.500 5  35886924.273 9
 86  6 12  2 47 35.0800000  0  4G12G13G 9G11
  21444559.302    21444561.394   -28564837.512 9  31513792.653 8
  20648524.506    20648527.125    -9411396.483 9   8749931.784 9
  20723822.037    20723823.998   -21352360.437 9  32349265.060 8
  23836949.555    23836953.783   -24042044.769 6  35899549.001 8
 86  6 12  2 47 41.0800000  0  4G12G13G 9G11
  21442227.247    21442229.189   -28577092.985 9  31504242.977 1
  20649078.286    20649079.717    -9408487.916 9   8752198.179 7
  20726391.146    20726392.970   -21338864.834 9  32359781.100 7
  23840031.861    23840037.414   -24025844.351 8  35912172.698 9
 86  6 12  2 47 47.0800000  0  4G12G13G 9G11
  21439898.422    21439901.148   -28589328.894 9  31494708.466 8
  20649634.484    20649636.889    -9405566.444 9   8754474.670 9
  20728963.384    20728966.163   -21325346.367 9  32370314.959 8
  23843115.973    23843118.906   -24009645.255 9  35924795.357 9
 86  6 12  2 47 53.0800000  0  4G12G13G 9G11
  21437574.030    21437576.692   -28601545.182 9  31485189.271 8
  20650193.001    20650194.546    -9402632.070 9   8756761.196 6
  20731540.274    20731542.090   -21311805.019 9  32380866.660 8
  23846198.502    23846201.514   -23993447.484 8  35937416.987 9
 86  6 12  2 47 59.0800000  0  4G12G13G 9G11
  21435252.371    21435254.621   -28613741.782 9  31475685.431 9
  20650752.991    20650755.066    -9399684.756 9   8759057.810 9
  20734121.444    20734121.221   -21298240.693 9  32391436.265 7
  23849280.652    23849283.363   -23977251.031 6  35950037.582 8
 86  6 12  2 48  5.0800000  0  4G12G13G 9G11
  21432935.534    21432938.618   -28625918.743 9  31466196.876 9
  20651316.716    20651317.846    -9396724.578 9   8761364.447 9
  20736706.196    20736708.499   -21284653.571 8  32402023.617 8
  23852362.551    23852365.627   -23961055.978 9  35962657.127 9
 86  6 12  2 48 11.0800000  0  4G12G13G 9G11
  21430621.616    21430624.571   -28638076.031 9  31456723.662 9
  20651883.632    20651884.633    -9393751.567 9   8763681.081 8
  20739296.592    20739298.642   -21271043.585 9  32412628.805 8
  23855444.058    23855446.969   -23944862.261 8  35975275.604 9
 86  6 12  2 48 17.0800000  0  4G12G13G 9G11
  21428312.624    21428315.275   -28650213.645 9  31447265.784 8
  20652451.121    20652451.993    -9390765.707 9   8766007.727 9
  20741890.427    20741892.234   -21257410.865 9  32423251.698 7
  23858525.728    23858528.332   -23928669.921 9  35987893.007 4
 86  6 12  2 48 23.0800000  0  4G12G13G 9G11
  21426006.541    21426009.305   -28662331.576 9  31437823.240 9
  20653021.957    20653023.045    -9387767.013 9   8768344.376 8
  20744488.805    20744490.394   -21243755.270 9  32433892.417 8
  23861605.867    23861610.410   -23912478.973 9  36000509.322 9
 86  6 12  2 48 29.0800000  0  4G12G13G 9G11
  21423704.166    21423706.706   -28674429.769 9  31428396.074 9
  20653594.855    20653595.756    -9384755.362 9   8770691.112 9
  20747092.581    20747093.908   -21230076.874 9  32444550.894 7
  23864686.486    23864690.543   -23896289.371 9  36013124.599 9
 86  6 12  2 48 35.0800000  0  4G12G13G 9G11
  21421405.742    21421407.530   -28686508.242 9  31418984.274 8
  20654170.099    20654171.673    -9381730.893 9   8773047.848 8
  20749699.988    20749701.801   -21216375.756 9  32455227.089 8
  23867767.570    23867769.881   -23880101.185 9  36025738.772 9
 86  6 12  2 48 41.0800000  0  4G12G13G 9G11
  21419111.943    21419114.121   -28698566.935 9  31409587.887 9
  20654748.247    20654750.336    -9378693.646 9   8775414.540 8
  20752310.460    20752313.147   -21202651.784 9  32465921.089 8
  23870848.568    23870851.236   -23863914.348 9  36038351.886 9
 86  6 12  2 48 47.0800000  0  4G12G13G 9G11
  21416820.183    21416823.857   -28710605.880 9  31400206.895 8
  20655328.327    20655329.114    -9375643.678 9   8777791.138 9
  20754927.068    20754927.665   -21188905.136 1  32476632.791 7
  23873927.991    23873930.968   -23847728.909 9  36050963.912 9
 86  6 12  2 48 53.0800000  0  4G12G13G 9G11
  21414533.198    21414536.310   -28722625.043 9  31390841.316 9
  20655910.941    20655912.758    -9372580.984 9   8780177.646 8
  20757546.787    20757549.381   -21175135.713 9  32487362.171 8
  23877007.373    23877010.843   -23831544.882 9  36063574.844 9
 86  6 12  2 48 59.0800000  0  4G12G13G 9G11
  21412249.698    21412251.908   -28734624.261 9  31381491.269 8
  20656495.929    20656498.233    -9369505.542 9   8782574.097 8
  20760171.980    20760174.789   -21161343.560 9  32498109.293 8
  23880087.849    23880090.410   -23815362.207 9  36076184.713 9
 86  6 12  2 49  5.0800000  0  4G12G13G 9G11
  21409970.480    21409972.351   -28746603.589 9  31372156.724 9
  20657084.638    20657086.455    -9366417.376 9   8784980.460 7
  20762800.490    20762802.289   -21147528.710 9  32508874.111 8
  23883166.958    23883168.718   -23799180.947 8  36088793.491 8
 86  6 12  2 49 11.0800000  0  4G12G13G 9G11
  21407693.451    21407696.800   -28758563.014 9  31362837.688 8
  20657674.620    20657676.309    -9363316.461 9   8787396.761 8
  20765433.113    20765435.918   -21133691.257 9  32519656.525 7
  23886245.874    23886248.221   -23783001.176 9  36101401.104 9
 86  6 12  2 49 17.0800000  0  4G12G13G 9G11
  21405422.658    21405425.097   -28770502.615 9  31353534.108 9
  20658266.148    20658268.709    -9360202.781 9   8789823.004 9
  20768071.857    20768073.052   -21119831.113 8  32530456.637 7
  23889323.338    23889327.616   -23766822.889 9  36114007.570 8
 86  6 12  2 49 23.0800000  0  4G12G13G 9G11
  21403153.799    21403156.518   -28782422.225 9  31344246.102 9
  20658861.454    20658863.628    -9357076.388 9   8792259.149 9
  20770712.587    20770714.847   -21105948.266 9  32541274.441 8
  23892401.803    23892405.566   -23750646.015 9  36126612.920 8
 86  6 12  2 49 29.0800000  0  4G12G13G 9G11
  21400890.110    21400891.763   -28794321.915 9  31334973.619 9
  20659458.805    20659460.693    -9353937.326 9   8794705.176 9
  20773358.997    20773360.510   -21092042.828 9  32552109.829 8
  23895480.275    23895483.716   -23734470.612 9  36139217.135 9
 86  6 12  2 49 35.0800000  0  4G12G13G 9G11
  21398630.299    21398631.286   -28806201.661 9  31325716.666 9
  20660059.290    20660061.594    -9350785.511 9   8797161.128 9
  20776009.309    20776010.662   -21078114.757 9  32562962.880 7
                  23898558.354   -23718296.675 9
 86  6 12  2 49 41.0800000  0  4G12G13G 9G11
  21396372.695    21396374.537   -28818061.501 9  31316475.231 8
  20660660.577    20660662.866    -9347621.170 9   8799626.866 8
  20778663.990    20778666.087   -21064164.043 9  32573833.554 8
  23901635.396    23901639.346   -23702124.225 9  36197639.119 2
 86  6 12  2 49 47.0800000  0  4G12G13G 9G11
  21394119.308    21394122.474   -28829901.277 9  31307249.426 8
  20661265.655    20661267.458    -9344444.248 9   8802102.376 9
  20781322.996    20781325.032   -21050190.763 9  32584721.818 7
  23904712.809    23904715.950   -23685953.304 9  36210239.830 9
 86  6 12  2 49 53.0800000  0  4G12G13G 9G11
  21391870.043    21391872.508   -28841721.021 9  31298039.254 9
  20661872.494    20661873.710    -9341254.755 9   8804587.703 6
  20783987.403    20783987.855   -21036194.977 9  32595627.621 8
  23907789.958    23907793.257   -23669783.833 9  36222839.410 8
 86  6 12  2 49 59.0800000  0  4G12G13G 9G11
  21389624.777    21389627.739   -28853520.608 7  31288844.759 8
  20662481.980    20662483.568    -9338052.698 9   8807082.812 9
  20786653.825    20786656.562   -21022176.648 9  32606550.995 1
  23910866.592    23910869.647   -23653615.735 9  36235437.930 9
 86  6 12  2 50  5.0800000  0  4G12G13G 9G11
  21387383.507    21387386.054   -28865300.110 9  31279665.930 7
  20663094.155    20663094.800    -9334838.016 9   8809587.756 9
  20789326.117    20789327.788   -21008135.760 8  32617491.940 8
  23913942.990    23913945.880   -23637449.119 9  36248035.291 9
 86  6 12  2 50 11.0800000  0  4G12G13G 9G11
  21385145.020    21385146.369   -28877059.549 9  31270502.725 8
  20663707.748    20663708.750    -9331610.765 9   8812102.501 8
  20792002.254    20792004.751   -20994072.329 9  32628450.453 9
  23917018.722    23917021.927   -23621284.059 9  36260631.446 9
 86  6 12  2 50 17.0800000  0  4G12G13G 9G11
  21382911.552    21382914.012   -28888798.894 9  31261355.188 8
  20664324.102    20664326.449    -9328370.882 9   8814627.084 9
  20794683.092    20794684.212   -20979986.331 8  32639426.548 7
  23920095.155    23920097.559   -23605120.570 9  36273226.364 9
 86  6 12  2 50 23.0800000  0  4G12G13G 9G11
  21380681.067    21380682.964   -28900518.144 9  31252223.306 9
  20664943.390    20664945.293    -9325118.476 9   8817161.426 9
  20797367.096    20797368.859   -20965877.922 9  32650420.115 9
  23923170.644    23923174.379   -23588958.672 9  36285820.060 7
 86  6 12  2 50 29.0800000  0  4G12G13G 9G11
  21378454.836    21378457.623   -28912217.239 9  31243107.125 9
  20665565.554    20665565.969    -9321853.565 9   8819705.509 9
  20800055.879    20800057.686   -20951747.054 9  32661431.175 8
  23926246.262    23926248.393   -23572798.323 9  36298412.539 9
 86  6 12  2 50 35.0800000  0  4G12G13G 9G11
  21376232.529    21376235.023   -28923896.143 9  31234006.687 8
  20666188.390    20666189.249    -9318576.105 9   8822259.376 9
  20802750.021    20802751.954   -20937593.699 8  32672459.765 7
  23929320.800    23929324.384   -23556639.511 9  36311003.818 9
 86  6 12  2 50 41.0800000  0  4G12G13G 9G11
  21374014.147    21374016.661   -28935554.834 9  31224921.985 8
  20666814.217    20666815.648    -9315286.184 9   8824822.959 9
  20805447.408    20805450.152   -20923417.958 8  32683505.785 8
  23932395.208    23932398.742   -23540482.282 9  36323593.856 8
 86  6 12  2 50 47.0800000  0  4G12G13G 9G11
  21371799.649    21371801.069   -28947193.353 9  31215853.023 8
  20667442.176    20667444.337    -9311983.772 9   8827396.260 8
  20808150.458    20808152.067   -20909219.870 9  32694569.228 8
  23935470.382    23935472.686   -23524326.629 9  36336182.674 9
 86  6 12  2 50 53.0800000  0  4G12G13G 9G11
  21369588.157    21369591.423   -28958811.682 9  31206799.774 8
  20668072.997    20668074.685    -9308668.920 9   8829979.264 9
  20810856.250    20810857.195   -20894999.390 9  32705650.110 8
  23938542.937    23938545.943   -23508172.593 1  36348770.243 9
 86  6 12  2 50 59.0800000  0  4G12G13G 9G11
  21367381.711    21367384.323   -28970409.721 9  31197762.348 8
  20668705.621    20668708.468    -9305341.625 9   8832571.960 8
  20813565.553    20813567.345   -20880756.535 9  32716748.435 7
                  23941617.647   -23492020.139 9
 86  6 12  2 51  5.0800000  0  4G12G13G 9G11
  21365178.031    21365180.410   -28981987.513 9  31188740.680 9
  20669341.364    20669344.426    -9302001.914 9   8835174.340 9
  20816280.368    20816282.149   -20866491.354 9  32727864.166 8
  23944691.784    23944693.479   -23475869.335 9  36407395.609 1
 86  6 12  2 51 11.0800000  0  4G12G13G 9G11
  21362978.690    21362980.709   -28993545.087 9  31179734.775 8
  20669979.110    20669982.216    -9298649.706 9   8837786.446 8
  20818998.717    20819001.826   -20852203.869 9  32738997.262 8
  23947763.924    23947766.771   -23459720.169 9  36419979.382 8
 86  6 12  2 51 17.0800000  0  4G12G13G 9G11
  21360783.246    21360785.571   -29005082.295 9  31170744.751 8
  20670619.260    20670622.981    -9295285.141 9   8840408.182 8
  20821721.961    20821722.966   -20837894.060 9  32750147.750 7
  23950836.694    23950838.969   -23443572.552 8  36432561.952 8
 86  6 12  2 51 23.0800000  0  4G12G13G 9G11
  21358592.126    21358594.487   -29016599.067 9  31161770.641 9
  20671262.001    20671265.121    -9291908.279 9   8843039.507 9
  20824450.083    20824451.715   -20823561.872 9  32761315.678 8
  23953908.792    23953912.148   -23427426.562 9  36445143.247 8
 86  6 12  2 51 29.0800000  0  4G12G13G 9G11
  21356404.061    21356406.236   -29028095.489 6  31152812.392 8
  20671906.816    20671909.950    -9288519.010 9   8845680.493 9
  20827181.956    20827182.277   -20809207.340 9  32772501.030 7
  23956980.074    23956984.647   -23411282.168 9  36457723.286 8
 86  6 12  2 51 35.0800000  0  4G12G13G 9G11
  21354219.841    21354223.233   -29039571.578 9  31143869.983 8
  20672554.679    20672557.040    -9285117.353 9   8848331.141 9
  20829917.820    20829918.810   -20794830.589 9  32783703.691 7
  23960053.002    23960056.201   -23395139.405 9  36470302.056 8
 86  6 12  2 51 41.0800000  0  4G12G13G 9G11
  21352040.405    21352042.763   -29051027.247 9  31134943.487 8
  20673204.145    20673205.733    -9281703.366 9   8850991.385 9
  20832656.771    20832658.752   -20780431.639 9  32794923.647 7
  23963124.062    23963128.198   -23378998.355 9  36482879.499 9
 86  6 12  2 51 47.0800000  0  4G12G13G 9G11
  21349864.542    21349867.239   -29062462.510 9  31126032.895 8
  20673856.344    20673858.232    -9278277.001 9   8853661.308 1
  20835401.542    20835401.864   -20766010.458 9  32806160.930 8
  23966195.895    23966198.628   -23362858.959 9  36495455.662 7
 86  6 12  2 51 53.0800000  0  4G12G13G 9G11
  21347692.092    21347694.875   -29073877.296 9  31117138.255 9
  20674510.160    20674512.563    -9274838.258 9   8856340.816 8
  20838150.259    20838150.142   -20751567.059 9  32817415.521 7
  23969266.920    23969269.102   -23346721.198 9  36508030.543 7
 86  6 12  2 51 59.0800000  0  4G12G13G 9G11
  21345523.441    21345525.347   -29085271.558 9  31108259.618 8
  20675167.939    20675168.697    -9271387.243 9   8859029.921 8
  20840903.044    20840904.661   -20737101.382 9  32828687.488 7
  23972336.700    23972340.671   -23330585.125 9  36520604.107 6
 86  6 12  2 52  5.0800000  0  4G12G13G 9G11
  21343359.866    21343362.030   -29096645.329 9  31099396.929 8
  20675826.863    20675828.694    -9267923.912 9   8861728.621 8
  20843659.756    20843661.159   -20722613.480 9  32839976.750 7
  23975406.579    23975410.700   -23314450.735 9  36533176.364 8
 86  6 12  2 52 11.0800000  0  4G12G13G 9G11
  21341199.307    21341201.260   -29107998.594 9  31090550.233 8
  20676488.277    20676489.950    -9264448.272 9   8864436.914 3
  20846420.740    20846421.746   -20708103.479 9  32851283.227 8
  23978477.582    23978479.872   -23298318.113 9  36545747.261 7
 86  6 12  2 52 17.0800000  0  4G12G13G 9G11
  21339042.629    21339044.381   -29119331.315 9  31081719.547 8
  20677151.837    20677153.611    -9260960.457 9   8867154.686 8
  20849186.528    20849187.180   -20693571.379 9  32862606.944 8
  23981546.690    23981550.288   -23282187.197 9  36558316.797 7
 86  6 12  2 52 23.0800000  0  4G12G13G 9G11
  21336889.779    21336892.909   -29130643.488 9  31072904.862 8
  20677818.631    20677818.845    -9257460.444 9   8869881.976 9
  20851956.420    20851957.562   -20679017.135 9  32873947.908 8
  23984617.063    23984619.266   -23266058.003 7  36570884.987 6
 86  6 12  2 52 29.0800000  0  4G12G13G 9G11
  21334741.490    21334744.141   -29141935.152 9  31064106.161 8
  20678487.042    20678488.001    -9253948.212 9   8872618.768 9
  20854729.638    20854731.634   -20664440.841 9  32885306.064 8
  23987686.384    23987688.625   -23249930.578 9  36583451.836 8
 86  6 12  2 52 35.0800000  0  4G12G13G 9G11
  21332596.414    21332599.501   -29153206.291 9  31055323.451 9
  20679156.970    20679158.414    -9250423.793 9   8875365.076 9
  20857508.558    20857507.964   -20649842.465 8  32896681.409 8
  23990754.511    23990756.836   -23233804.878 9  36596017.319 7
 86  6 12  2 52 41.0800000  0  4G12G13G 9G11
  21330455.701    21330457.390   -29164456.877 9  31046556.766 8
  20679830.188    20679831.033    -9246887.154 9   8878120.900 8
  20860289.321    20860291.110   -20635221.969 9  32908074.008 8
  23993822.173    23993825.350   -23217680.917 9  36608581.462 7
 86  6 12  2 52 47.0800000  0  4G12G13G 9G11
  21328319.046    21328321.120   -29175686.775 9  31037806.188 7
  20680504.953    20680506.914    -9243338.326 9   8880886.216 8
  20863076.043    20863077.932   -20620579.500 9  32919483.728 6
  23996889.606    23996891.838   -23201558.632 9  36621144.282 8
 86  6 12  2 52 53.0800000  0  4G12G13G 9G11
  21326185.596    21326188.086   -29186895.969 9  31029071.751 9
  20681182.536    20681185.284    -9239777.325 9   8883661.020 9
  20865866.075    20865868.085   -20605914.918 9  32930910.653 8
  23999957.561    23999958.699   -23185438.065 9  36633705.756 7
 86  6 12  2 52 59.0800000  0  4G12G13G 9G11
  21324056.445    21324058.974   -29198084.565 9  31020353.379 9
  20681862.867    20681865.257    -9236204.206 9   8886445.267 9
  20868660.929    20868664.455   -20591228.240 9  32942354.806 8
  24003024.872    24003027.047   -23169319.303 9  36646265.836 8
 86  6 12  2 53  5.0800000  0  4G12G13G 9G11
  21321930.550    21321933.963   -29209252.383 9  31011651.174 9
  20682544.886    20682547.061    -9232618.904 9   8889239.015 9
  20871460.418    20871461.435   -20576519.617 9  32953816.064 8
  24006092.155    24006094.509   -23153202.313 9  36658824.528 5
 86  6 12  2 53 11.0800000  0  4G12G13G 9G11
  21319809.738    21319811.724   -29220399.518 9  31002965.100 7
  20683229.624    20683231.469    -9229021.572 9   8892042.141 9
  20874263.779    20874265.693   -20561789.078 9  32965294.404 9
  24009158.751    24009161.777   -23137087.141 9  36671381.803 8
 86  6 12  2 53 17.0800000  0  4G12G13G 9G11
  21317692.775    21317694.851   -29231525.940 9  30994295.166 8
  20683916.722    20683919.284    -9225412.031 9   8894854.757 8
  20877071.858    20877071.446   -20547036.562 9  32976789.872 7
  24012225.175    24012227.515   -23120973.751 9  36683937.697 7
 86  6 12  2 53 23.0800000  0  4G12G13G 9G11
  21315578.846    21315581.984   -29242631.540 9  30985641.451 9
  20684605.582    20684608.386    -9221790.364 9   8897676.832 9
  20879882.623    20879883.353   -20532262.040 9  32988302.482 8
  24015291.786    24015293.703   -23104862.151 9  36696492.177 6
 86  6 12  2 53 29.0800000  0  4G12G13G 9G11
  21313469.657    21313471.953   -29253716.307 9  30977003.975 9
  20685296.773    20685299.749    -9218156.634 9   8900508.314 9
  20882698.390    20882699.749   -20517465.576 9  32999832.185 7
  24018357.029    24018358.846   -23088752.370 9  36709045.256 7
 86  6 12  2 53 35.0800000  0  4G12G13G 9G11
  21311363.945    21311367.333   -29264780.256 9  30968382.717 8
  20685990.711    20685992.943    -9214510.856 9   8903349.176 9
                  20885518.151   -20502647.252 1
  24021422.716    24021423.818   -23072644.354 8  36721596.961 7
 86  6 12  2 53 41.0800000  0  4G12G13G 9G11
  21309263.406    21309264.955   -29275823.439 9  30959777.641 8
  20686686.853    20686689.802    -9210853.044 9   8906199.421 8
                  20888341.971   -20487807.067 8
  24024487.058    24024489.656   -23056538.215 9  36734147.202 8
 86  6 12  2 53 47.0800000  0  4G12G13G 9G11
  21307165.310    21307167.535   -29286845.769 9  30951188.820 7
  20687384.985    20687387.374    -9207183.185 9   8909059.052 9
  20891168.827    20891170.211   -20472944.890 9  33074004.635 8
  24027552.194    24027555.020   -23040433.913 9  36746695.988 1
 86  6 12  2 53 53.0800000  0  4G12G13G 9G11
  21305071.872    21305074.347   -29297847.213 9  30942616.273 8
  20688085.348    20688088.383    -9203501.325 9   8911928.030 9
  20894002.140    20894002.884   -20458060.906 9  33085602.535 8
  24030615.550    24030619.763   -23024331.435 9  36759243.384 8
 86  6 12  2 53 59.0800000  0  4G12G13G 9G11
  21302983.542    21302984.507   -29308827.851 9  30934059.923 9
  20688788.531    20688791.307    -9199807.458 9   8914806.377 9
  20896838.508    20896840.337   -20443155.148 9  33097217.416 8
  24033678.782    24033682.323   -23008230.835 9  36771789.294 7
 86  6 12  2 54  5.0800000  0  4G12G13G 9G11
  21300897.237    21300897.873   -29319787.665 9  30925519.810 8
  20689493.717    20689497.036    -9196101.646 9   8917694.016 8
  20899679.510    20899679.735   -20428227.548 9  33108849.298 8
                  24036742.903   -22992132.082 8
 86  6 12  2 54 11.0800000  0  4G12G13G 9G11
  21298815.686    21298817.278   -29330726.535 9  30916996.012 8
  20690201.220    20690203.681    -9192383.860 9   8920590.989 8
  20902523.626    20902526.245   -20413278.125 9  33120498.187 8
  24039807.637    24039809.083   -22976035.204 8  36830153.299 1
 86  6 12  2 54 17.0800000  0  4G12G13G 9G11
  21296738.321    21296739.312   -29341644.479 9  30908488.528 8
  20690910.956    20690913.074    -9188654.133 9   8923497.298 1
  20905371.216    20905375.050   -20398306.885 9  33132164.087 8
  24042868.496    24042872.467   -22959940.135 8  36842694.906 8
 86  6 12  2 54 23.0800000  0  4G12G13G 9G11
  21294664.124    21294665.895   -29352541.505 9  30899997.342 8
  20691623.611    20691625.214    -9184912.483 9   8926412.854 8
  20908226.047    20908228.068   -20383314.004 9  33143846.855 8
  24045931.421    24045934.964   -22943846.934 8  36855234.568 7
 86  6 12  2 54 29.0800000  0  4G12G13G 9G11
  21292594.722    21292596.521   -29363417.530 9  30891522.509 8
  20692338.170    20692338.442    -9181158.975 9   8929337.672 1
  20911082.577    20911084.258   -20368299.352 9  33155546.579 7
  24048993.754    24048996.093   -22927755.596 6  36867773.276 7
 86  6 12  2 54 35.0800000  0  4G12G13G 9G11
  21290528.646    21290530.844   -29374272.587 9  30883064.033 8
  20693054.144    20693055.818    -9177393.535 9   8932271.775 9
  20913944.372    20913945.711   -20353262.865 8  33167263.318 7
  24052055.262    24052057.760   -22911666.190 9  36880310.460 7
 86  6 12  2 54 41.0800000  0  4G12G13G 9G11
  21288467.282    21288468.674   -29385106.584 9  30874621.952 8
  20693772.737    20693774.712    -9173616.198 9   8935215.158 9
  20916810.161    20916811.756   -20338204.669 9  33178996.973 8
  24055115.483    24055119.061   -22895578.700 8  36892846.178 8
 86  6 12  2 54 47.0800000  0  4G12G13G 9G11
  21286409.410    21286411.445   -29395919.538 9  30866196.279 8
  20694493.678    20694495.810    -9169827.036 9   8938167.752 9
  20919679.246    20919681.478   -20323124.845 9  33190747.476 7
  24058177.843    24058181.571   -22879493.182 8  36905380.350 7
 86  6 12  2 54 53.0800000  0  4G12G13G 9G11
  21284355.035    21284358.330   -29406711.447 9  30857787.005 8
  20695217.308    20695219.340    -9166026.047 9   8941129.550 7
  20922553.327    20922554.990   -20308023.375 8  33202514.851 7
  24061239.224    24061240.461   -22863409.557 7  36917913.017 6
 86  6 12  2 54 59.0800000  0  4G12G13G 9G11
  21282306.138    21282308.038   -29417482.301 9  30849394.137 7
  20695942.927    20695944.701    -9162213.183 9   8944100.622 9
  20925430.447    20925432.497   -20292900.287 9  33214299.088 1
  24064297.914    24064301.569   -22847327.889 8  36930444.183 8
 86  6 12  2 55  5.0800000  0  4G12G13G 9G11
  21280260.167    21280262.739   -29428232.093 9  30841017.674 8
  20696670.650    20696673.097    -9158388.474 9   8947080.911 9
  20928311.957    20928314.057   -20277755.483 4  33226100.209 7
  24067358.450    24067360.439   -22831248.178 8  36942973.836 8
 86  6 12  2 55 11.0800000  0  4G12G13G 9G11
  21278218.374    21278220.320   -29438960.771 9  30832657.667 2
  20697400.776    20697403.725    -9154551.972 9   8950070.391 8
  20931198.272    20931200.368   -20262589.087 9  33237918.184 7
  24070417.368    24070420.338   -22815170.386 7  36955501.968 7
 86  6 12  2 55 17.0800000  0  4G12G13G 9G11
  21276181.189    21276182.516   -29449668.331 9  30824314.116 8
  20698132.763    20698135.668    -9150703.735 9   8953069.023 8
  20934089.358    20934091.290   -20247401.126 8  33249752.940 8
  24073477.045    24073478.827   -22799094.554 7  36968028.594 7
 86  6 12  2 55 23.0800000  0  4G12G13G 9G11
  21274147.573    21274149.810   -29460354.733 9  30815987.042 8
  20698867.683    20698870.474    -9146843.664 9   8956076.857 8
  20936983.639    20936986.256   -20232191.588 9  33261604.539 8
  24076534.505    24076538.297   -22783020.637 7  36980553.705 8
 86  6 12  2 55 29.0800000  0  4G12G13G 9G11
  21272118.355    21272120.082   -29471020.000 9  30807676.447 8
  20699604.056    20699606.481    -9142971.823 9   8959093.884 9
  20939881.566    20939883.962   -20216960.489 9  33273472.906 8
  24079594.454    24079596.987   -22766948.709 8  36993077.266 5
 86  6 12  2 55 35.0800000  0  4G12G13G 9G11
  21270092.739    21270094.778   -29481664.055 9  30799382.372 7
  20700343.791    20700345.955    -9139088.209 9   8962120.073 9
  20942783.527    20942786.696   -20201707.803 8  33285358.116 7
  24082651.698    24082655.005   -22750878.720 6  37005599.334 8
 86  6 12  2 55 41.0800000  0  4G12G13G 9G11
  21268071.072    21268073.565   -29492286.893 9  30791104.834 7
  20701084.431    20701086.546    -9135192.859 8   8965155.406 8
  20945691.327    20945692.837   -20186433.585 8  33297260.103 8
  24085709.995    24085711.305   -22734810.711 7  37018119.874 8
 86  6 12  2 55 47.0800000  0  4G12G13G 9G11
  21266054.417    21266056.624   -29502888.545 9  30782843.816 8
  20701828.066    20701830.810    -9131285.766 7   8968199.890 6
  20948601.659    20948603.727   -20171138.022 9  33309178.721 8
  24088767.247    24088770.109   -22718744.673 7  37030638.833 8
 86  6 12  2 55 53.0800000  0  4G12G13G 9G11
  21264041.224    21264043.517   -29513468.889 9  30774599.389 8
  20702574.079    20702576.472    -9127366.955 9   8971253.518 9
  20951515.784    20951517.823   -20155820.837 9  33321114.180 8
  24091822.024    24091826.853   -22702680.687 7  37043156.206 7
 86  6 12  2 55 59.0800000  0  4G12G13G 9G11
  21262031.015    21262033.637   -29524027.939 9  30766371.557 8
  20703321.831    20703323.526    -9123436.428 8   8974316.258 9
  20954435.073    20954438.186   -20140482.233 8  33333066.331 8
  24094876.858    24094883.025   -22686618.741 6  37055672.006 9
 86  6 12  2 56  5.0800000  0  4G12G13G 9G11
  21260025.546    21260028.362   -29534565.667 9  30758160.338 8
  20704071.919    20704073.733    -9119494.277 9   8977388.063 7
  20957358.241    20957360.123   -20125122.238 9  33345035.168 8
  24097933.437    24097938.152   -22670558.836 6  37068186.199 8
 86  6 12  2 56 11.0800000  0  4G12G13G 9G11
  21258025.089    21258027.758   -29545082.104 9  30749965.709 8
  20704824.432    20704826.704    -9115540.467 9   8980468.962 8
  20960285.658    20960287.527   -20109740.901 8  33357020.618 8
  24100991.096    24100994.109   -22654500.991 7  37080698.798 8
 86  6 12  2 56 17.0800000  0  4G12G13G 9G11
  21256028.012    21256030.520   -29555577.155 9  30741787.751 8
  20705579.153    20705580.105    -9111575.032 9   8983558.912 9
  20963215.752    20963217.791   -20094338.041 8  33369022.848 8
  24104045.251    24104050.088   -22638445.066 7  37093209.890 1
 86  6 12  2 56 23.0800000  0  4G12G13G 9G11
  21254035.701    21254036.842   -29566050.828 9  30733626.448 8
  20706335.415    20706337.053    -9107597.925 9   8986657.954 9
  20966151.011    20966152.664   -20078913.847 8  33381041.699 8
  24107100.956    24107105.788   -22622391.198 7  37105719.405 7
 86  6 12  2 56 29.0800000  0  4G12G13G 9G11
  21252045.242    21252049.260   -29576503.137 9  30725481.798 8
  20707095.388    20707096.110    -9103609.195 9   8989766.059 9
  20969090.692    20969092.946   -20063468.149 8  33393077.302 8
  24110155.247    24110159.340   -22606339.348 7  37118227.319 1
 86  6 12  2 56 35.0800000  0  4G12G13G 9G11
  21250061.148    21250063.992   -29586934.096 9  30717353.780 8
  20707855.925    20707857.723    -9099608.852 9   8992883.208 9
  20972032.976    20972036.289   -20048001.153 8  33405129.501 8
  24113210.203    24113213.987   -22590289.660 7  37130733.579 7
 86  6 12  2 56 41.0800000  0  4G12G13G 9G11
  21248079.915    21248082.999   -29597343.611 9  30709242.471 8
  20708620.676    20708621.781    -9095596.891 9   8996009.405 9
  20974980.312    20974984.184   -20032512.887 8  33417198.284 8
  24116263.476    24116267.319   -22574241.954 7  37143238.268 8
 86  6 12  2 56 47.0800000  0  4G12G13G 9G11
  21246103.136    21246106.047   -29607731.730 9  30701147.835 8
  20709385.531    20709387.412    -9091573.352 9   8999144.636 9
  20977932.900    20977935.082   -20017003.253 9  33429283.700 7
  24119317.723    24119321.329   -22558196.364 7  37155741.306 8
 86  6 12  2 56 53.0800000  0  4G12G13G 9G11
  21244130.267    21244132.864   -29618098.410 9  30693069.898 9
  20710152.976    20710155.905    -9087538.288 9   9002288.836 8
  20980888.478    20980890.760   -20001472.363 8  33441385.695 8
  24122369.495    24122374.711   -22542152.889 7  37168242.705 7
 86  6 12  2 56 59.0800000  0  4G12G13G 9G11
  21242161.039    21242164.177   -29628443.724 9  30685008.626 8
  20710923.450    20710924.756    -9083491.730 9   9005442.006 9
  20983848.578    20983850.359   -19985920.164 9  33453504.282 8
  24125422.726    24125427.090   -22526111.510 6  37180742.473 9
 86  6 12  2 57  5.0800000  0  4G12G13G 9G11
                  21240200.341                    30676964.046 7
  20711695.614    20711696.658    -9079433.639 9   9008604.159 9
  20986810.909    20986813.249   -19970346.801 9  33465639.374 8
  24128475.750    24128479.513   -22510072.205 8  37193240.638 7
 86  6 12  2 57 11.0800000  0  4G12G13G 9G11
  21238235.735    21238237.666   -29675095.444 1  30668936.228 9
  20712469.283    20712473.029    -9075364.058 8   9011775.260 9
  20989778.207    20989781.348   -19954752.148 9  33477791.049 7
  24131527.263    24131530.189   -22494034.956 8  37205737.175 8
 86  6 12  2 57 17.0800000  0  4G12G13G 9G11
  21236279.515    21236283.472   -29685376.292 9  30660925.192 9
  20713246.538    20713248.240    -9071282.993 9   9014955.308 8
  20992749.998    20992751.650   -19939136.277 9  33489959.250 7
  24134577.948    24134581.145   -22477999.829 6  37218232.086 7
 86  6 12  2 57 23.0800000  0  4G12G13G 9G11
  21234327.712    21234329.547   -29695636.098 9  30652930.932 9
  20714024.983    20714027.694    -9067190.439 9   9018144.317 9
  20995725.780    20995727.390   -19923499.287 9  33502143.920 8
  24137629.912    24137632.545   -22461966.797 8  37230725.338 8
 86  6 12  2 57 29.0800000  0  4G12G13G 9G11
  21232379.023    21232382.116   -29705873.851 9  30644953.465 8
  20714806.146    20714808.497    -9063086.409 9   9021342.261 9
  20998705.726    20998707.365   -19907841.183 9  33514345.033 8
  24140680.260    24140684.531   -22445935.971 8  37243216.896 8
